[[{"header":{"parameterUnit":"m.s-1","parameterCategory":1,"la1":31.0,"la2":29.5877,"lo1":-88.7671,"lo2":-86.6584,"dy":0.0162,"dx":0.0185,"nx":115,"ny":88,"refTime":"2026-05-07T00:00:00:Z","depth":0,"parameterNumber":2,"parameterNumberName":"U-component_of_WINDS"},"data":[0.0,0.0,0.0,0.0,0.0,0.0,0.0,0.0,0.0,0.0,0.0,0.0,0.0,0.0,0.0,0.0,0.0,0.0,0.0,0.0,0.0,0.0,0.0,0.0,0.0,0.0,0.0,0.0,0.0,0.0,0.0,0.0,0.0,0.0,0.0,0.0,0.0,0.0,0.0,0.0,0.0,0.0,0.0,0.0,0.0,0.0,0.0,0.0,0.0,0.0,0.0,0.0,0.0,0.0,0.0,0.0,0.0,0.0,0.0,0.0,0.0,0.0,0.0,0.0,0.0,0.0,0.0,0.0,0.0,0.0,0.0,0.0,0.0,0.0,0.0,0.0,0.0,0.0,0.0,0.0,0.0,0.0,0.0,0.0,0.0,0.0,0.0,0.0,0.0,0.0,0.0,0.0,0.0,0.0,0.0,0.0,0.0,0.0,0.0,0.0,0.0,0.0,0.0,0.0,0.0,0.0,0.0,0.0,0.0,0.0,0.0,0.0,0.0,0.0,0.0,0.0,0.0,0.0,0.0,0.0,0.0,0.0,0.0,0.0,0.0,0.0,0.0,0.0,0.0,0.0,0.0,0.0,0.0,0.0,0.0,0.0,0.0,0.0,0.0,0.0,0.0,0.0,0.0,0.0,0.0,0.0,0.0,0.0,0.0,0.0,0.0,0.0,0.0,0.0,0.0,0.0,0.0,0.0,0.0,0.0,0.0,0.0,0.0,0.0,0.0,0.0,0.0,0.0,0.0,0.0,0.0,0.0,0.0,0.0,0.0,0.0,0.0,0.0,0.0,0.0,0.0,0.0,0.0,0.0,0.0,0.0,0.0,0.0,0.0,0.0,0.0,0.0,0.0,0.0,0.0,0.0,0.0,0.0,0.0,0.0,0.0,0.0,0.0,0.0,0.0,0.0,0.0,0.0,0.0,0.0,0.0,0.0,0.0,0.0,0.0,0.0,0.0,0.0,0.0,0.0,0.0,0.0,0.0,0.0,0.0,0.0,0.0,0.0,0.0,0.0,0.0,0.0,0.0,0.0,0.0,0.0,0.0,0.0,0.0,0.0,0.0,0.0,0.0,0.0,0.0,0.0,0.0,0.0,0.0,0.0,0.0,0.0,0.0,0.0,0.0,0.0,0.0,0.0,0.0,0.0,0.0,0.0,0.0,0.0,0.0,0.0,0.0,0.0,0.0,0.0,0.0,0.0,0.0,0.0,0.0,0.0,0.0,0.0,0.0,0.0,0.0,0.0,0.0,0.0,0.0,0.0,0.0,0.0,0.0,0.0,0.0,0.0,0.0,0.0,0.0,0.0,0.0,0.0,0.0,0.0,0.0,0.0,0.0,0.0,0.0,0.0,0.0,0.0,0.0,0.0,0.0,0.0,0.0,0.0,0.0,0.0,0.0,0.0,0.0,0.0,0.0,0.0,0.0,0.0,0.0,0.0,0.0,0.0,0.0,0.0,0.0,0.0,0.0,0.0,0.0,0.0,0.0,0.0,0.0,0.0,0.0,0.0,0.0,0.0,0.0,0.0,0.0,0.0,0.0,0.0,0.0,0.0,0.0,0.0,0.0,0.0,0.0,0.0,0.0,0.0,0.0,0.0,0.0,0.0,0.0,0.0,0.0,0.0,0.0,0.0,0.0,0.0,0.0,0.0,0.0,0.0,0.0,0.0,0.0,0.0,0.0,0.0,0.0,0.0,0.0,0.0,0.0,0.0,0.0,0.0,0.0,0.0,0.0,0.0,0.0,0.0,0.0,0.0,0.0,0.0,0.0,0.0,0.0,0.0,0.0,0.0,0.0,0.0,0.0,0.0,0.0,0.0,0.0,0.0,0.0,0.0,0.0,0.0,0.0,0.0,0.0,0.0,0.0,0.0,0.0,0.0,0.0,0.0,0.0,0.0,0.0,0.0,0.0,0.0,0.0,0.0,0.0,0.0,0.0,0.0,0.0,0.0,0.0,0.0,0.0,0.0,0.0,0.0,0.0,0.0,0.0,0.0,0.0,0.0,0.0,0.0,0.0,0.0,0.0,0.0,0.0,0.0,0.0,0.0,0.0,0.0,0.0,0.0,0.0,0.0,0.0,0.0,0.0,0.0,0.0,0.0,0.0,0.0,0.0,0.0,0.0,0.0,0.0,0.0,0.0,0.0,0.0,0.0,0.0,0.0,0.0,0.0,0.0,0.0,0.0,0.0,0.0,0.0,0.0,0.0,0.0,0.0,0.0,0.0,0.0,0.0,0.0,0.0,0.0,0.0,0.0,0.0,0.0,0.0,0.0,0.0,0.0,0.0,0.0,0.0,0.0,0.0,0.0,0.0,0.0,0.0,0.0,0.0,0.0,0.0,0.0,0.0,0.0,0.0,0.0,0.0,0.0,0.0,0.0,0.0,0.0,0.0,0.0,0.0,0.0,0.0,0.0,0.0,0.0,0.0,0.0,0.0,0.0,0.0,0.0,0.0,0.0,0.0,0.0,0.0,0.0,0.0,0.0,0.0,0.0,0.0,0.0,0.0,0.0,0.0,0.0,0.0,0.0,0.0,0.0,0.0,0.0,0.0,0.0,0.0,0.0,0.0,0.0,0.0,0.0,0.0,0.0,0.0,0.0,0.0,0.0,0.0,0.0,0.0,0.0,0.0,0.0,0.0,0.0,0.0,0.0,0.0,0.0,0.0,0.0,0.0,0.0,0.0,0.0,0.0,0.0,0.0,0.0,0.0,0.0,0.0,0.0,0.0,0.0,0.0,0.0,0.0,0.0,0.0,0.0,0.0,0.0,0.0,0.0,0.0,0.0,0.0,0.0,0.0,0.0,0.0,0.0,0.0,0.0,0.0,0.0,0.0,0.0,0.0,0.0,0.0,0.0,0.0,0.0,0.0,0.0,0.0,0.0,0.0,0.0,0.0,0.0,0.0,0.0,0.0,0.0,0.0,0.0,0.0,0.0,0.0,0.0,0.0,0.0,0.0,0.0,0.0,0.0,0.0,0.0,0.0,0.0,0.0,0.0,0.0,0.0,0.0,0.0,0.0,0.0,0.0,0.0,0.0,0.0,0.0,0.0,0.0,0.0,0.0,0.0,0.0,0.0,0.0,0.0,0.0,0.0,0.0,0.0,0.0,0.0,0.0,0.0,0.0,0.0,0.0,0.0,0.0,0.0,0.0,0.0,0.0,0.0,0.0,0.0,0.0,0.0,0.0,0.0,0.0,0.0,0.0,0.0,0.0,0.0,0.0,0.0,0.0,0.0,0.0,0.0,0.0,0.0,0.0,0.0,0.0,0.0,0.0,0.0,0.0,0.0,0.0,0.0,0.0,0.0,0.0,0.0,0.0,0.0,0.0,0.0,0.0,0.0,0.0,0.0,0.0,0.0,0.0,0.0,0.0,0.0,0.0,0.0,0.0,0.0,0.0,0.0,0.0,0.0,0.0,0.0,0.0,0.0,0.0,0.0,0.0,0.0,0.0,0.0,0.0,0.0,0.0,0.0,0.0,0.0,0.0,0.0,0.0,0.0,0.0,0.0,0.0,0.0,0.0,0.0,0.0,0.0,0.0,0.0,0.0,0.0,0.0,0.0,0.0,0.0,0.0,0.0,0.0,0.0,0.0,0.0,0.0,0.0,0.0,0.0,0.0,0.0,0.0,0.0,0.0,0.0,0.0,0.0,0.0,0.0,0.0,0.0,0.0,0.0,0.0,0.0,0.0,0.0,0.0,0.0,0.0,0.0,0.0,0.0,0.0,0.0,0.0,0.0,0.0,0.0,0.0,0.0,0.0,0.0,0.0,0.0,0.0,0.0,0.0,0.0,0.0,0.0,0.0,0.0,0.0,0.0,0.0,0.0,0.0,0.0,0.0,0.0,0.0,0.0,0.0,0.0,0.0,0.0,0.0,0.0,0.0,0.0,0.0,0.0,0.0,0.0,0.0,0.0,0.0,0.0,0.0,0.0,0.0,0.0,0.0,0.0,0.0,0.0,0.0,0.0,0.0,0.0,0.0,0.0,0.0,0.0,0.0,0.0,0.0,0.0,0.0,0.0,0.0,0.0,0.0,0.0,0.0,0.0,0.0,0.0,0.0,0.0,0.0,0.0,0.0,0.0,0.0,0.0,0.0,0.0,0.0,0.0,0.0,0.0,0.0,0.0,0.0,0.0,0.0,0.0,0.0,0.0,0.0,0.0,0.0,0.0,0.0,0.0,0.0,0.0,0.0,0.0,0.0,0.0,0.0,0.0,0.0,0.0,0.0,0.0,0.0,0.0,0.0,0.0,0.0,0.0,0.0,-1.1903,0.0,0.0,0.0,0.0,0.0,0.0,0.0,0.0,0.0,0.0,0.0,0.0,0.0,0.0,0.0,0.0,0.0,0.0,0.0,0.0,0.0,0.0,0.0,0.0,0.0,0.0,0.0,0.0,0.0,0.0,0.0,0.0,0.0,0.0,0.0,0.0,0.0,0.0,0.0,0.0,0.0,0.0,0.0,0.0,0.0,0.0,0.0,0.0,0.0,0.0,0.0,0.0,0.0,0.0,0.0,0.0,0.0,0.0,0.0,0.0,0.0,0.0,0.0,0.0,0.0,0.0,0.0,0.0,0.0,0.0,0.0,0.0,0.0,0.0,0.0,0.0,0.0,0.0,0.0,0.0,0.0,0.0,0.0,0.0,0.0,0.0,0.0,0.0,0.0,0.0,0.0,0.0,0.0,0.0,0.0,0.0,0.0,0.0,0.0,0.0,0.0,0.0,0.0,0.0,0.0,0.0,0.0,0.0,0.0,0.0,-1.1453,-1.103,-1.1892,-1.2347,-1.2308,0.0,0.0,0.0,0.0,0.0,0.0,0.0,0.0,0.0,0.0,0.0,0.0,0.0,0.0,0.0,0.0,0.0,0.0,0.0,0.0,0.0,0.0,0.0,0.0,0.0,0.0,0.0,0.0,0.0,0.0,0.0,0.0,0.0,0.0,0.0,0.0,0.0,0.0,0.0,0.0,0.0,0.0,0.0,0.0,0.0,0.0,0.0,0.0,0.0,0.0,0.0,0.0,0.0,0.0,0.0,0.0,0.0,0.0,0.0,0.0,0.0,0.0,0.0,0.0,0.0,0.0,0.0,0.0,0.0,0.0,0.0,0.0,0.0,0.0,0.0,0.0,0.0,0.0,0.0,0.0,0.0,0.0,0.0,0.0,0.0,0.0,0.0,0.0,0.0,0.0,0.0,0.0,0.0,0.0,0.0,0.0,0.0,0.0,0.0,0.0,0.0,0.0,0.0,0.0,0.0,0.0,0.0,0.0,0.0,0.0,0.0,0.0,-1.3091,-1.3495,-1.2913,0.0,0.0,0.0,0.0,0.0,0.0,0.0,0.0,0.0,0.0,0.0,0.0,0.0,0.0,0.0,0.0,0.0,0.0,0.0,0.0,0.0,0.0,0.0,0.0,0.0,0.0,0.0,0.0,0.0,0.0,0.0,0.0,0.0,0.0,0.0,0.0,0.0,0.0,0.0,0.0,0.0,0.0,0.0,0.0,0.0,0.0,0.0,0.0,0.0,0.0,0.0,0.0,0.0,0.0,0.0,0.0,0.0,0.0,0.0,0.0,0.0,0.0,0.0,0.0,0.0,0.0,0.0,0.0,0.0,0.0,0.0,0.0,0.0,0.0,0.0,0.0,0.0,0.0,0.0,0.0,0.0,0.0,0.0,0.0,0.0,0.0,0.0,0.0,0.0,0.0,0.0,0.0,0.0,0.0,0.0,0.0,0.0,0.0,0.0,0.0,0.0,0.0,0.0,0.0,0.0,0.0,0.0,0.0,0.0,0.0,-1.2901,-1.433,-1.4502,0.0,-1.4488,0.0,0.0,0.0,0.0,0.0,0.0,0.0,0.0,0.0,0.0,0.0,0.0,0.0,0.0,0.0,0.0,0.0,0.0,0.0,0.0,0.0,0.0,0.0,0.0,0.0,0.0,0.0,0.0,0.0,0.0,0.0,0.0,0.0,0.0,0.0,0.0,0.0,0.0,0.0,0.0,0.0,0.0,0.0,0.0,0.0,0.0,0.0,0.0,0.0,0.0,0.0,0.0,0.0,0.0,0.0,0.0,0.0,0.0,0.0,0.0,0.0,0.0,0.0,0.0,0.0,0.0,0.0,0.0,0.0,0.0,0.0,0.0,0.0,0.0,0.0,0.0,0.0,0.0,0.0,0.0,0.0,0.0,0.0,0.0,0.0,0.0,0.0,0.0,0.0,0.0,0.0,0.0,0.0,0.0,0.0,0.0,0.0,0.0,0.0,0.0,0.0,0.0,0.0,0.0,0.0,0.0,0.0,0.0,0.0,0.0,0.0,-1.4669,-1.5152,-1.5195,0.0,0.0,0.0,0.0,0.0,0.0,0.0,0.0,0.0,0.0,0.0,0.0,0.0,0.0,0.0,0.0,0.0,0.0,0.0,0.0,0.0,0.0,0.0,0.0,0.0,0.0,0.0,0.0,0.0,0.0,0.0,0.0,0.0,0.0,0.0,0.0,0.0,0.0,0.0,0.0,0.0,0.0,0.0,0.0,0.0,0.0,0.0,0.0,0.0,0.0,0.0,0.0,0.0,0.0,0.0,0.0,0.0,0.0,0.0,0.0,0.0,0.0,0.0,0.0,0.0,0.0,0.0,0.0,0.0,0.0,0.0,0.0,0.0,0.0,0.0,0.0,0.0,0.0,0.0,0.0,0.0,0.0,0.0,0.0,0.0,0.0,0.0,0.0,0.0,0.0,0.0,0.0,0.0,0.0,0.0,0.0,0.0,0.0,0.0,0.0,0.0,0.0,0.0,0.0,0.0,0.0,0.0,0.0,0.0,0.0,-1.2961,0.0,-1.5301,-1.5926,-1.5759,-1.4744,0.0,0.0,0.0,0.0,0.0,0.0,0.0,0.0,0.0,0.0,0.0,0.0,0.0,0.0,0.0,0.0,0.0,0.0,0.0,0.0,0.0,0.0,0.0,0.0,0.0,0.0,0.0,0.0,0.0,0.0,0.0,0.0,0.0,0.0,0.0,0.0,0.0,0.0,0.0,0.0,0.0,0.0,0.0,0.0,0.0,0.0,0.0,0.0,0.0,0.0,0.0,0.0,0.0,0.0,0.0,0.0,0.0,0.0,0.0,0.0,0.0,0.0,0.0,0.0,0.0,0.0,0.0,0.0,0.0,0.0,0.0,0.0,0.0,0.0,0.0,0.0,0.0,0.0,0.0,0.0,0.0,0.0,0.0,0.0,0.0,0.0,0.0,0.0,0.0,0.0,0.0,0.0,0.0,0.0,0.0,0.0,0.0,0.0,0.0,0.0,0.0,0.0,0.0,0.0,0.0,0.0,0.0,0.0,0.0,-1.3834,-1.4632,-1.6873,-1.704,-1.6297,0.0,0.0,0.0,0.0,0.0,0.0,0.0,0.0,0.0,0.0,0.0,0.0,0.0,0.0,0.0,0.0,0.0,0.0,0.0,0.0,0.0,0.0,0.0,0.0,0.0,0.0,0.0,0.0,0.0,0.0,0.0,0.0,0.0,0.0,0.0,0.0,0.0,0.0,0.0,0.0,0.0,0.0,0.0,0.0,0.0,0.0,0.0,0.0,0.0,0.0,0.0,0.0,0.0,0.0,0.0,0.0,0.0,0.0,0.0,0.0,0.0,0.0,0.0,0.0,0.0,0.0,0.0,0.0,0.0,0.0,0.0,0.0,0.0,0.0,0.0,0.0,0.0,0.0,0.0,0.0,0.0,0.0,0.0,0.0,0.0,0.0,0.0,0.0,0.0,0.0,0.0,0.0,0.0,0.0,0.0,0.0,0.0,0.0,0.0,0.0,0.0,0.0,0.0,0.0,0.0,0.0,0.0,0.0,0.0,-1.2993,-1.3822,-1.5366,-1.7689,-1.5883,-1.4757,0.0,0.0,0.0,0.0,0.0,0.0,0.0,0.0,0.0,0.0,0.0,0.0,0.0,0.0,0.0,0.0,0.0,0.0,0.0,0.0,0.0,0.0,0.0,0.0,0.0,0.0,0.0,0.0,0.0,0.0,0.0,0.0,0.0,0.0,0.0,0.0,0.0,0.0,0.0,0.0,0.0,0.0,0.0,0.0,0.0,0.0,0.0,0.0,0.0,0.0,0.0,0.0,0.0,0.0,0.0,0.0,0.0,0.0,0.0,0.0,0.0,0.0,0.0,0.0,0.0,0.0,0.0,0.0,0.0,0.0,0.0,0.0,0.0,0.0,0.0,0.0,0.0,0.0,0.0,0.0,0.0,0.0,0.0,0.0,0.0,0.0,0.0,0.0,0.0,0.0,0.0,0.0,0.0,0.0,0.0,0.0,0.0,0.0,0.0,0.0,0.0,0.0,0.0,0.0,0.0,0.0,0.0,0.0,0.0,-1.2927,0.0,-1.6472,0.0,-1.5284,-1.3851,0.0,0.0,0.0,0.0,0.0,0.0,0.0,0.0,0.0,0.0,0.0,0.0,0.0,0.0,0.0,0.0,0.0,0.0,0.0,0.0,0.0,0.0,0.0,0.0,0.0,0.0,0.0,0.0,0.0,0.0,0.0,0.0,0.0,0.0,0.0,0.0,0.0,0.0,0.0,0.0,0.0,0.0,0.0,0.0,0.0,0.0,0.0,0.0,0.0,0.0,0.0,0.0,0.0,0.0,0.0,0.0,0.0,0.0,0.0,0.0,0.0,0.0,0.0,0.0,0.0,0.0,0.0,0.0,0.0,0.0,0.0,0.0,0.0,0.0,0.0,0.0,0.0,0.0,0.0,0.0,0.0,0.0,0.0,0.0,0.0,0.0,0.0,0.0,0.0,0.0,0.0,0.0,0.0,0.0,0.0,0.0,0.0,0.0,0.0,0.0,0.0,0.0,0.0,0.0,0.0,0.0,0.0,0.0,-1.1343,-1.4471,-1.6836,-1.7705,-1.712,-1.5447,-1.3841,0.0,0.0,0.0,0.0,0.0,0.0,0.0,0.0,0.0,0.0,0.0,0.0,0.0,0.0,0.0,0.0,0.0,0.0,0.0,0.0,0.0,0.0,0.0,0.0,0.0,0.0,0.0,0.0,0.0,0.0,0.0,0.0,0.0,0.0,0.0,0.0,0.0,0.0,0.0,0.0,0.0,0.0,0.0,0.0,0.0,0.0,0.0,0.0,0.0,0.0,0.0,0.0,0.0,0.0,0.0,0.0,0.0,0.0,0.0,0.0,0.0,0.0,0.0,0.0,0.0,0.0,0.0,0.0,0.0,0.0,0.0,0.0,0.0,0.0,0.0,0.0,0.0,0.0,0.0,0.0,0.0,0.0,0.0,0.0,0.0,0.0,0.0,0.0,0.0,0.0,0.0,0.0,0.0,0.0,0.0,0.0,0.0,0.0,0.0,0.0,0.0,0.0,0.0,0.0,0.0,0.0,0.0,0.0,0.0,-1.3784,-1.5544,-1.6927,-1.7723,-1.5208,-1.4097,0.0,0.0,0.0,0.0,0.0,0.0,0.0,0.0,0.0,0.0,0.0,0.0,0.0,0.0,0.0,0.0,0.0,0.0,0.0,0.0,0.0,0.0,0.0,0.0,0.0,0.0,0.0,0.0,0.0,0.0,0.0,0.0,0.0,0.0,0.0,0.0,0.0,0.0,0.0,0.0,0.0,0.0,0.0,0.0,0.0,0.0,0.0,0.0,0.0,0.0,0.0,0.0,0.0,0.0,0.0,0.0,0.0,0.0,0.0,0.0,0.0,0.0,0.0,0.0,0.0,0.0,0.0,0.0,0.0,0.0,0.0,0.0,0.0,0.0,0.0,0.0,0.0,0.0,0.0,0.0,0.0,0.0,0.0,0.0,0.0,0.0,0.0,0.0,0.0,0.0,0.0,0.0,0.0,0.0,0.0,0.0,0.0,0.0,0.0,0.0,0.0,0.0,0.0,0.0,0.0,0.0,0.0,0.0,0.0,-1.5235,-1.6404,-1.7557,-1.8616,-1.5501,-1.4302,-1.5319,0.0,0.0,0.0,0.0,0.0,0.0,0.0,0.0,0.0,0.0,0.0,0.0,0.0,0.0,0.0,0.0,0.0,0.0,0.0,0.0,0.0,0.0,0.0,0.0,0.0,0.0,0.0,0.0,0.0,0.0,0.0,0.0,0.0,0.0,0.0,0.0,0.0,0.0,0.0,0.0,0.0,0.0,0.0,0.0,0.0,0.0,0.0,0.0,0.0,0.0,0.0,0.0,0.0,0.0,0.0,0.0,0.0,0.0,0.0,0.0,0.0,0.0,0.0,0.0,0.0,0.0,0.0,0.0,0.0,0.0,0.0,0.0,0.0,0.0,0.0,0.0,0.0,0.0,0.0,0.0,0.0,0.0,0.0,0.0,0.0,0.0,0.0,0.0,0.0,0.0,0.0,0.0,0.0,0.0,0.0,0.0,0.0,0.0,0.0,0.0,0.0,0.0,0.0,0.0,0.0,0.0,0.0,0.0,-1.8315,-1.9062,-1.9448,-1.9408,-1.6391,-1.471,0.0,0.0,0.0,0.0,0.0,0.0,0.0,0.0,0.0,0.0,0.0,0.0,0.0,0.0,0.0,0.0,0.0,0.0,0.0,0.0,0.0,0.0,0.0,0.0,0.0,0.0,0.0,0.0,0.0,0.0,0.0,0.0,0.0,0.0,0.0,0.0,0.0,0.0,0.0,0.0,0.0,0.0,0.0,0.0,0.0,0.0,0.0,0.0,0.0,0.0,0.0,0.0,0.0,0.0,0.0,0.0,0.0,0.0,0.0,0.0,0.0,0.0,0.0,0.0,0.0,0.0,0.0,0.0,0.0,0.0,0.0,0.0,0.0,0.0,0.0,0.0,0.0,0.0,0.0,0.0,0.0,0.0,0.0,0.0,0.0,0.0,0.0,0.0,0.0,0.0,0.0,0.0,0.0,0.0,0.0,0.0,0.0,0.0,0.0,0.0,0.0,0.0,0.0,0.0,0.0,0.0,0.0,0.0,0.0,-1.9897,-2.0745,-2.0856,-2.0263,-1.8312,-1.7002,0.0,0.0,0.0,0.0,0.0,0.0,0.0,0.0,0.0,0.0,0.0,0.0,0.0,0.0,0.0,0.0,0.0,0.0,0.0,0.0,0.0,0.0,0.0,0.0,0.0,0.0,0.0,0.0,0.0,0.0,0.0,0.0,0.0,0.0,0.0,0.0,0.0,0.0,0.0,0.0,0.0,0.0,0.0,0.0,0.0,0.0,0.0,0.0,0.0,0.0,0.0,0.0,0.0,0.0,0.0,0.0,0.0,0.0,0.0,0.0,0.0,0.0,0.0,0.0,0.0,0.0,0.0,0.0,0.0,0.0,0.0,0.0,0.0,0.0,0.0,0.0,0.0,0.0,0.0,0.0,0.0,0.0,0.0,0.0,0.0,0.0,0.0,0.0,0.0,0.0,0.0,0.0,0.0,0.0,0.0,0.0,0.0,0.0,0.0,0.0,0.0,0.0,0.0,0.0,0.0,0.0,0.0,0.0,-1.8941,-2.105,-2.2235,-2.2427,-2.1636,-2.0029,-1.8682,0.0,0.0,0.0,0.0,0.0,0.0,0.0,0.0,0.0,0.0,0.0,0.0,0.0,0.0,0.0,0.0,0.0,0.0,0.0,0.0,0.0,0.0,0.0,0.0,0.0,0.0,0.0,0.0,0.0,0.0,0.0,0.0,0.0,0.0,0.0,0.0,0.0,0.0,0.0,0.0,0.0,0.0,0.0,0.0,0.0,0.0,0.0,0.0,0.0,0.0,0.0,0.0,0.0,0.0,0.0,0.0,0.0,0.0,0.0,0.0,0.0,0.0,0.0,0.0,0.0,0.0,0.0,0.0,0.0,0.0,0.0,0.0,0.0,0.0,0.0,0.0,0.0,0.0,0.0,0.0,0.0,0.0,0.0,0.0,0.0,0.0,0.0,0.0,0.0,0.0,0.0,0.0,0.0,0.0,0.0,0.0,0.0,0.0,0.0,0.0,0.0,0.0,0.0,0.0,0.0,0.0,0.0,0.0,-2.0233,-2.1904,-2.34,-2.3841,-2.3116,-2.141,-1.9802,0.0,0.0,0.0,0.0,0.0,0.0,0.0,0.0,0.0,0.0,0.0,0.0,0.0,0.0,0.0,0.0,0.0,0.0,0.0,0.0,0.0,0.0,0.0,0.0,0.0,0.0,0.0,0.0,0.0,0.0,0.0,0.0,0.0,0.0,0.0,0.0,0.0,0.0,0.0,0.0,0.0,0.0,0.0,0.0,0.0,0.0,0.0,0.0,0.0,0.0,0.0,0.0,0.0,0.0,0.0,0.0,0.0,0.0,0.0,0.0,0.0,0.0,0.0,0.0,0.0,0.0,0.0,0.0,0.0,0.0,0.0,0.0,0.0,0.0,0.0,0.0,0.0,0.0,0.0,0.0,0.0,0.0,0.0,0.0,0.0,0.0,0.0,0.0,0.0,0.0,0.0,0.0,0.0,0.0,0.0,0.0,0.0,0.0,0.0,0.0,0.0,0.0,0.0,0.0,0.0,0.0,0.0,0.0,-2.1043,-2.2694,-2.3694,-2.4116,-2.3933,-2.1703,-1.9841,0.0,0.0,0.0,0.0,0.0,0.0,0.0,0.0,0.0,0.0,0.0,0.0,0.0,0.0,0.0,0.0,0.0,0.0,0.0,0.0,0.0,0.0,0.0,0.0,0.0,0.0,0.0,0.0,0.0,0.0,0.0,0.0,0.0,0.0,0.0,0.0,0.0,0.0,0.0,0.0,0.0,0.0,0.0,0.0,0.0,0.0,0.0,0.0,-0.8913,0.0,0.0,0.0,0.0,0.0,0.0,0.0,0.0,0.0,0.0,0.0,0.0,0.0,0.0,0.0,0.0,0.0,0.0,0.0,0.0,0.0,0.0,0.0,0.0,0.0,0.0,0.0,0.0,0.0,0.0,0.0,0.0,0.0,0.0,0.0,0.0,0.0,0.0,0.0,0.0,0.0,0.0,0.0,0.0,0.0,0.0,0.0,0.0,0.0,0.0,0.0,0.0,0.0,0.0,0.0,0.0,0.0,0.0,0.0,-2.1318,-2.2969,-2.3786,-2.4199,-2.4135,-2.2566,-2.0826,0.0,0.0,0.0,0.0,0.0,0.0,0.0,0.0,0.0,0.0,0.0,0.0,0.0,0.0,0.0,0.0,0.0,0.0,0.0,0.0,0.0,0.0,0.0,0.0,0.0,0.0,0.0,0.0,0.0,0.0,0.0,0.0,0.0,0.0,0.0,0.0,0.0,0.0,0.0,0.0,0.0,0.0,0.0,0.0,0.0,0.0,0.0,0.0,0.0,0.0,0.0,0.0,0.0,0.0,0.0,0.0,0.0,0.0,0.0,0.0,0.0,0.0,0.0,0.0,0.0,0.0,0.0,0.0,0.0,0.0,0.0,0.0,0.0,0.0,0.0,0.0,0.0,0.0,0.0,0.0,0.0,0.0,0.0,0.0,0.0,0.0,0.0,0.0,0.0,0.0,0.0,0.0,0.0,0.0,0.0,0.0,0.0,0.0,0.0,0.0,0.0,0.0,0.0,0.0,0.0,0.0,0.0,-1.9491,-2.139,-2.3116,-2.3841,-2.4199,-2.4199,-2.3419,-2.1933,-1.9692,0.0,0.0,0.0,0.0,0.0,0.0,0.0,0.0,0.0,0.0,0.0,0.0,0.0,0.0,0.0,0.0,0.0,0.0,0.0,0.0,0.0,0.0,0.0,0.0,0.0,0.0,0.0,0.0,0.0,0.0,0.0,0.0,0.0,0.0,0.0,0.0,0.0,0.0,-1.0005,-1.1532,0.0,0.0,0.0,0.0,0.0,0.0,0.0,0.0,-1.0461,0.0,0.0,0.0,0.0,0.0,0.0,0.0,0.0,0.0,0.0,0.0,0.0,0.0,0.0,0.0,0.0,0.0,0.0,0.0,0.0,0.0,0.0,0.0,0.0,0.0,0.0,0.0,0.0,0.0,0.0,0.0,0.0,0.0,0.0,0.0,0.0,0.0,0.0,0.0,0.0,0.0,0.0,0.0,0.0,0.0,0.0,0.0,0.0,0.0,0.0,0.0,0.0,0.0,0.0,0.0,0.0,-1.9832,-2.0404,-2.175,-2.3933,-2.4135,-2.4199,-2.4171,-2.3428,-2.1924,-1.9704,0.0,0.0,0.0,0.0,0.0,0.0,0.0,0.0,0.0,0.0,0.0,0.0,0.0,0.0,0.0,0.0,0.0,0.0,0.0,0.0,0.0,0.0,0.0,0.0,0.0,0.0,0.0,0.0,0.0,0.0,0.0,0.0,0.0,0.0,0.0,0.0,0.0,0.0,0.0,-1.3087,-1.3641,0.0,0.0,0.0,0.0,0.0,0.0,0.0,0.0,-1.1306,0.0,0.0,0.0,0.0,0.0,0.0,0.0,0.0,0.0,0.0,0.0,0.0,0.0,0.0,0.0,0.0,0.0,0.0,0.0,0.0,0.0,0.0,0.0,0.0,0.0,0.0,0.0,0.0,0.0,0.0,0.0,0.0,0.0,0.0,0.0,0.0,0.0,0.0,0.0,0.0,0.0,0.0,0.0,0.0,0.0,0.0,0.0,0.0,0.0,0.0,0.0,0.0,0.0,0.0,0.0,-1.9785,-2.0828,-2.2232,-2.4126,-2.4257,-2.4266,-2.4181,-2.3095,-2.1586,0.0,0.0,0.0,0.0,0.0,0.0,0.0,0.0,0.0,0.0,0.0,0.0,0.0,0.0,0.0,0.0,0.0,0.0,0.0,0.0,0.0,0.0,0.0,0.0,0.0,0.0,0.0,0.0,0.0,0.0,0.0,0.0,0.0,0.0,0.0,0.0,0.0,0.0,0.0,0.0,-1.3815,-1.4204,-1.4366,0.0,0.0,0.0,0.0,0.0,0.0,-1.2238,-1.3084,0.0,0.0,0.0,0.0,0.0,0.0,0.0,0.0,0.0,0.0,0.0,0.0,0.0,0.0,0.0,0.0,0.0,0.0,0.0,0.0,0.0,0.0,0.0,0.0,0.0,0.0,0.0,0.0,0.0,0.0,0.0,0.0,0.0,0.0,0.0,0.0,0.0,0.0,0.0,0.0,0.0,0.0,0.0,0.0,0.0,0.0,0.0,0.0,0.0,0.0,0.0,0.0,0.0,0.0,0.0,-1.9399,-2.0892,-2.2418,-2.4107,-2.4321,-2.4321,-2.4181,-2.2899,-2.1388,0.0,0.0,0.0,0.0,0.0,0.0,0.0,0.0,0.0,0.0,0.0,0.0,0.0,0.0,0.0,0.0,0.0,0.0,0.0,0.0,0.0,0.0,0.0,0.0,0.0,0.0,0.0,0.0,0.0,0.0,0.0,0.0,0.0,0.0,0.0,0.0,0.0,0.0,0.0,0.0,0.0,-1.5114,-1.5195,-1.4018,0.0,0.0,0.0,0.0,-1.1119,-1.3232,0.0,0.0,0.0,0.0,0.0,0.0,0.0,0.0,0.0,0.0,0.0,0.0,0.0,0.0,0.0,0.0,0.0,0.0,0.0,0.0,0.0,0.0,0.0,0.0,0.0,0.0,0.0,0.0,0.0,0.0,0.0,0.0,0.0,0.0,0.0,0.0,0.0,0.0,0.0,0.0,0.0,0.0,0.0,0.0,0.0,0.0,0.0,0.0,0.0,0.0,0.0,0.0,0.0,0.0,0.0,0.0,-1.9362,-2.037,-2.1933,-2.4071,-2.4237,-2.4209,-2.4199,-2.3346,-2.1857,0.0,0.0,0.0,0.0,0.0,0.0,0.0,0.0,0.0,0.0,0.0,0.0,0.0,0.0,0.0,0.0,0.0,0.0,0.0,0.0,0.0,0.0,0.0,0.0,0.0,0.0,0.0,0.0,0.0,0.0,0.0,0.0,0.0,0.0,0.0,0.0,0.0,0.0,0.0,0.0,0.0,-1.6892,-1.5717,-1.4441,-1.3892,0.0,0.0,-1.3211,-1.4264,-1.3839,0.0,0.0,0.0,0.0,0.0,0.0,0.0,0.0,0.0,0.0,0.0,0.0,0.0,0.0,0.0,0.0,0.0,0.0,0.0,0.0,0.0,0.0,0.0,0.0,0.0,0.0,0.0,0.0,0.0,0.0,0.0,0.0,0.0,0.0,0.0,0.0,0.0,0.0,0.0,0.0,0.0,0.0,0.0,0.0,0.0,0.0,0.0,0.0,0.0,0.0,0.0,0.0,0.0,0.0,0.0,-1.591,-1.9445,-2.0736,-2.225,-2.4126,-2.4266,-2.4294,-2.4199,-2.2606,-2.1071,0.0,0.0,0.0,0.0,0.0,0.0,0.0,0.0,0.0,0.0,0.0,0.0,0.0,0.0,0.0,0.0,0.0,0.0,0.0,0.0,0.0,0.0,0.0,0.0,0.0,0.0,0.0,0.0,0.0,0.0,0.0,0.0,0.0,0.0,0.0,0.0,0.0,0.0,0.0,0.0,0.0,0.0,-1.6635,-1.5951,0.0,0.0,0.0,-1.4322,-1.594,0.0,0.0,0.0,0.0,0.0,0.0,0.0,0.0,0.0,0.0,0.0,0.0,0.0,0.0,0.0,0.0,0.0,0.0,0.0,0.0,0.0,0.0,0.0,0.0,0.0,0.0,0.0,0.0,0.0,0.0,0.0,0.0,0.0,0.0,0.0,0.0,0.0,0.0,0.0,0.0,0.0,0.0,0.0,0.0,0.0,0.0,0.0,0.0,0.0,0.0,0.0,0.0,0.0,0.0,0.0,0.0,0.0,-1.953,-2.1053,-2.2584,-2.4126,-2.4284,-2.4293,-2.4163,-2.215,0.0,0.0,0.0,0.0,0.0,0.0,0.0,0.0,0.0,0.0,0.0,0.0,0.0,0.0,0.0,0.0,0.0,0.0,0.0,0.0,0.0,0.0,0.0,0.0,0.0,0.0,0.0,-0.6175,0.0,0.0,0.0,0.0,0.0,0.0,0.0,0.0,0.0,0.0,0.0,0.0,0.0,0.0,-1.6767,-1.6867,-1.6908,-1.6853,0.0,0.0,-1.5277,-1.6955,-1.7241,-1.6624,0.0,0.0,0.0,0.0,0.0,0.0,0.0,0.0,0.0,0.0,0.0,0.0,0.0,0.0,0.0,0.0,0.0,0.0,0.0,0.0,0.0,0.0,0.0,0.0,0.0,0.0,0.0,0.0,0.0,0.0,0.0,0.0,0.0,0.0,0.0,0.0,0.0,0.0,0.0,0.0,0.0,0.0,0.0,0.0,0.0,0.0,0.0,0.0,0.0,0.0,0.0,0.0,0.0,0.0,0.0,-1.9505,-2.1053,-2.2565,-2.4126,-2.4209,-2.4199,-2.4171,-2.2592,-2.1053,0.0,0.0,0.0,0.0,0.0,0.0,0.0,0.0,0.0,0.0,0.0,0.0,0.0,0.0,0.0,0.0,0.0,0.0,0.0,0.0,0.0,0.0,0.0,0.0,0.0,0.0,0.0,0.0,0.0,0.0,0.0,0.0,0.0,0.0,0.0,0.0,0.0,0.0,0.0,0.0,0.0,-1.7483,-1.5686,-1.6548,-1.7497,0.0,0.0,-1.6349,-1.7408,-1.8337,-1.7959,-1.5086,0.0,0.0,0.0,0.0,0.0,0.0,0.0,0.0,0.0,0.0,0.0,0.0,0.0,0.0,0.0,0.0,0.0,0.0,0.0,0.0,0.0,0.0,0.0,0.0,0.0,0.0,0.0,0.0,0.0,0.0,0.0,0.0,0.0,0.0,0.0,0.0,0.0,0.0,0.0,0.0,0.0,0.0,0.0,0.0,0.0,0.0,0.0,0.0,0.0,0.0,0.0,0.0,0.0,-1.6321,-1.9549,-2.1053,-2.2584,-2.4126,-2.4161,-2.4151,-2.4141,-2.252,-2.0996,0.0,0.0,0.0,0.0,0.0,0.0,0.0,0.0,0.0,0.0,0.0,0.0,0.0,0.0,0.0,0.0,0.0,0.0,0.0,0.0,0.0,0.0,0.0,0.0,0.0,0.0,0.0,0.0,-0.9553,-1.0084,-0.9965,0.0,0.0,0.0,0.0,0.0,0.0,0.0,0.0,0.0,0.0,-1.8039,-1.7864,-1.8428,0.0,0.0,-1.8573,-1.8064,-1.9055,-1.9743,-1.9428,-1.7395,-1.4083,0.0,0.0,0.0,0.0,0.0,0.0,0.0,0.0,0.0,0.0,0.0,0.0,0.0,0.0,0.0,0.0,0.0,0.0,0.0,0.0,0.0,0.0,0.0,0.0,0.0,0.0,0.0,0.0,0.0,0.0,0.0,0.0,0.0,0.0,0.0,0.0,0.0,0.0,0.0,0.0,0.0,0.0,0.0,0.0,0.0,0.0,0.0,0.0,0.0,0.0,0.0,0.0,-1.6338,-1.967,-2.1112,-2.2635,-2.4229,-2.4238,-2.4081,-2.3729,-2.2401,-2.0961,0.0,0.0,0.0,0.0,0.0,0.0,0.0,0.0,0.0,0.0,0.0,0.0,0.0,0.0,0.0,0.0,0.0,0.0,0.0,0.0,0.0,0.0,0.0,0.0,0.0,0.0,0.0,0.0,-1.1099,-1.1068,-1.0658,0.0,0.0,0.0,0.0,0.0,0.0,0.0,0.0,0.0,0.0,-1.8515,-1.9277,-1.9799,-2.0273,-2.0731,-1.9736,-1.9233,-2.0225,-2.0613,-2.0127,-1.8079,0.0,0.0,0.0,0.0,0.0,0.0,0.0,0.0,0.0,0.0,0.0,0.0,0.0,0.0,0.0,0.0,0.0,0.0,0.0,0.0,0.0,0.0,0.0,0.0,0.0,0.0,0.0,0.0,0.0,0.0,-1.0235,0.0,0.0,0.0,0.0,0.0,0.0,0.0,0.0,0.0,0.0,0.0,0.0,0.0,0.0,0.0,0.0,0.0,0.0,0.0,0.0,0.0,0.0,-1.6432,-1.983,-2.1269,-2.2755,-2.4334,-2.4512,-2.4029,-2.2978,-2.224,-2.1089,-1.9383,0.0,0.0,0.0,0.0,0.0,0.0,0.0,0.0,0.0,0.0,0.0,0.0,0.0,0.0,0.0,0.0,0.0,0.0,0.0,0.0,0.0,0.0,0.0,0.0,0.0,0.0,-1.3002,-1.2058,-1.0901,0.0,0.0,0.0,0.0,0.0,0.0,0.0,0.0,0.0,0.0,-1.7976,-1.8866,-1.9357,-2.0194,-2.0794,-2.081,-2.0004,-1.9688,-2.0588,-2.0731,-1.9671,0.0,0.0,0.0,0.0,0.0,0.0,0.0,0.0,0.0,0.0,0.0,0.0,0.0,0.0,0.0,0.0,0.0,0.0,0.0,0.0,0.0,0.0,0.0,0.0,0.0,0.0,0.0,-1.4822,-1.3504,0.0,0.0,0.0,0.0,0.0,0.0,0.0,0.0,0.0,0.0,0.0,-1.9098,-1.9603,0.0,0.0,0.0,0.0,0.0,0.0,0.0,0.0,0.0,0.0,0.0,0.0,-1.702,-1.9741,-2.1281,-2.2832,-2.4445,-2.3891,-2.3353,-2.296,-2.1578,-1.9622,-1.7029,0.0,0.0,0.0,0.0,0.0,0.0,0.0,0.0,0.0,0.0,0.0,0.0,0.0,0.0,0.0,0.0,0.0,0.0,0.0,0.0,0.0,0.0,0.0,0.0,0.0,-1.1702,0.0,0.0,0.0,0.0,0.0,0.0,0.0,0.0,0.0,0.0,0.0,-1.74,-1.9626,-1.9647,-1.983,-2.0905,-2.1331,-2.1521,0.0,0.0,0.0,0.0,0.0,0.0,0.0,0.0,0.0,0.0,0.0,0.0,0.0,0.0,-1.868,-1.4579,-1.2912,-1.3007,-1.5884,0.0,0.0,0.0,0.0,0.0,0.0,0.0,0.0,0.0,0.0,0.0,0.0,0.0,0.0,-1.7591,0.0,-1.6453,0.0,0.0,0.0,0.0,0.0,0.0,0.0,0.0,-2.0741,-2.1451,-2.1549,-2.1793,-2.1651,0.0,-2.062,-1.9211,0.0,0.0,0.0,0.0,0.0,0.0,0.0,0.0,-1.7426,-2.0126,-2.1393,-2.2837,-2.4443,-2.3568,-2.2885,-2.2456,-2.0833,-1.8851,-1.6602,-1.6122,-1.5275,0.0,0.0,0.0,0.0,0.0,0.0,0.0,0.0,0.0,0.0,0.0,0.0,0.0,0.0,0.0,0.0,0.0,0.0,0.0,0.0,0.0,0.0,0.0,-1.2076,0.0,0.0,0.0,0.0,0.0,0.0,0.0,0.0,0.0,-2.1499,-1.9727,-1.8968,-2.1359,-2.0783,-2.0652,-2.2043,0.0,0.0,0.0,0.0,0.0,0.0,0.0,-1.8181,-2.0734,-2.1746,-2.1674,-2.0038,-2.0677,-2.1002,-1.9601,0.0,0.0,-1.8066,-1.6243,-1.6051,-1.9053,-1.8538,-1.8037,-1.9486,-2.001,-2.0281,0.0,0.0,0.0,0.0,0.0,0.0,0.0,0.0,-2.0441,-2.0317,0.0,-1.9845,0.0,0.0,0.0,0.0,0.0,-2.0599,0.0,0.0,-2.4082,-2.4832,-2.4787,-2.407,-2.3677,-2.3607,-2.3539,-2.2656,-2.0978,-1.7879,0.0,0.0,0.0,0.0,0.0,0.0,-1.7751,-2.0948,-2.1695,-2.2808,-2.4362,-2.3558,-2.2557,-2.1443,-1.9987,-1.8844,-1.8122,-1.8156,-1.7169,-1.4807,-1.4757,0.0,0.0,0.0,0.0,0.0,0.0,0.0,0.0,0.0,0.0,0.0,0.0,0.0,0.0,0.0,0.0,0.0,0.0,0.0,0.0,-1.3078,0.0,0.0,0.0,0.0,0.0,0.0,0.0,0.0,0.0,0.0,-2.0512,-2.0078,-2.0226,-2.1956,0.0,0.0,0.0,0.0,-2.2201,-2.2882,-2.2325,-2.193,-2.2137,-2.0257,-1.9262,-2.0747,0.0,0.0,-2.0903,-2.2044,-2.2359,-1.9591,-2.0619,-2.1812,-2.1696,-2.0132,-1.9759,-2.1996,-2.1206,-2.0761,-2.2484,-2.3452,-2.4155,-2.5584,0.0,0.0,0.0,0.0,-2.3132,-2.374,-2.4561,-2.4229,-2.3709,-2.3047,-2.3184,0.0,0.0,0.0,0.0,0.0,0.0,-2.3701,-2.5057,-2.5476,-2.5949,-2.6497,-2.6271,-2.6151,-2.6097,-2.4933,-2.4125,-2.3562,-2.1534,-1.9075,-1.631,0.0,0.0,0.0,0.0,-1.9787,-2.1859,-2.2053,-2.2611,-2.3693,-2.2123,-2.0798,-1.9801,-1.9353,-1.8752,-1.7995,-1.8082,-1.756,-1.6294,-1.5238,0.0,0.0,0.0,0.0,0.0,0.0,0.0,0.0,0.0,0.0,0.0,0.0,0.0,0.0,0.0,0.0,0.0,0.0,0.0,-1.2761,-1.3728,-1.3919,0.0,0.0,0.0,0.0,0.0,0.0,0.0,0.0,0.0,-2.0528,-2.0766,-2.1099,0.0,0.0,-2.2329,-2.2392,-2.2927,-2.3591,-2.4274,-2.3638,0.0,-2.274,-2.1284,-2.1015,-2.3404,-2.3692,-2.3373,-2.2833,-2.2899,-2.2734,-2.1865,-2.1922,-2.2041,-2.1822,-2.167,-2.2214,-2.3979,-2.4126,-2.3968,-2.4559,-2.4918,-2.5226,-2.8767,-2.6136,-2.5621,-2.5642,-2.6051,-2.6371,-2.6898,-2.7569,-2.7393,-2.7136,-2.6832,-2.667,-2.5598,-2.3931,-2.3619,0.0,0.0,0.0,-2.5963,-2.7517,-2.7491,-2.772,-2.8143,-2.7843,-2.7684,-2.7617,-2.6322,-2.5533,-2.5185,-2.4246,-2.2248,-1.9375,0.0,0.0,-1.8733,-1.9744,-2.1085,-2.2663,-2.2581,-2.2742,-2.3233,-2.1414,-1.9997,-1.9132,-1.9109,-1.8863,-1.84,-1.8481,-1.8159,-1.736,-1.6195,-1.5316,0.0,0.0,0.0,0.0,0.0,0.0,0.0,0.0,0.0,0.0,0.0,-0.8668,-0.7012,0.0,0.0,0.0,-1.0804,-1.2516,-1.4021,-1.4659,0.0,0.0,0.0,0.0,0.0,0.0,0.0,-1.6913,-1.8286,-1.9613,-2.083,-2.1342,-2.1839,-2.2449,-2.2738,-2.2993,-2.3278,0.0,-2.4156,-2.4891,-2.4527,-2.4052,-2.3768,-2.3025,-2.3056,-2.4701,-2.4612,-2.4411,-2.4622,-2.441,-2.4315,-2.4392,-2.3907,-2.3093,-2.2238,-2.2773,-2.4004,-2.5897,-2.6314,-2.6226,-2.5949,-2.5893,-2.6037,-3.1197,-3.1093,-2.996,-2.9292,-2.9071,-2.9832,-2.9752,-2.9207,-2.9929,-3.036,-3.048,-3.0016,-2.9355,-2.8472,-2.6403,0.0,-2.7678,-2.7659,-2.8481,-2.9889,-2.988,-2.9852,-2.9739,-2.896,-2.8557,-2.8491,-2.7684,-2.6904,-2.6218,-2.6132,-2.4903,-2.2642,-2.1804,-2.125,-2.0942,-2.11,-2.1925,-2.3395,-2.3206,-2.302,-2.2845,-2.1197,-1.9929,-1.914,-1.9101,-1.9107,-1.9097,-1.9158,-1.8864,-1.8106,-1.7387,-1.6218,-1.4543,0.0,0.0,0.0,0.0,0.0,0.0,0.0,0.0,0.0,0.0,0.0,0.0,0.0,0.0,0.0,-1.287,0.0,-1.5965,-1.5726,0.0,0.0,0.0,-1.4759,-1.6185,-1.695,-1.7624,-1.8308,0.0,0.0,-2.1371,-2.2012,-2.2566,-2.293,-2.304,-2.3518,-2.4689,-2.4318,-2.4255,-2.4926,-2.4985,-2.4989,-2.4863,-2.4796,-2.4858,-2.5192,-2.5413,-2.5652,-2.6034,-2.6104,-2.6366,-2.6602,-2.5987,-2.4751,-2.2999,-2.387,-2.5451,-2.7256,-2.7646,-2.7438,-2.6844,-2.6669,-2.6876,-3.2914,-3.3026,-3.2724,-3.1871,-3.0741,-3.1078,-3.1201,-3.1195,-3.14,-3.1544,-3.1676,-3.1558,-3.1391,-3.1128,-3.0001,-3.0029,-3.0941,-3.097,-3.1157,-3.1504,-3.1551,-3.1203,-3.0612,-3.0387,-2.9974,-2.9363,-2.8528,-2.8022,-2.7815,-2.7223,-2.6311,-2.5155,-2.4929,-2.3844,-2.2044,-2.2586,-2.3386,-2.4357,-2.3535,-2.2407,-2.1015,-2.0535,-1.9928,-1.9127,-1.9107,-1.9115,-1.9158,-1.9202,-1.9119,-1.8901,-1.7603,-1.6627,-1.6138,-1.3416,0.0,0.0,0.0,0.0,0.0,0.0,0.0,0.0,0.0,-1.1021,-0.8693,0.0,-1.2199,0.0,-1.3119,-1.6599,-1.7213,-1.6815,0.0,0.0,-1.714,-1.7364,-1.9156,-1.9037,-1.9078,-1.9792,-2.022,-2.0978,-2.2351,-2.357,-2.4163,-2.3749,-2.4163,-2.4242,-2.3578,-2.4211,-2.4796,-2.4938,-2.5005,-2.5005,-2.5005,-2.5005,-2.5282,-2.6139,-2.5919,-2.5789,-2.6332,-2.6332,-2.6251,-2.6208,-2.6085,-2.5502,-2.4476,-2.4818,-2.5806,-2.73,-2.7716,-2.7666,-2.7473,-2.7438,-2.749,-3.4848,-3.494,-3.5034,-3.4552,-3.3691,-3.297,-3.2782,-3.2963,-3.2963,-3.3063,-3.3193,-3.2837,-3.248,-3.2086,-3.1625,-3.1888,-3.2649,-3.2687,-3.2687,-3.2687,-3.2687,-3.2048,-3.0931,-3.0912,-3.048,-2.9711,-2.9213,-2.8772,-2.8388,-2.7947,-2.7317,-2.6556,-2.6537,-2.5861,-2.4538,-2.4182,-2.4257,-2.4681,-2.3644,-2.2537,-2.1406,-2.0662,-2.0072,-1.9671,-1.9315,-1.9168,-1.9192,-1.9192,-1.9068,-1.8735,-1.753,-1.6805,-1.6715,-1.4488,-1.2812,0.0,0.0,0.0,0.0,0.0,0.0,0.0,0.0,0.0,0.0,0.0,-1.4638,-1.2269,-1.6331,-1.8896,-1.8456,-1.8476,-1.8871,-1.9671,-1.9394,-1.9614,-2.0798,-2.0579,-2.0613,-2.1337,-2.144,-2.2152,-2.4052,-2.4729,-2.4879,-2.4444,-2.4748,-2.4736,-2.4068,-2.4527,-2.5005,-2.5005,-2.5005,-2.5005,-2.5005,-2.5005,-2.5204,-2.5777,-2.5811,-2.5809,-2.6068,-2.628,-2.6438,-2.6645,-2.6715,-2.6632,-2.6204,-2.6249,-2.6753,-2.7385,-2.7716,-2.7716,-2.7716,-2.7716,-2.7716,-3.6504,-3.6562,-3.6732,-3.6808,-3.6727,-3.5088,-3.4426,-3.4507,-3.4396,-3.445,-3.4556,-3.3851,-3.3137,-3.2424,-3.2424,-3.2837,-3.3531,-3.3558,-3.3569,-3.355,-3.354,-3.2658,-3.1081,-3.1062,-3.0565,-2.972,-2.9701,-2.9307,-2.8557,-2.8557,-2.8153,-2.7392,-2.7355,-2.7298,-2.7129,-2.5654,-2.4786,-2.4618,-2.3695,-2.3024,-2.2546,-2.117,-2.0353,-2.0143,-1.954,-1.9227,-1.9208,-1.92,-1.895,-1.8349,-1.7514,-1.7043,-1.6938,-1.5539,-1.4735,0.0,-1.3932,0.0,0.0,0.0,0.0,0.0,0.0,0.0,0.0,-1.6064,-1.7008,-1.7975,-2.0317,-2.1198,-1.9717,-2.0253,-2.0829,-2.1156,-2.1225,-2.1404,-2.1815,-2.1798,-2.1987,-2.263,-2.2802,-2.3704,-2.5502,-2.5422,-2.5068,-2.4977,-2.4954,-2.4974,-2.4954,-2.4954,-2.5025,-2.5084,-2.5025,-2.5005,-2.5005,-2.5103,-2.5204,-2.5243,-2.5626,-2.5852,-2.5923,-2.6298,-2.6823,-2.7441,-2.7485,-2.7439,-2.7654,-2.7648,-2.7681,-2.7698,-2.7716,-2.7716,-2.7716,-2.7716,-2.7716,-3.6602,-3.6745,-3.6764,-3.6901,-3.7014,-3.6642,-3.6155,-3.5559,-3.4839,-3.4561,-3.4583,-3.4451,-3.4282,-3.4132,-3.4132,-3.4207,-3.4376,-3.4376,-3.4358,-3.4376,-3.4376,-3.3494,-3.1917,-3.1879,-3.111,-2.9758,-2.9701,-2.9626,-2.9439,-2.9439,-2.9026,-2.8182,-2.8191,-2.7834,-2.7186,0.0,0.0,0.0,-2.4025,-2.3214,-2.1785,-2.1424,-2.0671,-1.9458,-1.9324,0.0,-1.9285,-1.929,-1.9232,-1.9081,-1.8358,0.0,0.0,0.0,0.0,0.0,0.0,0.0,0.0,0.0,0.0,0.0,-1.623,-1.6196,-1.6861,-1.7012,-1.7882,-1.9782,-2.1088,-2.1587,-2.1062,-2.1151,-2.1383,-2.1689,-2.1616,-2.2005,-2.317,-2.2854,-2.2561,-2.2681,-2.3392,-2.4223,-2.5091,-2.5403,-2.5406,-2.5064,-2.5005,-2.5005,-2.5005,-2.5025,-2.513,-2.546,-2.5266,-2.5005,-2.5005,-2.5513,-2.5888,-2.5908,-2.6103,-2.6436,-2.6858,-2.694,-2.7086,-2.7559,-2.7647,-2.7642,-2.7669,-2.7716,-2.7716,-2.7716,-2.7716,-2.7716,-2.7716,-2.7716,-2.7716,-3.809,0.0,-3.8197,-3.8246,0.0,-3.7868,-3.7455,-3.7024,-3.619,-3.5833,-3.5833,-3.5852,-3.5833,-3.5803,-3.5409,-3.5268,-3.5325,-3.4939,-3.4763,-3.4841,-3.4782,-3.3845,-3.2251,-3.2135,-3.126,-2.972,-2.9701,-2.9701,-2.9701,-2.9701,-2.9476,-2.9035,-2.9035,-2.8856,-2.8457,-2.7184,-2.5794,-2.4312,-2.4201,-2.3673,-2.2761,-2.2372,-2.1635,-2.0474,-2.0077,0.0,0.0,0.0,0.0,0.0,0.0,0.0,0.0,0.0,0.0,-1.7923,-1.7819,-1.7479,-1.7002,-1.7644,-1.8345,-1.89,-1.9639,-1.974,-1.9009,-1.9272,-1.9933,-2.0998,-2.2235,-2.2777,-2.2264,-2.2255,-2.2378,-2.2575,-2.2346,-2.2607,-2.3588,-2.4043,-2.3767,-2.2999,-2.3793,-2.4842,-2.547,-2.5612,-2.55,-2.5107,-2.5323,-2.546,-2.5304,-2.525,-2.5406,-2.5781,-2.5365,-2.5146,-2.5535,-2.6191,-2.6521,-2.6263,-2.6349,-2.6573,-2.6724,-2.7021,-2.7279,-2.7438,-2.7559,-2.7647,-2.7659,-2.7672,-2.7716,-2.7716,-2.7716,-2.7716,-2.7716,-2.7716,-2.7716,-3.9608,-3.9608,-3.9608,-3.9608,-3.9552,-3.8845,-3.8544,-3.8469,0.0,0.0,0.0,-3.7137,-3.7141,-3.7103,-3.6508,-3.6199,-3.6122,-3.5458,-3.5115,-3.5047,-3.4926,-3.4046,-3.2589,-3.225,-3.1335,-2.9945,-2.9758,-2.9701,-2.9701,-2.9701,-2.9692,-2.9729,-2.971,-2.9662,-2.9451,-2.7874,-2.6272,-2.4757,-2.4349,-2.4041,-2.3787,-2.3186,-2.2502,-2.1706,-2.1081,-2.0419,-1.9774,-1.9738,-1.949,-1.895,-1.8834,-1.8888,-1.911,-1.9054,-1.9325,-2.0023,-2.0619,-2.0588,-1.9839,-2.0944,-2.152,-2.1102,-2.2377,-2.2504,-2.0956,-2.1669,-2.2154,-2.2118,-2.3391,-2.3941,-2.3332,-2.3378,-2.3513,-2.3661,-2.3249,-2.3285,-2.4129,-2.5042,-2.5077,-2.3915,-2.4575,-2.5429,-2.6043,-2.5943,-2.5615,-2.5365,-2.5612,-2.5997,-2.5762,-2.567,-2.5744,-2.605,-2.5684,-2.5478,-2.6175,-2.6792,-2.7007,-2.6505,-2.6624,-2.6674,-2.6522,-2.6907,-2.7294,-2.7345,-2.7469,-2.7559,-2.7619,-2.7659,-2.7701,-2.7716,-2.7716,-2.7716,-2.7716,-2.7716,-2.7716,-3.9608,-3.9608,-3.9608,-3.9608,-3.9589,-3.9458,-3.942,-3.9289,-3.7768,-3.711,-3.7103,-3.7276,-3.7351,-3.7361,-3.7404,-3.7056,-3.6368,-3.6112,-3.5619,-3.4917,-3.474,-3.4147,-3.3235,-3.2453,-3.1616,-3.0724,-3.0039,-2.9701,-2.9701,-2.9701,-2.9729,-2.9782,-2.9782,-2.9405,-2.8651,-2.7619,-2.6542,-2.5458,-2.4464,-2.3611,-2.2994,-2.2875,-2.2446,-2.1752,-2.1658,-2.1574,-2.1464,-2.1427,-2.1417,-2.1332,-2.1409,-2.1503,-2.1585,-2.1635,-2.1807,-2.1906,-2.1805,-2.1676,-2.1522,-2.154,-2.1835,-2.2529,-2.2868,-2.2776,-2.231,-2.3132,-2.3716,-2.3753,-2.4068,-2.4269,-2.4334,-2.4391,-2.4479,-2.468,-2.432,-2.4456,-2.5542,-2.5715,-2.5971,-2.6385,-2.6201,-2.6037,-2.632,-2.621,-2.6033,-2.5908,-2.5834,-2.5835,-2.6315,-2.6228,-2.6141,-2.6333,-2.6175,-2.6314,-2.6892,-2.7186,-2.7218,-2.717,-2.7154,-2.7137,-2.7072,-2.7186,-2.7345,-2.739,-2.7465,-2.7526,-2.7569,-2.7659,-2.7701,-2.7716,-2.7716,-2.7716,-2.7716,-2.7716,-2.7716,-3.9608,-3.9608,-3.9608,-3.9608,-3.9608,-3.9608,-3.9608,-3.9533,-3.8782,-3.8462,-3.8467,-3.8669,-3.8757,-3.8729,-3.8346,-3.7765,-3.7024,-3.6407,-3.5742,-3.5027,-3.4841,-3.4308,-3.3478,-3.2559,-3.1917,-3.1485,-3.0265,-2.9908,-3.0265,-2.9908,-2.9729,-2.978,-2.9789,-2.9147,-2.7905,-2.7266,-2.632,-2.4975,-2.4357,-2.3901,-2.3564,-2.3554,-2.3198,-2.2438,-2.2437,-2.2226,-2.1812,-2.1794,-2.1794,-2.1794,-2.1827,-2.194,-2.2132,-2.2178,-2.2233,-2.2305,-2.2672,-2.2776,-2.256,-2.2831,-2.3151,-2.3565,-2.362,-2.3593,-2.3446,-2.3839,-2.4277,-2.4706,-2.4911,-2.5125,-2.5428,-2.5161,-2.5037,-2.516,-2.5057,-2.5318,-2.5988,-2.6437,-2.6764,-2.7162,-2.6796,-2.6451,-2.6488,-2.6453,-2.6315,-2.6158,-2.607,-2.6384,-2.6942,-2.6708,-2.6436,-2.6505,-2.6624,-2.6892,-2.7251,-2.7315,-2.7315,-2.7315,-2.7315,-2.7315,-2.7315,-2.7315,-2.7376,-2.7542,-2.7585,-2.76,-2.7635,-2.7659,-2.7701,-2.7716,-2.7716,-2.7716,-2.7716,-2.7716,-2.7716,-3.9608,-3.9608,-3.9608,-3.9608,-3.9608,-3.9608,-3.9608,-3.9608,-3.9589,-3.9608,-3.9626,-3.9804,-3.9884,-3.9827,-3.9235,-3.8461,-3.7572,-3.6758,-3.5932,-3.5098,-3.4898,-3.4462,-3.3762,-3.2824,-3.2386,-3.2236,-3.0922,-3.0471,-3.0799,-3.0284,-2.9925,-2.9818,-2.9798,-2.9036,-2.7491,-2.7101,-2.6145,-2.4717,-2.4349,-2.4199,-2.4199,-2.4198,-2.3877,-2.3336,-2.3281,-2.2978,-2.2382,-2.2345,-2.2345,-2.2345,-2.2291,-2.2395,-2.2637,-2.2664,-2.2722,-2.2874,-2.3469,-2.3716,-2.3379,-2.3842,-2.4208,-2.4189,-2.4373,-2.4456,-2.4475,-2.4281,-2.4508,-2.5207,-2.6001,-2.6452,-2.6222,-2.5799,-2.5561,-2.5736,-2.5917,-2.6146,-2.6387,-2.6937,-2.7315,-2.7267,-2.704,-2.6774,-2.6708,-2.6691,-2.6573,-2.6384,-2.6708,-2.7213,-2.746,-2.7365,-2.7301,-2.7182,-2.713,-2.7072,-2.7234,-2.7315,-2.7315,-2.7315,-2.7315,-2.7315,-2.7315,-2.7315,-2.7533,-2.7818,-2.7799,-2.7922,-2.8017,-2.7835,-2.7859,-2.7947,-2.7909,-2.7716,-2.7716,-2.7716,-2.7716,-3.9608,-3.9608,-3.9608,-3.9608,-3.9608,-3.9608,-3.9608,-3.9608,-3.9608,-3.9608,-3.9614,-3.9804,-3.9884,-3.9916,-3.9947,-3.906,-3.759,-3.7367,-3.6387,-3.5003,-3.4701,-3.4588,-3.4419,-3.3636,-3.3287,-3.3146,-3.2236,-3.141,-3.0978,-3.0847,-3.0478,-2.9892,-2.9866,-2.9246,-2.809,-2.7261,-2.6357,-2.5322,-2.4576,-2.4199,-2.4208,-2.4151,-2.4114,-2.4098,-2.4089,-2.4061,-2.3887,-2.3988,-2.3951,-2.3969,-2.3914,-2.3989,-2.408,-2.4255,-2.4353,-2.4351,-2.4393,-2.428,-2.3957,-2.4105,-2.4189,-2.4168,-2.4831,-2.5264,-2.5264,-2.4649,-2.4482,-2.5391,-2.733,-2.7819,-2.6678,-2.6272,-2.6373,-2.6872,-2.702,-2.7178,-2.7144,-2.723,-2.7315,-2.7315,-2.7234,-2.7234,-2.7154,-2.6925,-2.6725,-2.6793,-2.7487,-2.8097,-2.8301,-2.8663,-2.8956,-2.8716,-2.7673,-2.6809,-2.719,-2.7315,-2.7351,-2.7349,-2.7316,-2.7402,-2.7454,-2.7435,-2.7589,-2.8532,-2.8397,-2.8506,-2.8852,-2.8745,-2.8087,-2.8594,-2.8366,-2.7801,-2.7733,-2.7733,-2.7751,-3.9608,-3.9608,-3.9608,-3.9608,-3.9608,-3.9608,-3.9608,-3.9608,-3.9608,-3.9608,-3.9602,-3.9698,-3.9524,-3.9145,-3.9219,-3.8346,-3.6815,-3.6618,-3.588,-3.4776,-3.4626,-3.4612,-3.4518,-3.3794,-3.3644,-3.3888,-3.2274,-3.1514,-3.1525,-3.0762,-3.011,-2.98,-2.9626,-2.9054,-2.8096,-2.7197,-2.6274,-2.5403,-2.4612,-2.4199,-2.419,-2.417,-2.4189,-2.4208,-2.4199,-2.4199,-2.4199,-2.4199,-2.4199,-2.4199,-2.4199,-2.4247,-2.4347,-2.4425,-2.453,-2.459,-2.4462,-2.4338,-2.4248,-2.4219,-2.441,-2.4849,-2.5181,-2.5576,-2.6043,-2.5786,-2.579,-2.6265,-2.7322,-2.772,-2.723,-2.6979,-2.6985,-2.7244,-2.7315,-2.7315,-2.7315,-2.7315,-2.7315,-2.7315,-2.7315,-2.7315,-2.7299,-2.7153,-2.7261,-2.7586,-2.8199,-2.8575,-2.8972,-2.9334,-2.9472,-2.9403,-2.8647,-2.8135,-2.7974,-2.754,-2.7558,-2.7816,-2.7954,-2.7971,-2.8092,-2.7608,-2.7798,-2.9419,-2.9745,-2.9722,-2.975,-2.9608,-2.9166,-2.9457,-2.9655,-2.9352,-2.9352,-2.8464,-2.815,-3.9608,-3.9608,-3.9608,-3.9608,-3.9608,-3.9608,-3.9608,-3.9608,-3.9608,-3.9608,-3.9608,-3.9608,-3.9065,-3.8299,-3.8423,-3.7648,-3.622,-3.5956,-3.5428,-3.4669,-3.4645,-3.4634,-3.4537,-3.407,-3.407,-3.4218,-3.2623,-3.176,-3.1808,-3.0535,-2.9764,-2.9645,-2.9415,-2.8864,-2.8013,-2.7072,-2.6209,-2.5403,-2.4622,-2.4199,-2.4199,-2.4199,-2.4199,-2.4199,-2.4199,-2.4199,-2.4199,-2.4199,-2.4199,-2.4199,-2.4199,-2.4238,-2.432,-2.4372,-2.4442,-2.4503,-2.4366,-2.4294,-2.4338,-2.4459,-2.4787,-2.5338,-2.576,-2.6292,-2.6833,-2.7134,-2.7239,-2.7201,-2.7267,-2.7404,-2.7526,-2.7421,-2.7315,-2.7315,-2.7315,-2.7315,-2.7315,-2.7315,-2.7315,-2.7315,-2.7315,-2.7401,-2.7558,-2.7697,-2.799,-2.8541,-2.892,-2.911,-2.9661,-2.9972,-3.0196,-3.0144,-3.0127,-2.9644,-2.8747,-2.8316,-2.8178,-2.8299,-2.8558,-2.8834,-2.9075,-2.842,-2.8471,-3.0369,-3.1301,-3.1528,-3.0803,-3.0452,-3.0053,-3.0196,-3.0394,-3.0578,-3.0421,-2.9476,-2.9382,-3.9608,-3.9608,-3.9608,-3.9608,-3.9608,-3.9608,-3.9608,-3.9608,-3.9608,-3.9608,-3.9608,-3.9608,-3.8719,-3.7351,-3.7991,-3.7404,-3.6032,-3.5833,-3.539,-3.465,-3.4727,-3.4708,-3.4604,-3.468,-3.4651,-3.4446,-3.353,-3.2373,-3.1072,-3.0205,-2.9626,-2.9353,-2.9293,-2.8799,-2.7908,-2.71,-2.6245,-2.5576,-2.4722,-2.4245,-2.4236,-2.4236,-2.4199,-2.4199,-2.4199,-2.4199,-2.4199,-2.4199,-2.4199,-2.4199,-2.4199,-2.4199,-2.4228,-2.4338,-2.4408,-2.4436,-2.4331,-2.4236,-2.4402,-2.4962,-2.5429,-2.566,-2.677,-2.7658,-2.7717,-2.829,-2.8403,-2.8054,-2.753,-2.733,-2.7362,-2.7346,-2.7315,-2.7315,-2.7315,-2.7315,-2.7315,-2.7368,-2.7332,-2.7316,-2.7401,-2.7713,-2.8265,-2.8575,-2.8903,-2.9437,-3.0075,-3.0472,-3.0437,-3.1058,-3.1438,-3.1507,-3.1403,-3.1024,-2.9334,-2.8523,-2.8713,-2.911,-2.9299,-2.9627,-2.9799,-3.0006,-3.061,-3.1059,-3.1507,-3.17,-3.1548,-3.1184,-3.0658,-3.063,-3.0913,-3.1049,-3.1528,-3.1768,-3.1647,-3.9608,-3.9608,-3.9608,-3.9608,-3.9608,-3.9608,-3.9608,-3.9608,-3.9608,-3.9608,-3.9608,-3.9608,-3.8951,-3.7868,-3.7624,-3.6629,-3.5146,-3.5071,-3.4902,-3.4612,-3.4655,-3.4645,-3.4623,-3.4655,-3.4367,-3.3823,-3.308,-3.1874,-3.0328,-2.9701,-2.9434,-2.9312,-2.9163,-2.8912,-2.8496,-2.7769,-2.72,-2.6825,-2.5668,-2.497,-2.4915,-2.4465,-2.4199,-2.4199,-2.4199,-2.4199,-2.4199,-2.4199,-2.4199,-2.4199,-2.4199,-2.4199,-2.4199,-2.4247,-2.4506,-2.4967,-2.5001,-2.5209,-2.5676,-2.6007,-2.6403,-2.6935,-2.7431,-2.7976,-2.8304,-2.8699,-2.8676,-2.7986,-2.7542,-2.7315,-2.7315,-2.7315,-2.7315,-2.7315,-2.7315,-2.7315,-2.7418,-2.7678,-2.7833,-2.7539,-2.7799,-2.8489,-2.8937,-2.9179,-2.9523,-3.0144,-3.0524,-3.0852,-3.1214,-3.161,-3.1834,-3.18,-3.1783,-3.1558,-3.0989,-2.8954,-2.8282,-2.9368,-3.0006,-3.0472,-3.0748,-3.0938,-3.1403,-3.1512,-3.184,-3.1912,-3.1812,-3.2018,-3.1501,-3.1879,-3.209,-3.2164,-3.2761,-3.2891,-3.3,-4.0365,-4.0365,-4.0365,-4.0209,-3.999,-3.9984,-3.9833,-3.9627,-3.9608,-3.9608,-3.9608,-3.9608,-3.912,-3.8319,-3.7737,-3.6753,-3.5458,-3.5165,-3.5015,-3.5026,-3.5039,-3.4908,-3.4612,-3.4645,-3.4396,-3.3816,-3.2807,-3.1384,-2.9786,-2.9405,-2.928,-2.9195,-2.9067,-2.8987,-2.8858,-2.8209,-2.7805,-2.7541,-2.6476,-2.5778,-2.5723,-2.5273,-2.4842,-2.4622,-2.4585,-2.4428,-2.4236,-2.4199,-2.4199,-2.4199,-2.4199,-2.4199,-2.4199,-2.4199,-2.4566,-2.5283,-2.5384,-2.576,-2.6502,-2.6851,-2.7218,-2.7732,-2.7995,-2.8251,-2.8577,-2.8663,-2.8334,-2.7815,-2.745,-2.7315,-2.7315,-2.7315,-2.7315,-2.7315,-2.7315,-2.7315,-2.7366,-2.8023,-2.8213,-2.816,-2.9058,-2.9713,-2.9765,-2.9834,-3.0386,-3.1248,-3.1403,-3.1593,-3.1731,-3.2024,-3.2024,-3.1852,-3.18,-3.1783,-3.1507,-3.0265,-2.9609,-3.049,-3.0768,-3.1234,-3.1529,-3.1735,-3.1911,-3.2001,-3.2073,-3.2126,-3.2301,-3.2587,-3.2908,-3.3262,-3.328,-3.3204,-3.3624,-3.3913,-3.3796,-4.1948,-4.1873,-4.1967,-4.1404,-4.0741,-4.0685,-4.0309,-3.9683,-3.9608,-3.9608,-3.9608,-3.9608,-3.9176,-3.8488,-3.8244,-3.7774,-3.711,-3.6366,-3.5916,-3.5784,-3.5854,-3.5413,-3.4653,-3.4718,-3.4608,-3.4317,-3.2986,-3.1222,-2.9419,-2.9283,-2.9203,-2.9033,-2.901,-2.8987,-2.8987,-2.8301,-2.7879,-2.7714,-2.7034,-2.6612,-2.6602,-2.6447,-2.6062,-2.5466,-2.5283,-2.4915,-2.4291,-2.4236,-2.4199,-2.4199,-2.4199,-2.4199,-2.4208,-2.4263,-2.4612,-2.5374,-2.5495,-2.5888,-2.6667,-2.7438,-2.7824,-2.7996,-2.8324,-2.8548,-2.8489,-2.8321,-2.8034,-2.7686,-2.7452,-2.7332,-2.7368,-2.7349,-2.7315,-2.7315,-2.7315,-2.7315,-2.7471,-2.8213,-2.8868,-2.911,-3.0421,-3.1196,-3.0679,-3.0662,-3.1334,-3.23,-3.2731,-3.2576,-3.2179,-3.2438,-3.2472,-3.2007,-3.18,-3.18,-3.18,-3.1748,-3.1716,-3.177,-3.1722,-3.1897,-3.1952,-3.2109,-3.2266,-3.2369,-3.2469,-3.2536,-3.2636,-3.2925,-3.3214,-3.3536,-3.3734,-3.3944,-3.4036,-3.4161,-3.4173,-4.1986,-4.1986,-4.1986,-4.1516,-4.0835,-4.0797,-4.0347,-3.9646,-3.9608,-3.9608,-3.9608,-3.9608,-3.9439,-3.9089,-3.8601,-3.8488,-3.8725,-3.7925,-3.6967,-3.6096,-3.5942,-3.5523,-3.4869,-3.4778,-3.4213,-3.3024,-3.1696,-3.0495,-2.9498,-2.9152,-2.9055,-2.8998,-2.8987,-2.8987,-2.8987,-2.8748,-2.8638,-2.8558,-2.7824,-2.742,-2.7365,-2.6906,-2.6484,-2.6153,-2.5181,-2.4658,-2.497,-2.4493,-2.4218,-2.4236,-2.4199,-2.4199,-2.4281,-2.4732,-2.5393,-2.6153,-2.6759,-2.7402,-2.8124,-2.8436,-2.8601,-2.8645,-2.8777,-2.8615,-2.8321,-2.8174,-2.7883,-2.7511,-2.7362,-2.7454,-2.7851,-2.7558,-2.7418,-2.7332,-2.7315,-2.7384,-2.7677,-2.8816,-3.0041,-3.0765,-3.142,-3.1593,-3.1541,-3.1748,-3.2438,-3.3059,-3.349,-3.3455,-3.3024,-3.2938,-3.261,-3.1972,-3.1886,-3.1993,-3.2136,-3.2244,-3.2264,-3.2546,-3.2719,-3.2386,-3.242,-3.2487,-3.262,-3.2959,-3.3035,-3.3037,-3.3117,-3.3373,-3.3737,-3.3899,-3.417,-3.4247,-3.421,-3.4364,-3.4606,-4.2924,-4.2924,-4.2924,-4.2267,-4.1304,-4.1248,-4.0609,-3.9702,-3.9608,-3.9608,-3.9608,-3.9608,-3.9608,-3.9495,-3.9014,-3.9101,-3.9495,-3.9014,-3.808,-3.693,-3.6434,-3.5813,-3.4929,-3.4769,-3.3792,-3.2231,-3.1331,-3.0353,-2.9211,-2.9048,-2.8987,-2.8987,-2.8987,-2.8987,-2.8987,-2.8987,-2.8987,-2.8913,-2.8521,-2.8246,-2.8154,-2.7758,-2.7354,-2.6961,-2.6062,-2.5676,-2.5815,-2.5328,-2.4961,-2.4713,-2.464,-2.4649,-2.4685,-2.5154,-2.5888,-2.6906,-2.7512,-2.8117,-2.8877,-2.8932,-2.8987,-2.8975,-2.8905,-2.862,-2.817,-2.7964,-2.7612,-2.7359,-2.7315,-2.7592,-2.8178,-2.854,-2.8264,-2.7885,-2.7782,-2.7971,-2.8506,-2.9558,-3.0627,-3.1438,-3.2146,-3.2146,-3.2059,-3.2766,-3.3438,-3.3835,-3.4231,-3.4407,-3.3973,-3.3835,-3.3248,-3.2714,-3.2524,-3.2602,-3.2664,-3.2703,-3.2704,-3.3202,-3.3696,-3.3176,-3.286,-3.2943,-3.3073,-3.393,-3.4261,-3.3876,-3.3911,-3.4292,-3.4637,-3.467,-3.4996,-3.5082,-3.5293,-3.5367,-3.5479,-4.4463,-4.4482,-4.4463,-4.3431,-4.2023,-4.1929,-4.1022,-3.9739,-3.9608,-3.9608,-3.9608,-3.9608,-3.9608,-3.9608,-3.9477,-3.9533,-3.9589,-3.9508,-3.8982,-3.8134,-3.7347,-3.6182,-3.4938,-3.468,-3.3634,-3.2105,-3.1823,-3.0849,-2.932,-2.92,-2.9023,-2.9005,-2.8987,-2.8987,-2.8987,-2.8987,-2.8987,-2.8987,-2.895,-2.8913,-2.8913,-2.8895,-2.8565,-2.7879,-2.7622,-2.7236,-2.6741,-2.6576,-2.6227,-2.5576,-2.5466,-2.5466,-2.5476,-2.5495,-2.6384,-2.7633,-2.7824,-2.8301,-2.8822,-2.8987,-2.8987,-2.8975,-2.8864,-2.8528,-2.8294,-2.8009,-2.7782,-2.7693,-2.7696,-2.7954,-2.873,-2.9317,-2.9541,-2.9041,-2.8747,-2.9161,-3.0352,-3.0386,-3.08,-3.1679,-3.2576,-3.311,-3.2455,-3.3559,-3.4197,-3.4783,-3.5111,-3.5094,-3.4973,-3.4749,-3.449,-3.399,-3.3369,-3.3531,-3.3718,-3.4796,-3.479,-3.4785,-3.5184,-3.4764,-3.3891,-3.3777,-3.3749,-3.46,-3.543,-3.499,-3.4887,-3.5329,-3.5974,-3.6533,-3.6617,-3.6469,-3.6278,-3.6185,-3.6147,-4.4482,-4.4482,-4.4482,-4.3543,-4.2098,-4.1986,-4.1079,-3.9702,-3.9608,-3.9608,-3.9608,-3.9608,-3.9608,-3.9608,-3.9608,-3.9608,-3.9564,-3.947,-3.8951,-3.8159,-3.7237,-3.6061,-3.49,-3.4439,-3.3753,-3.2671,-3.2354,-3.1532,-2.9989,-2.9843,-2.9574,-2.9005,-2.9023,-2.8987,-2.8987,-2.8987,-2.8987,-2.8987,-2.8987,-2.8987,-2.8987,-2.8987,-2.8895,-2.8693,-2.8136,-2.775,-2.7493,-2.7493,-2.7108,-2.6374,-2.6282,-2.63,-2.6319,-2.6759,-2.7302,-2.7798,-2.8374,-2.8712,-2.8913,-2.8987,-2.8987,-2.9037,-2.9228,-2.9296,-2.9026,-2.8903,-2.8863,-2.8967,-2.923,-2.9592,-2.9937,-2.9903,-2.9868,-3.0162,-2.9972,-3.0024,-3.0368,-3.0368,-3.0679,-3.1679,-3.2731,-3.368,-3.4611,-3.4852,-3.5145,-3.5645,-3.5873,-3.5966,-3.5821,-3.555,-3.5248,-3.4725,-3.4313,-3.4585,-3.5153,-3.6407,-3.6946,-3.6754,-3.6875,-3.6903,-3.5904,-3.5082,-3.4946,-3.5086,-3.636,-3.6417,-3.637,-3.6545,-3.7362,-3.8042,-3.7708,-3.7281,-3.6798,-3.6593,-3.6686,-4.4482,-4.4463,-4.4125,-4.3224,-4.2023,-4.1629,-4.076,-3.9777,-3.9608,-3.9608,-3.9608,-3.9608,-3.9608,-3.9608,-3.9608,-3.9552,-3.9464,-3.9356,-3.8863,-3.7965,-3.6758,-3.5516,-3.4598,-3.4215,-3.3722,-3.2884,-3.2672,-3.1892,-3.0815,-3.0393,-2.9953,-2.9519,-2.917,-2.9005,-2.8987,-2.8987,-2.8987,-2.8987,-2.8987,-2.8987,-2.8987,-2.8987,-2.8987,-2.8932,-2.8521,-2.8301,-2.8319,-2.8308,-2.7805,-2.6961,-2.6888,-2.7108,-2.7126,-2.7523,-2.7934,-2.8264,-2.8767,-2.8987,-2.8987,-2.9005,-2.917,-2.9416,-2.9682,-2.9733,-2.9726,-2.9723,-2.9643,-2.9505,-3.0006,-3.0368,-3.0645,-3.0524,-3.0713,-3.1058,-3.1282,-3.1351,-3.1369,-3.1472,-3.1834,-3.2662,-3.3576,-3.4594,-3.6128,-3.587,-3.5939,-3.617,-3.6408,-3.6507,-3.6556,-3.6265,-3.6066,-3.5712,-3.5588,-3.589,-3.631,-3.7395,-3.7835,-3.7799,-3.779,-3.801,-3.711,-3.6064,-3.5936,-3.6024,-3.7182,-3.7876,-3.7678,-3.7692,-3.8219,-3.8544,-3.8302,-3.8116,-3.7726,-3.7336,-3.7392,-4.4482,-4.4426,-4.3632,-4.2787,-4.1948,-4.1154,-4.0403,-3.9702,-3.9608,-3.9602,-3.9614,-3.962,-3.9614,-3.9614,-3.9638,-3.9521,-3.9311,-3.9311,-3.863,-3.7614,-3.6339,-3.5125,-3.4141,-3.4093,-3.366,-3.2978,-3.2761,-3.2284,-3.1586,-3.0852,-3.0467,-3.0191,-2.9574,-2.9189,-2.9207,-2.9097,-2.8987,-2.8987,-2.8987,-2.8987,-2.8987,-2.8987,-2.8987,-2.8968,-2.895,-2.8858,-2.8895,-2.8858,-2.8345,-2.695,-2.7548,-2.7879,-2.7934,-2.7934,-2.8246,-2.8767,-2.895,-2.8987,-2.8987,-2.9005,-2.93,-2.9844,-2.988,-3.0034,-3.0398,-3.0459,-3.036,-3.0076,-3.0196,-3.0662,-3.0903,-3.1369,-3.1679,-3.1869,-3.2403,-3.2714,-3.3093,-3.311,-3.3369,-3.4044,-3.4769,-3.5576,-3.6042,-3.6343,-3.6367,-3.6531,-3.6761,-3.6958,-3.7055,-3.6955,-3.7018,-3.7166,-3.7183,-3.7289,-3.7735,-3.8293,-3.8421,-3.8469,-3.8395,-3.8285,-3.7404,-3.6688,-3.667,-3.7026,-3.7823,-3.836,-3.8574,-3.8756,-3.8985,-3.8971,-3.8711,-3.8859,-3.8915,-3.8525,-3.8395,-4.4482,-4.4444,-4.3632,-4.2787,-4.1948,-4.1154,-4.034,-3.9627,-3.9608,-3.9631,-3.9661,-3.9619,-3.9631,-3.9689,-3.9654,-3.9539,-3.9292,-3.916,-3.8407,-3.6749,-3.6394,-3.5193,-3.4154,-3.3931,-3.3763,-3.3513,-3.3532,-3.3109,-3.2417,-3.2032,-3.1733,-3.1103,-3.0301,-2.9922,-2.9879,-2.9299,-2.8987,-2.9005,-2.9023,-2.8987,-2.8987,-2.8987,-2.8987,-2.8987,-2.8987,-2.8987,-2.8987,-2.8987,-2.8822,-2.8638,-2.8601,-2.8638,-2.8638,-2.8675,-2.8785,-2.8895,-2.8987,-2.8987,-2.9005,-2.9067,-2.9259,-2.9882,-3.0374,-3.074,-3.0973,-3.1556,-3.1619,-3.1426,-3.142,-3.1438,-3.1576,-3.1696,-3.211,-3.249,-3.2455,-3.2886,-3.418,-3.4456,-3.4231,-3.4476,-3.5269,-3.6132,-3.6312,-3.662,-3.6741,-3.69,-3.7132,-3.7358,-3.745,-3.7523,-3.7721,-3.7948,-3.793,-3.7861,-3.8051,-3.8467,-3.8611,-3.8707,-3.8707,-3.867,-3.7771,-3.7477,-3.7514,-3.779,-3.8257,-3.8656,-3.8877,-3.8993,-3.9036,-3.9069,-3.9101,-3.9101,-3.9101,-3.9101,-3.9101,-4.3337,-4.3243,-4.2468,-4.1867,-4.136,-4.0572,-3.9984,-3.9664,-3.9608,-3.9625,-3.9689,-3.9661,-3.9689,-3.9781,-3.9658,-3.9489,-3.9173,-3.8655,-3.7923,-3.6838,-3.6156,-3.5202,-3.4509,-3.399,-3.3807,-3.3807,-3.3788,-3.3513,-3.3201,-3.2784,-3.2326,-3.188,-3.0815,-3.0467,-3.0485,-2.9629,-2.9299,-2.9427,-2.917,-2.8987,-2.8987,-2.8987,-2.8987,-2.8987,-2.8987,-2.8987,-2.8987,-2.8987,-2.8987,-2.8987,-2.8987,-2.8987,-2.8987,-2.8987,-2.8987,-2.8987,-2.8987,-2.8987,-2.9023,-2.939,-2.9856,-3.043,-3.0966,-3.1407,-3.1674,-3.2141,-3.2021,-3.1874,-3.18,-3.1886,-3.2248,-3.2317,-3.2679,-3.3197,-3.311,-3.3613,-3.4714,-3.4783,-3.4749,-3.5025,-3.5818,-3.6678,-3.7094,-3.7076,-3.7171,-3.7358,-3.7578,-3.7809,-3.7896,-3.8,-3.8118,-3.8269,-3.8285,-3.832,-3.8352,-3.8515,-3.8643,-3.8707,-3.8707,-3.8707,-3.8358,-3.834,-3.845,-3.8563,-3.8567,-3.87,-3.8881,-3.8993,-3.9059,-3.9087,-3.9101,-3.9101,-3.9101,-3.9101,-3.9101,-4.1986,-4.1929,-4.1154,-4.0797,-4.0666,-3.9984,-3.9646,-3.9608,-3.9614,-3.9691,-3.9735,-3.9728,-3.9804,-3.9848,-3.9658,-3.9464,-3.9037,-3.8348,-3.7728,-3.7254,-3.6321,-3.55,-3.4912,-3.438,-3.3972,-3.3844,-3.3807,-3.3752,-3.3568,-3.3183,-3.2894,-3.254,-3.1384,-3.1127,-3.1146,-3.0265,-2.9684,-2.9989,-2.9555,-2.9152,-2.9023,-2.8987,-2.8987,-2.8987,-2.8987,-2.8987,-2.8987,-2.8987,-2.8987,-2.8987,-2.8987,-2.8987,-2.8987,-2.8987,-2.8987,-2.8987,-2.8987,-2.9115,-2.9372,-2.9831,-3.0479,-3.1376,-3.1584,-3.2,-3.2417,-3.2333,-3.2109,-3.1947,-3.1891,-3.2007,-3.2645,-3.2541,-3.3041,-3.3753,-3.4032,-3.4449,-3.5013,-3.4792,-3.5131,-3.5873,-3.6295,-3.6867,-3.7377,-3.7542,-3.7667,-3.7827,-3.807,-3.8239,-3.8358,-3.8405,-3.8504,-3.8499,-3.8499,-3.8499,-3.853,-3.8656,-3.8765,-3.8872,-3.8836,-3.8762,-3.8744,-3.867,-3.8634,-3.8667,-3.8695,-3.8792,-3.8881,-3.8964,-3.9017,-3.9073,-3.9101,-3.9101,-3.9101,-3.9101,-3.9101,-4.1986,-4.1929,-4.1135,-4.0797,-4.0666,-3.9946,-3.962,-3.9614,-3.9661,-3.9758,-3.9867,-3.9859,-3.9933,-3.9965,-3.9773,-3.9458,-3.9059,-3.8527,-3.8117,-3.7658,-3.6964,-3.6395,-3.5206,-3.4821,-3.4399,-3.3954,-3.3807,-3.3807,-3.3807,-3.366,-3.3476,-3.3348,-3.2559,-3.2234,-3.2069,-3.1458,-3.0577,-3.0503,-3.0155,-2.9769,-2.9372,-2.9152,-2.9115,-2.9097,-2.906,-2.8987,-2.8987,-2.8987,-2.8987,-2.8987,-2.8987,-2.8987,-2.9023,-2.9023,-2.906,-2.8987,-2.9005,-2.9225,-2.9794,-3.0136,-3.0843,-3.162,-3.205,-3.2239,-3.2628,-3.2668,-3.2403,-3.2179,-3.1999,-3.1956,-3.1955,-3.2424,-3.2871,-3.3604,-3.4106,-3.4482,-3.5593,-3.5797,-3.5649,-3.6318,-3.6643,-3.7064,-3.7681,-3.8168,-3.838,-3.8627,-3.892,-3.8925,-3.8864,-3.8802,-3.874,-3.8716,-3.8658,-3.8658,-3.8676,-3.8805,-3.8946,-3.9095,-3.9077,-3.8927,-3.8872,-3.8744,-3.8726,-3.9111,-3.8974,-3.8792,-3.8862,-3.895,-3.9036,-3.9087,-3.9101,-3.9101,-3.925,-3.9342,-3.9101,-4.076,-4.0722,-4.0328,-4.019,-4.0115,-3.9777,-3.9638,-3.9661,-3.9701,-3.9815,-3.9954,-4.0015,-4.0086,-4.0067,-3.9751,-3.935,-3.895,-3.8762,-3.845,-3.8098,-3.7658,-3.6905,-3.5665,-3.5279,-3.4546,-3.4009,-3.3807,-3.3825,-3.3807,-3.3788,-3.3807,-3.3605,-3.2999,-3.2803,-3.2834,-3.1953,-3.1549,-3.1256,-3.1017,-3.0632,-3.0191,-2.9867,-2.9629,-2.9537,-2.9225,-2.9005,-2.8987,-2.8987,-2.8987,-2.8987,-2.8987,-2.8987,-2.9097,-2.9354,-2.9445,-2.9189,-2.9097,-2.939,-3.0155,-3.054,-3.134,-3.2178,-3.2536,-3.2688,-3.278,-3.2765,-3.2621,-3.2284,-3.2686,-3.2783,-3.3082,-3.3406,-3.4389,-3.5107,-3.5035,-3.5445,-3.6308,-3.6319,-3.6468,-3.6651,-3.6876,-3.7469,-3.8436,-3.885,-3.9111,-3.9405,-3.9733,-3.9687,-3.9499,-3.9515,-3.946,-3.8927,-3.8836,-3.8707,-3.8927,-3.9386,-3.979,-3.9937,-3.9591,-3.9426,-3.9279,-3.9313,-3.9664,-4.0139,-3.9745,-3.9138,-3.8866,-3.8939,-3.9021,-3.9143,-3.925,-3.938,-3.9547,-3.9547,-3.9398,-3.9608,-3.9608,-3.9626,-3.9607,-3.9607,-3.9662,-3.9684,-3.9728,-3.9773,-3.9892,-4.0096,-4.0127,-4.0157,-4.0067,-3.9658,-3.917,-3.8723,-3.8707,-3.8652,-3.8524,-3.8083,-3.7327,-3.6523,-3.5844,-3.5133,-3.4307,-3.4156,-3.3954,-3.3825,-3.3807,-3.3807,-3.3678,-3.3109,-3.3128,-3.333,-3.2632,-3.243,-3.2179,-3.2045,-3.1635,-3.1268,-3.0797,-3.043,-3.0356,-2.9696,-2.9354,-2.9647,-2.9427,-2.9519,-2.9574,-2.9574,-2.939,-2.9244,-2.9916,-3.0265,-2.9989,-2.9684,-2.9941,-3.0632,-3.1219,-3.2014,-3.2842,-3.312,-3.3214,-3.3414,-3.3364,-3.2937,-3.2247,-3.2731,-3.3809,-3.4402,-3.5052,-3.5761,-3.6351,-3.6285,-3.636,-3.7004,-3.7237,-3.7128,-3.7245,-3.7256,-3.7962,-3.9049,-3.9965,-4.0331,-4.0291,-4.0602,-4.0547,-4.0416,-4.0579,-4.0359,-3.9441,-3.9001,-3.8762,-3.9166,-4.0123,-4.0799,-4.1534,-4.091,-4.0396,-4.0212,-4.0068,-4.0543,-4.096,-4.0394,-3.9825,-3.9394,-3.9124,-3.9406,-3.9607,-3.9584,-3.9825,-4.0308,-4.0234,-3.9955,-3.9608,-3.9602,-3.9672,-3.9682,-3.9693,-3.9811,-3.9875,-3.9889,-3.9994,-4.0067,-4.0127,-4.0176,-4.0118,-3.9848,-3.9401,-3.9007,-3.878,-3.8707,-3.8707,-3.8652,-3.8487,-3.7991,-3.7401,-3.7309,-3.6101,-3.5041,-3.4802,-3.4417,-3.4045,-3.3899,-3.3807,-3.3733,-3.3678,-3.3697,-3.3697,-3.3366,-3.322,-3.2711,-3.2509,-3.2173,-3.1604,-3.1366,-3.1256,-3.1035,-3.0577,-3.0301,-3.0668,-3.0375,-3.0301,-3.0883,-3.0993,-3.0356,-2.9574,-3.0485,-3.1935,-3.2375,-3.2173,-3.1458,-3.2032,-3.2216,-3.2651,-3.3271,-3.3508,-3.3862,-3.4331,-3.4305,-3.3624,-3.1962,-3.2866,-3.4195,-3.535,-3.535,-3.5633,-3.6239,-3.6826,-3.7041,-3.7595,-3.8453,-3.8312,-3.8349,-3.8545,-3.9049,-3.9842,-4.0773,-4.1537,-4.1444,-4.1387,-4.1368,-4.1405,-4.1607,-4.1607,-4.0799,-3.99,-3.9588,-4.0212,-4.1058,-4.1644,-4.2727,-4.2176,-4.1423,-4.1387,-4.133,-4.1397,-4.1574,-4.1083,-4.0686,-4.0314,-4.0148,-4.0121,-4.0405,-4.0847,-4.1107,-4.1349,-4.1051,-4.0568,-3.972,-3.9672,-3.9682,-3.9758,-3.9815,-3.9878,-3.9943,-4.0015,-4.0067,-4.0137,-4.0166,-4.0106,-3.9848,-3.9477,-3.9183,-3.895,-3.8735,-3.8707,-3.8707,-3.8707,-3.8634,-3.8285,-3.7658,-3.7437,-3.6776,-3.5954,-3.5261,-3.4857,-3.4417,-3.4045,-3.3807,-3.3807,-3.3807,-3.377,-3.3807,-3.3807,-3.3623,-3.3385,-3.3256,-3.3109,-3.2724,-3.2339,-3.2082,-3.2045,-3.1292,-3.1201,-3.1256,-3.1146,-3.1011,-3.1323,-3.1158,-3.0883,-3.065,-3.1347,-3.243,-3.3476,-3.3183,-3.2724,-3.2601,-3.2619,-3.3096,-3.3738,-3.4142,-3.4891,-3.559,-3.5178,-3.4803,-3.4549,-3.4782,-3.5543,-3.6357,-3.6538,-3.6894,-3.7248,-3.7418,-3.8044,-3.8569,-3.9266,-3.968,-3.9761,-3.991,-4.0489,-4.0941,-4.1442,-4.2231,-4.247,-4.2451,-4.247,-4.2561,-4.2727,-4.2671,-4.2396,-4.146,-4.0618,-4.157,-4.2488,-4.2506,-4.3167,-4.3167,-4.2616,-4.269,-4.2724,-4.2572,-4.2709,-4.2714,-4.2176,-4.1453,-4.0622,-4.0127,-4.1107,-4.2314,-4.2352,-4.2314,-4.1698,-4.1386,-3.9881,-3.9804,-3.9815,-3.9859,-3.9962,-4.0203,-4.038,-4.0451,-4.048,-4.052,-4.0405,-4.0078,-3.9539,-3.9151,-3.9017,-3.8866,-3.8707,-3.8707,-3.8707,-3.8707,-3.8634,-3.8377,-3.8062,-3.7786,-3.7437,-3.6597,-3.6156,-3.5646,-3.5206,-3.4798,-3.4394,-3.3862,-3.3807,-3.3807,-3.3807,-3.3807,-3.3733,-3.3733,-3.3715,-3.3697,-3.3587,-3.3183,-3.2981,-3.2669,-3.2228,-3.1788,-3.1953,-3.1751,-3.1715,-3.2021,-3.1874,-3.1861,-3.2063,-3.2449,-3.2944,-3.366,-3.3568,-3.3421,-3.3146,-3.3078,-3.3366,-3.4119,-3.5073,-3.6058,-3.6597,-3.5728,-3.5517,-3.6745,-3.6834,-3.6933,-3.7119,-3.7672,-3.778,-3.7955,-3.8145,-3.8944,-3.9713,-4.0335,-4.0683,-4.0653,-4.1041,-4.2077,-4.2403,-4.2399,-4.2799,-4.3296,-4.3479,-4.3479,-4.3461,-4.346,-4.3296,-4.302,-4.2653,-4.1864,-4.2433,-4.324,-4.3424,-4.3479,-4.3479,-4.3442,-4.3277,-4.3311,-4.3254,-4.3539,-4.3818,-4.3513,-4.2677,-4.1308,-4.0215,-4.185,-4.315,-4.3299,-4.3132,-4.2463,-4.224,-4.0096,-4.0067,-4.0067,-4.0086,-4.0144,-4.1036,-4.1361,-4.1284,-4.1361,-4.1351,-4.1033,-4.0133,-3.9401,-3.9087,-3.8866,-3.875,-3.8707,-3.8707,-3.8707,-3.8707,-3.8689,-3.8615,-3.845,-3.834,-3.8138,-3.7529,-3.7033,-3.6648,-3.6285,-3.5899,-3.5018,-3.4045,-3.4266,-3.399,-3.3935,-3.41,-3.3917,-3.3862,-3.3807,-3.3807,-3.3807,-3.3678,-3.3642,-3.3476,-3.3036,-3.2834,-3.3495,-3.2889,-3.2724,-3.3293,-3.3164,-3.3128,-3.3201,-3.3348,-3.3605,-3.3715,-3.3807,-3.3752,-3.3697,-3.3788,-3.4192,-3.511,-3.6138,-3.7037,-3.7301,-3.8086,-3.8337,-3.8235,-3.8076,-3.8235,-3.8218,-3.8302,-3.8483,-3.8385,-3.8595,-3.9189,-4.0127,-4.1335,-4.1645,-4.1535,-4.2029,-4.2855,-4.3149,-4.3019,-4.2982,-4.3424,-4.3479,-4.3479,-4.3479,-4.3461,-4.3461,-4.3369,-4.3387,-4.3149,-4.3185,-4.3479,-4.3479,-4.3479,-4.3479,-4.3479,-4.3442,-4.3532,-4.3566,-4.3736,-4.3867,-4.3913,-4.3812,-4.2507,-4.2017,-4.3188,-4.3912,-4.3782,-4.3763,-4.3355,-4.3318,-4.0225,-4.0225,-4.0225,-4.0225,-4.0282,-4.1132,-4.1504,-4.159,-4.2049,-4.1753,-4.0961,-3.9963,-3.9259,-3.8939,-3.878,-3.8707,-3.8707,-3.8707,-3.8707,-3.8707,-3.8707,-3.8707,-3.8707,-3.867,-3.8524,-3.8157,-3.7804,-3.7437,-3.707,-3.6721,-3.6119,-3.5459,-3.533,-3.5349,-3.5257,-3.4711,-3.4339,-3.3954,-3.3862,-3.3825,-3.3807,-3.3807,-3.3807,-3.3752,-3.3623,-3.3458,-3.3697,-3.3513,-3.3587,-3.3697,-3.3788,-3.3807,-3.3807,-3.3807,-3.3862,-3.3899,-3.3917,-3.41,-3.4509,-3.4651,-3.5128,-3.634,-3.7162,-3.7639,-3.79,-3.8487,-3.867,-3.8673,-3.8799,-3.8927,-3.8682,-3.8933,-3.9189,-3.8863,-3.9019,-3.9554,-4.0561,-4.1881,-4.254,-4.243,-4.2725,-4.3296,-4.3424,-4.3424,-4.3424,-4.3479,-4.3479,-4.3479,-4.3479,-4.3479,-4.3479,-4.3479,-4.3479,-4.3479,-4.3479,-4.3479,-4.3479,-4.3479,-4.3496,-4.3496,-4.3496,-4.3496,-4.3548,-4.3753,-4.3899,-4.3945,-4.3806,-4.3432,-4.3485,-4.3875,-4.4005,-4.3968,-4.3986,-4.4005,-4.4005,-4.032,-4.032,-4.032,-4.0444,-4.075,-4.1533,-4.203,-4.2335,-4.2908,-4.221,-4.0654,-3.9783,-3.9124,-3.881,-3.8707,-3.8707,-3.8707,-3.8707,-3.8707,-3.8707,-3.8707,-3.8707,-3.8707,-3.8689,-3.867,-3.856,-3.8267,-3.786,-3.7826,-3.7257,-3.7092,-3.7055,-3.6964,-3.6817,-3.6064,-3.5734,-3.5096,-3.4688,-3.4541,-3.4339,-3.4284,-3.4211,-3.3954,-3.3899,-3.3733,-3.3733,-3.3788,-3.3715,-3.3733,-3.3788,-3.3807,-3.3807,-3.3807,-3.3862,-3.4009,-3.4156,-3.4302,-3.4546,-3.5169,-3.5789,-3.6248,-3.7144,-3.7734,-3.8175,-3.8524,-3.8726,-3.8762,-3.9184,-3.9276,-3.9405,-3.9386,-3.9761,-3.9965,-3.9753,-3.9774,-4.0288,-4.1366,-4.2557,-4.3033,-4.3344,-4.3583,-4.3583,-4.3582,-4.3582,-4.3513,-4.3496,-4.3479,-4.3479,-4.3479,-4.3479,-4.3479,-4.3479,-4.3479,-4.3479,-4.3479,-4.3479,-4.3496,-4.3496,-4.3513,-4.3531,-4.3531,-4.3531,-4.3617,-4.3802,-4.3931,-4.3992,-4.3875,-4.367,-4.3763,-4.3968,-4.4005,-4.4005,-4.4005,-4.4005,-4.4005,-4.032,-4.032,-4.032,-4.075,-4.1533,-4.2374,-4.3119,-4.3624,-4.3746,-4.2746,-4.0903,-3.9823,-3.9141,-3.8897,-3.8909,-3.8836,-3.8707,-3.8707,-3.8707,-3.8707,-3.8707,-3.8707,-3.8707,-3.8707,-3.8707,-3.8707,-3.8524,-3.845,-3.856,-3.8303,-3.834,-3.8377,-3.812,-3.7698,-3.6431,-3.6303,-3.6248,-3.6211,-3.6064,-3.5569,-3.5151,-3.4986,-3.4669,-3.4376,-3.4247,-3.4302,-3.4321,-3.41,-3.4082,-3.4064,-3.3862,-3.3862,-3.399,-3.399,-3.4394,-3.5238,-3.5078,-3.5408,-3.6193,-3.6978,-3.7437,-3.7676,-3.8175,-3.8542,-3.867,-3.8744,-3.9016,-3.9509,-4.0519,-4.0889,-4.0855,-4.0689,-4.0726,-4.0671,-4.0689,-4.1162,-4.2224,-4.2971,-4.3465,-4.3703,-4.3703,-4.3736,-4.3734,-4.3718,-4.3582,-4.3531,-4.3496,-4.3479,-4.3479,-4.3479,-4.3479,-4.3479,-4.3479,-4.3479,-4.3479,-4.3479,-4.3496,-4.3513,-4.3531,-4.3565,-4.3634,-4.3667,-4.3769,-4.3902,-4.3947,-4.4008,-4.4005,-4.3968,-4.4005,-4.4005,-4.4005,-4.4005,-4.4005,-4.4061,-4.4135,-4.032,-4.032,-4.032,-4.1094,-4.2316,-4.266,-4.3242,-4.388,-4.3759,-4.307,-4.2039,-4.1066,-4.0193,-3.974,-3.9405,-3.9203,-3.8781,-3.8707,-3.8707,-3.8707,-3.8707,-3.8707,-3.8707,-3.8707,-3.8707,-3.8707,-3.8707,-3.8707,-3.867,-3.8707,-3.8707,-3.8689,-3.8634,-3.812,-3.7382,-3.7052,-3.6905,-3.6376,-3.6248,-3.6119,-3.5899,-3.5844,-3.5697,-3.5385,-3.5312,-3.5275,-3.522,-3.4853,-3.4619,-3.4527,-3.4321,-3.4192,-3.4504,-3.4614,-3.5073,-3.584,-3.5881,-3.6248,-3.7066,-3.7798,-3.829,-3.8389,-3.8484,-3.8723,-3.8726,-3.8707,-3.916,-4.016,-4.1588,-4.183,-4.1392,-4.165,-4.1689,-4.1401,-4.1511,-4.2092,-4.2877,-4.34,-4.3837,-4.382,-4.382,-4.3804,-4.3786,-4.3783,-4.3701,-4.3583,-4.3549,-4.3496,-4.3496,-4.3479,-4.3479,-4.3479,-4.3479,-4.3479,-4.3479,-4.3479,-4.3513,-4.3548,-4.36,-4.3634,-4.3703,-4.3769,-4.3867,-4.3945,-4.3976,-4.4005,-4.4005,-4.4005,-4.4005,-4.4005,-4.4116,-4.4079,-4.4005,-4.4172,-4.4395,-4.0098,-4.0036,-4.0017,-4.1039,-4.2521,-4.2764,-4.3345,-4.4037,-4.3611,-4.3062,-4.2541,-4.1748,-4.1006,-4.0388,-3.9974,-3.9751,-3.9093,-3.8781,-3.8707,-3.8707,-3.8707,-3.8707,-3.8707,-3.8726,-3.8707,-3.8726,-3.8726,-3.8707,-3.8707,-3.8707,-3.8707,-3.8707,-3.8707,-3.8414,-3.801,-3.7841,-3.7716,-3.7367,-3.7331,-3.711,-3.6835,-3.6666,-3.6541,-3.6285,-3.6193,-3.6211,-3.6101,-3.5826,-3.5426,-3.5279,-3.5092,-3.4904,-3.5326,-3.5579,-3.5942,-3.6503,-3.7143,-3.7437,-3.8055,-3.8365,-3.8696,-3.8722,-3.8765,-3.8912,-3.8989,-3.8937,-3.9792,-4.0919,-4.2379,-4.2366,-4.2023,-4.2357,-4.2251,-4.1928,-4.2369,-4.2934,-4.3238,-4.3779,-4.3902,-4.3867,-4.3883,-4.3867,-4.3853,-4.3835,-4.3783,-4.3684,-4.36,-4.3584,-4.355,-4.3496,-4.3479,-4.3479,-4.3479,-4.3479,-4.3479,-4.3479,-4.3531,-4.36,-4.3651,-4.3703,-4.3783,-4.3867,-4.3945,-4.3989,-4.3989,-4.4005,-4.4005,-4.4005,-4.4005,-4.4172,-4.4413,-4.4302,-4.4079,-4.4265,-4.4581,-3.9739,-3.9508,-3.9521,-4.0681,-4.2265,-4.2751,-4.3612,-4.4594,-4.3371,-4.2809,-4.2674,-4.1772,-4.133,-4.1038,-4.0396,-3.9974,-3.9698,-3.9093,-3.8836,-3.8726,-3.8707,-3.8744,-3.8836,-3.8872,-3.9093,-3.8964,-3.8982,-3.9221,-3.8836,-3.8707,-3.8707,-3.8762,-3.8872,-3.8799,-3.8762,-3.8707,-3.8579,-3.8322,-3.8193,-3.7936,-3.7643,-3.7529,-3.7272,-3.6982,-3.6817,-3.678,-3.667,-3.645,-3.634,-3.6266,-3.6207,-3.6305,-3.6389,-3.6417,-3.6975,-3.7645,-3.8397,-3.8586,-3.8715,-3.8859,-3.9039,-3.9117,-3.9095,-3.9446,-3.9622,-3.9565,-4.0406,-4.14,-4.2566,-4.2575,-4.2543,-4.2532,-4.2519,-4.2728,-4.3083,-4.3426,-4.3656,-4.3851,-4.3899,-4.3913,-4.3942,-4.3961,-4.395,-4.3934,-4.4182,-4.4153,-4.4107,-4.4021,-4.3896,-4.3533,-4.3515,-4.3479,-4.3479,-4.3479,-4.3479,-4.3496,-4.3583,-4.3651,-4.3736,-4.3786,-4.3883,-4.3992,-4.4051,-4.4079,-4.4036,-4.4005,-4.4005,-4.4005,-4.4005,-4.4246,-4.4559,-4.4711,-4.4525,-4.4488,-4.4729,-3.9575,-3.9539,-4.0128,-4.1004,-4.2121,-4.3187,-4.39,-4.4136,-4.3732,-4.3505,-4.3227,-4.2943,-4.2415,-4.1956,-4.1699,-4.091,-4.0175,-3.9606,-3.9166,-3.8964,-3.8854,-3.9129,-3.9368,-3.9588,-3.9882,-4.0178,-4.0251,-3.9918,-3.946,-3.9093,-3.8707,-3.8744,-3.9203,-3.9386,-3.9478,-3.9533,-3.9184,-3.8872,-3.8762,-3.8524,-3.8358,-3.8248,-3.801,-3.7881,-3.779,-3.7771,-3.7734,-3.7331,-3.7202,-3.7144,-3.6654,-3.6587,-3.7245,-3.7325,-3.7696,-3.8416,-3.8781,-3.8892,-3.8925,-3.8954,-3.9223,-3.9771,-3.9948,-3.9904,-4.0141,-4.0539,-4.12,-4.2159,-4.2922,-4.3116,-4.3011,-4.2924,-4.291,-4.3102,-4.3455,-4.3707,-4.3883,-4.3897,-4.3945,-4.3961,-4.3989,-4.3989,-4.4013,-4.4522,-4.4751,-4.4718,-4.4652,-4.4564,-4.4239,-4.3858,-4.355,-4.3532,-4.3496,-4.3515,-4.3496,-4.3496,-4.36,-4.3703,-4.3816,-4.3974,-4.4185,-4.4288,-4.4244,-4.4244,-4.424,-4.4124,-4.4005,-4.4036,-4.4113,-4.4318,-4.4634,-4.4875,-4.5026,-4.5082,-4.5342,-3.9285,-3.929,-4.0058,-4.1026,-4.2184,-4.3441,-4.3942,-4.3812,-4.3798,-4.3666,-4.3496,-4.3442,-4.3222,-4.2782,-4.2359,-4.1589,-4.0451,-3.9992,-3.9588,-3.9386,-3.9148,-3.9735,-4.012,-4.0396,-4.0598,-4.1003,-4.1003,-4.0506,-3.9955,-3.9184,-3.8707,-3.8781,-3.9515,-3.9827,-3.9845,-3.9772,-3.9625,-3.9221,-3.8927,-3.8762,-3.8707,-3.8707,-3.8707,-3.8707,-3.8707,-3.8707,-3.867,-3.8083,-3.8006,-3.797,-3.7423,-3.7554,-3.8095,-3.8219,-3.8331,-3.8919,-3.8956,-3.9266,-3.9489,-3.9592,-4.0032,-4.0585,-4.1078,-4.1308,-4.1223,-4.1415,-4.2171,-4.2996,-4.3491,-4.3806,-4.3568,-4.337,-4.3357,-4.3362,-4.3635,-4.3908,-4.3942,-4.3974,-4.3989,-4.3989,-4.4005,-4.4005,-4.4308,-4.4944,-4.5298,-4.5208,-4.5232,-4.533,-4.4801,-4.4125,-4.3781,-4.3583,-4.3549,-4.3515,-4.3532,-4.3615,-4.3781,-4.3908,-4.4014,-4.4225,-4.4462,-4.457,-4.4538,-4.4511,-4.4471,-4.4402,-4.4348,-4.4233,-4.43,-4.4658,-4.5254,-4.5749,-4.6027,-4.6011,-4.6382,-3.8921,-3.8796,-3.9643,-4.0956,-4.2336,-4.3479,-4.3781,-4.3513,-4.3549,-4.3496,-4.3479,-4.3479,-4.3478,-4.3204,-4.2817,-4.1974,-4.102,-4.0396,-4.0029,-3.99,-3.9717,-4.0194,-4.0965,-4.1224,-4.1442,-4.1334,-4.1297,-4.1368,-4.0267,-3.9662,-3.9313,-3.8964,-3.9863,-4.0414,-4.0506,-4.0469,-4.0322,-3.9974,-3.935,-3.8927,-3.8744,-3.8707,-3.8707,-3.8707,-3.8707,-3.8707,-3.8707,-3.867,-3.8689,-3.8701,-3.8722,-3.8719,-3.9024,-3.9114,-3.924,-3.9477,-3.9649,-3.9927,-4.0298,-4.0428,-4.0925,-4.1594,-4.2352,-4.2522,-4.2433,-4.2343,-4.3008,-4.3417,-4.3878,-4.3841,-4.3621,-4.3472,-4.3423,-4.3534,-4.3754,-4.3936,-4.3974,-4.3989,-4.3989,-4.4116,-4.4451,-4.4488,-4.4804,-4.5459,-4.6275,-4.5941,-4.5943,-4.6155,-4.5769,-4.4925,-4.4286,-4.3925,-4.3617,-4.3617,-4.3701,-4.3798,-4.3999,-4.4132,-4.4246,-4.4471,-4.472,-4.4819,-4.4837,-4.4825,-4.4831,-4.4852,-4.4823,-4.4777,-4.5025,-4.5742,-4.6314,-4.6836,-4.7029,-4.7004,-4.7274,-3.8765,-3.8854,-4.023,-4.1389,-4.2359,-4.3251,-4.3582,-4.3479,-4.3479,-4.3479,-4.3479,-4.3479,-4.3479,-4.3406,-4.3276,-4.2451,-4.1279,-4.0983,-4.0451,-4.0212,-4.0084,-4.0928,-4.1791,-4.2047,-4.2286,-4.2763,-4.28,-4.2121,-4.1203,-4.0671,-4.0469,-4.0508,-4.113,-4.146,-4.1479,-4.1479,-4.124,-4.0653,-4.0047,-3.9239,-3.8744,-3.8707,-3.8707,-3.8707,-3.8726,-3.8744,-3.8759,-3.8768,-3.878,-3.8773,-3.8877,-3.9293,-3.9987,-4.0034,-4.0401,-4.0828,-4.0828,-4.0977,-4.1163,-4.1367,-4.1739,-4.2222,-4.2816,-4.3188,-4.3373,-4.341,-4.354,-4.3856,-4.3968,-4.3838,-4.3726,-4.3615,-4.354,-4.3708,-4.3838,-4.3931,-4.4005,-4.4005,-4.4005,-4.4358,-4.4801,-4.5265,-4.5581,-4.6083,-4.6865,-4.72,-4.722,-4.7259,-4.7019,-4.6392,-4.5269,-4.4741,-4.3882,-4.3769,-4.3909,-4.406,-4.4303,-4.4397,-4.4506,-4.4739,-4.4985,-4.5082,-4.5156,-4.518,-4.5197,-4.5407,-4.5558,-4.5493,-4.59,-4.6709,-4.7143,-4.7595,-4.8012,-4.8081,-4.8298,-3.8707,-3.8909,-4.0416,-4.157,-4.2359,-4.3149,-4.3479,-4.3479,-4.3479,-4.3479,-4.3479,-4.3479,-4.3479,-4.3479,-4.3496,-4.291,-4.1737,-4.1662,-4.146,-4.1111,-4.0983,-4.1809,-4.2396,-4.2782,-4.3002,-4.3386,-4.258,-4.1882,-4.1479,-4.0855,-4.0469,-4.0873,-4.1625,-4.2341,-4.2341,-4.2249,-4.1937,-4.1077,-4.0634,-3.9882,-3.8964,-3.8762,-3.8707,-3.8707,-3.8964,-3.9016,-3.8952,-3.8998,-3.9083,-3.9161,-3.9287,-4.004,-4.0669,-4.0903,-4.1126,-4.1367,-4.1534,-4.1757,-4.1999,-4.224,-4.2482,-4.2983,-4.3318,-4.3708,-4.3745,-4.3763,-4.3763,-4.4005,-4.4005,-4.3912,-4.3912,-4.3819,-4.3801,-4.3912,-4.3931,-4.3986,-4.4005,-4.4005,-4.4023,-4.4135,-4.5119,-4.6661,-4.6828,-4.6698,-4.7367,-4.746,-4.7664,-4.8147,-4.7961,-4.7735,-4.6628,-4.5698,-4.4976,-4.4547,-4.4716,-4.474,-4.4701,-4.4763,-4.4852,-4.503,-4.5272,-4.537,-4.5438,-4.5937,-4.6282,-4.6384,-4.6458,-4.6474,-4.7005,-4.7853,-4.8091,-4.825,-4.8664,-4.9047,-4.9168,-3.8707,-3.8946,-4.0416,-4.1497,-4.2231,-4.3112,-4.3479,-4.3479,-4.3479,-4.3479,-4.3479,-4.3479,-4.3479,-4.3479,-4.3442,-4.291,-4.2451,-4.2139,-4.2121,-4.2139,-4.2103,-4.2543,-4.2965,-4.3406,-4.3461,-4.302,-4.2249,-4.1479,-4.0818,-4.0671,-4.0781,-4.0616,-4.1387,-4.2488,-4.2451,-4.2378,-4.2176,-4.1609,-4.1077,-4.0416,-3.9627,-3.8909,-3.8961,-3.9182,-3.9436,-3.9574,-3.951,-3.9592,-3.9733,-3.9849,-4.0104,-4.0884,-4.1485,-4.1812,-4.2031,-4.2217,-4.2307,-4.2552,-4.2779,-4.2965,-4.3355,-4.3745,-4.3949,-4.4005,-4.4005,-4.4005,-4.4005,-4.4005,-4.4005,-4.4005,-4.4005,-4.4005,-4.4005,-4.4005,-4.4005,-4.4005,-4.4005,-4.4135,-4.4228,-4.4283,-4.5807,-4.7553,-4.7831,-4.7664,-4.7683,-4.7757,-4.8017,-4.8519,-4.8779,-4.8496,-4.7863,-4.7061,-4.6382,-4.6053,-4.5607,-4.5496,-4.5377,-4.5373,-4.5471,-4.5485,-4.5571,-4.5821,-4.6368,-4.7338,-4.7588,-4.7424,-4.7566,-4.7689,-4.8312,-4.8869,-4.8998,-4.9059,-4.9284,-4.9641,-4.9822,-3.8707,-3.8854,-4.0416,-4.1187,-4.1552,-4.2855,-4.3479,-4.3479,-4.3479,-4.3479,-4.3479,-4.3479,-4.3479,-4.3479,-4.3479,-4.3112,-4.2598,-4.2451,-4.2341,-4.2286,-4.247,-4.2892,-4.3276,-4.3479,-4.3479,-4.3002,-4.2433,-4.2029,-4.124,-4.1479,-4.1809,-4.1791,-4.2578,-4.3185,-4.3222,-4.3075,-4.2763,-4.2194,-4.1919,-4.1479,-4.0708,-4.0118,-3.9761,-3.9813,-3.9878,-4.0366,-4.0742,-4.1061,-4.111,-4.1137,-4.126,-4.1931,-4.245,-4.2791,-4.2996,-4.322,-4.3293,-4.3326,-4.3553,-4.3578,-4.3893,-4.3912,-4.4005,-4.4005,-4.4005,-4.4005,-4.4005,-4.4005,-4.4005,-4.4005,-4.4005,-4.4005,-4.4005,-4.4005,-4.4005,-4.4005,-4.4005,-4.4562,-4.5024,-4.5621,-4.6661,-4.785,-4.8537,-4.8444,-4.8444,-4.8481,-4.8463,-4.889,-4.8907,-4.8903,-4.893,-4.8356,-4.7663,-4.6712,-4.5938,-4.6189,-4.6175,-4.6139,-4.6096,-4.61,-4.6194,-4.6395,-4.7086,-4.8279,-4.8432,-4.8203,-4.8422,-4.8841,-4.91,-4.9549,-4.9761,-4.9917,-5.0062,-5.0111,-5.0202]},{"header":{"parameterUnit":"m.s-1","parameterCategory":1,"la1":31.0,"la2":29.5877,"lo1":-88.7671,"lo2":-86.6584,"dy":0.0162,"dx":0.0185,"nx":115,"ny":88,"refTime":"2026-05-07T00:00:00:Z","depth":0,"parameterNumber":3,"parameterNumberName":"V-component_of_WINDS"},"data":[0.0,0.0,0.0,0.0,0.0,0.0,0.0,0.0,0.0,0.0,0.0,0.0,0.0,0.0,0.0,0.0,0.0,0.0,0.0,0.0,0.0,0.0,0.0,0.0,0.0,0.0,0.0,0.0,0.0,0.0,0.0,0.0,0.0,0.0,0.0,0.0,0.0,0.0,0.0,0.0,0.0,0.0,0.0,0.0,0.0,0.0,0.0,0.0,0.0,0.0,0.0,0.0,0.0,0.0,0.0,0.0,0.0,0.0,0.0,0.0,0.0,0.0,0.0,0.0,0.0,0.0,0.0,0.0,0.0,0.0,0.0,0.0,0.0,0.0,0.0,0.0,0.0,0.0,0.0,0.0,0.0,0.0,0.0,0.0,0.0,0.0,0.0,0.0,0.0,0.0,0.0,0.0,0.0,0.0,0.0,0.0,0.0,0.0,0.0,0.0,0.0,0.0,0.0,0.0,0.0,0.0,0.0,0.0,0.0,0.0,0.0,0.0,0.0,0.0,0.0,0.0,0.0,0.0,0.0,0.0,0.0,0.0,0.0,0.0,0.0,0.0,0.0,0.0,0.0,0.0,0.0,0.0,0.0,0.0,0.0,0.0,0.0,0.0,0.0,0.0,0.0,0.0,0.0,0.0,0.0,0.0,0.0,0.0,0.0,0.0,0.0,0.0,0.0,0.0,0.0,0.0,0.0,0.0,0.0,0.0,0.0,0.0,0.0,0.0,0.0,0.0,0.0,0.0,0.0,0.0,0.0,0.0,0.0,0.0,0.0,0.0,0.0,0.0,0.0,0.0,0.0,0.0,0.0,0.0,0.0,0.0,0.0,0.0,0.0,0.0,0.0,0.0,0.0,0.0,0.0,0.0,0.0,0.0,0.0,0.0,0.0,0.0,0.0,0.0,0.0,0.0,0.0,0.0,0.0,0.0,0.0,0.0,0.0,0.0,0.0,0.0,0.0,0.0,0.0,0.0,0.0,0.0,0.0,0.0,0.0,0.0,0.0,0.0,0.0,0.0,0.0,0.0,0.0,0.0,0.0,0.0,0.0,0.0,0.0,0.0,0.0,0.0,0.0,0.0,0.0,0.0,0.0,0.0,0.0,0.0,0.0,0.0,0.0,0.0,0.0,0.0,0.0,0.0,0.0,0.0,0.0,0.0,0.0,0.0,0.0,0.0,0.0,0.0,0.0,0.0,0.0,0.0,0.0,0.0,0.0,0.0,0.0,0.0,0.0,0.0,0.0,0.0,0.0,0.0,0.0,0.0,0.0,0.0,0.0,0.0,0.0,0.0,0.0,0.0,0.0,0.0,0.0,0.0,0.0,0.0,0.0,0.0,0.0,0.0,0.0,0.0,0.0,0.0,0.0,0.0,0.0,0.0,0.0,0.0,0.0,0.0,0.0,0.0,0.0,0.0,0.0,0.0,0.0,0.0,0.0,0.0,0.0,0.0,0.0,0.0,0.0,0.0,0.0,0.0,0.0,0.0,0.0,0.0,0.0,0.0,0.0,0.0,0.0,0.0,0.0,0.0,0.0,0.0,0.0,0.0,0.0,0.0,0.0,0.0,0.0,0.0,0.0,0.0,0.0,0.0,0.0,0.0,0.0,0.0,0.0,0.0,0.0,0.0,0.0,0.0,0.0,0.0,0.0,0.0,0.0,0.0,0.0,0.0,0.0,0.0,0.0,0.0,0.0,0.0,0.0,0.0,0.0,0.0,0.0,0.0,0.0,0.0,0.0,0.0,0.0,0.0,0.0,0.0,0.0,0.0,0.0,0.0,0.0,0.0,0.0,0.0,0.0,0.0,0.0,0.0,0.0,0.0,0.0,0.0,0.0,0.0,0.0,0.0,0.0,0.0,0.0,0.0,0.0,0.0,0.0,0.0,0.0,0.0,0.0,0.0,0.0,0.0,0.0,0.0,0.0,0.0,0.0,0.0,0.0,0.0,0.0,0.0,0.0,0.0,0.0,0.0,0.0,0.0,0.0,0.0,0.0,0.0,0.0,0.0,0.0,0.0,0.0,0.0,0.0,0.0,0.0,0.0,0.0,0.0,0.0,0.0,0.0,0.0,0.0,0.0,0.0,0.0,0.0,0.0,0.0,0.0,0.0,0.0,0.0,0.0,0.0,0.0,0.0,0.0,0.0,0.0,0.0,0.0,0.0,0.0,0.0,0.0,0.0,0.0,0.0,0.0,0.0,0.0,0.0,0.0,0.0,0.0,0.0,0.0,0.0,0.0,0.0,0.0,0.0,0.0,0.0,0.0,0.0,0.0,0.0,0.0,0.0,0.0,0.0,0.0,0.0,0.0,0.0,0.0,0.0,0.0,0.0,0.0,0.0,0.0,0.0,0.0,0.0,0.0,0.0,0.0,0.0,0.0,0.0,0.0,0.0,0.0,0.0,0.0,0.0,0.0,0.0,0.0,0.0,0.0,0.0,0.0,0.0,0.0,0.0,0.0,0.0,0.0,0.0,0.0,0.0,0.0,0.0,0.0,0.0,0.0,0.0,0.0,0.0,0.0,0.0,0.0,0.0,0.0,0.0,0.0,0.0,0.0,0.0,0.0,0.0,0.0,0.0,0.0,0.0,0.0,0.0,0.0,0.0,0.0,0.0,0.0,0.0,0.0,0.0,0.0,0.0,0.0,0.0,0.0,0.0,0.0,0.0,0.0,0.0,0.0,0.0,0.0,0.0,0.0,0.0,0.0,0.0,0.0,0.0,0.0,0.0,0.0,0.0,0.0,0.0,0.0,0.0,0.0,0.0,0.0,0.0,0.0,0.0,0.0,0.0,0.0,0.0,0.0,0.0,0.0,0.0,0.0,0.0,0.0,0.0,0.0,0.0,0.0,0.0,0.0,0.0,0.0,0.0,0.0,0.0,0.0,0.0,0.0,0.0,0.0,0.0,0.0,0.0,0.0,0.0,0.0,0.0,0.0,0.0,0.0,0.0,0.0,0.0,0.0,0.0,0.0,0.0,0.0,0.0,0.0,0.0,0.0,0.0,0.0,0.0,0.0,0.0,0.0,0.0,0.0,0.0,0.0,0.0,0.0,0.0,0.0,0.0,0.0,0.0,0.0,0.0,0.0,0.0,0.0,0.0,0.0,0.0,0.0,0.0,0.0,0.0,0.0,0.0,0.0,0.0,0.0,0.0,0.0,0.0,0.0,0.0,0.0,0.0,0.0,0.0,0.0,0.0,0.0,0.0,0.0,0.0,0.0,0.0,0.0,0.0,0.0,0.0,0.0,0.0,0.0,0.0,0.0,0.0,0.0,0.0,0.0,0.0,0.0,0.0,0.0,0.0,0.0,0.0,0.0,0.0,0.0,0.0,0.0,0.0,0.0,0.0,0.0,0.0,0.0,0.0,0.0,0.0,0.0,0.0,0.0,0.0,0.0,0.0,0.0,0.0,0.0,0.0,0.0,0.0,0.0,0.0,0.0,0.0,0.0,0.0,0.0,0.0,0.0,0.0,0.0,0.0,0.0,0.0,0.0,0.0,0.0,0.0,0.0,0.0,0.0,0.0,0.0,0.0,0.0,0.0,0.0,0.0,0.0,0.0,0.0,0.0,0.0,0.0,0.0,0.0,0.0,0.0,0.0,0.0,0.0,0.0,0.0,0.0,0.0,0.0,0.0,0.0,0.0,0.0,0.0,0.0,0.0,0.0,0.0,0.0,0.0,0.0,0.0,0.0,0.0,0.0,0.0,0.0,0.0,0.0,0.0,0.0,0.0,0.0,0.0,0.0,0.0,0.0,0.0,0.0,0.0,0.0,0.0,0.0,0.0,0.0,0.0,0.0,0.0,0.0,0.0,0.0,0.0,0.0,0.0,0.0,0.0,0.0,0.0,0.0,0.0,0.0,0.0,0.0,0.0,0.0,0.0,0.0,0.0,0.0,0.0,0.0,0.0,0.0,0.0,0.0,0.0,0.0,0.0,0.0,0.0,0.0,0.0,0.0,0.0,0.0,0.0,0.0,0.0,0.0,0.0,0.0,0.0,0.0,0.0,0.0,0.0,0.0,0.0,0.0,0.0,0.0,0.0,0.0,0.0,0.0,0.0,0.0,0.0,0.0,0.0,0.0,0.0,0.0,0.0,0.0,0.0,0.0,0.0,0.0,0.0,0.0,0.0,0.0,0.0,0.0,0.0,0.0,0.0,0.0,0.0,0.0,0.0,0.0,0.0,0.0,0.0,0.0,0.0,0.0,0.0,0.0,0.0,0.0,0.0,0.0,0.0,0.0,0.0,0.0,0.0,0.0,0.0,0.0,0.0,-0.3753,0.0,0.0,0.0,0.0,0.0,0.0,0.0,0.0,0.0,0.0,0.0,0.0,0.0,0.0,0.0,0.0,0.0,0.0,0.0,0.0,0.0,0.0,0.0,0.0,0.0,0.0,0.0,0.0,0.0,0.0,0.0,0.0,0.0,0.0,0.0,0.0,0.0,0.0,0.0,0.0,0.0,0.0,0.0,0.0,0.0,0.0,0.0,0.0,0.0,0.0,0.0,0.0,0.0,0.0,0.0,0.0,0.0,0.0,0.0,0.0,0.0,0.0,0.0,0.0,0.0,0.0,0.0,0.0,0.0,0.0,0.0,0.0,0.0,0.0,0.0,0.0,0.0,0.0,0.0,0.0,0.0,0.0,0.0,0.0,0.0,0.0,0.0,0.0,0.0,0.0,0.0,0.0,0.0,0.0,0.0,0.0,0.0,0.0,0.0,0.0,0.0,0.0,0.0,0.0,0.0,0.0,0.0,0.0,0.0,0.0,-0.3749,-0.3597,-0.385,-0.3967,-0.3896,0.0,0.0,0.0,0.0,0.0,0.0,0.0,0.0,0.0,0.0,0.0,0.0,0.0,0.0,0.0,0.0,0.0,0.0,0.0,0.0,0.0,0.0,0.0,0.0,0.0,0.0,0.0,0.0,0.0,0.0,0.0,0.0,0.0,0.0,0.0,0.0,0.0,0.0,0.0,0.0,0.0,0.0,0.0,0.0,0.0,0.0,0.0,0.0,0.0,0.0,0.0,0.0,0.0,0.0,0.0,0.0,0.0,0.0,0.0,0.0,0.0,0.0,0.0,0.0,0.0,0.0,0.0,0.0,0.0,0.0,0.0,0.0,0.0,0.0,0.0,0.0,0.0,0.0,0.0,0.0,0.0,0.0,0.0,0.0,0.0,0.0,0.0,0.0,0.0,0.0,0.0,0.0,0.0,0.0,0.0,0.0,0.0,0.0,0.0,0.0,0.0,0.0,0.0,0.0,0.0,0.0,0.0,0.0,0.0,0.0,0.0,0.0,-0.4269,-0.4352,-0.4056,0.0,0.0,0.0,0.0,0.0,0.0,0.0,0.0,0.0,0.0,0.0,0.0,0.0,0.0,0.0,0.0,0.0,0.0,0.0,0.0,0.0,0.0,0.0,0.0,0.0,0.0,0.0,0.0,0.0,0.0,0.0,0.0,0.0,0.0,0.0,0.0,0.0,0.0,0.0,0.0,0.0,0.0,0.0,0.0,0.0,0.0,0.0,0.0,0.0,0.0,0.0,0.0,0.0,0.0,0.0,0.0,0.0,0.0,0.0,0.0,0.0,0.0,0.0,0.0,0.0,0.0,0.0,0.0,0.0,0.0,0.0,0.0,0.0,0.0,0.0,0.0,0.0,0.0,0.0,0.0,0.0,0.0,0.0,0.0,0.0,0.0,0.0,0.0,0.0,0.0,0.0,0.0,0.0,0.0,0.0,0.0,0.0,0.0,0.0,0.0,0.0,0.0,0.0,0.0,0.0,0.0,0.0,0.0,0.0,0.0,-0.4223,-0.4691,-0.473,0.0,-0.4516,0.0,0.0,0.0,0.0,0.0,0.0,0.0,0.0,0.0,0.0,0.0,0.0,0.0,0.0,0.0,0.0,0.0,0.0,0.0,0.0,0.0,0.0,0.0,0.0,0.0,0.0,0.0,0.0,0.0,0.0,0.0,0.0,0.0,0.0,0.0,0.0,0.0,0.0,0.0,0.0,0.0,0.0,0.0,0.0,0.0,0.0,0.0,0.0,0.0,0.0,0.0,0.0,0.0,0.0,0.0,0.0,0.0,0.0,0.0,0.0,0.0,0.0,0.0,0.0,0.0,0.0,0.0,0.0,0.0,0.0,0.0,0.0,0.0,0.0,0.0,0.0,0.0,0.0,0.0,0.0,0.0,0.0,0.0,0.0,0.0,0.0,0.0,0.0,0.0,0.0,0.0,0.0,0.0,0.0,0.0,0.0,0.0,0.0,0.0,0.0,0.0,0.0,0.0,0.0,0.0,0.0,0.0,0.0,0.0,0.0,0.0,-0.4784,-0.4941,-0.4937,0.0,0.0,0.0,0.0,0.0,0.0,0.0,0.0,0.0,0.0,0.0,0.0,0.0,0.0,0.0,0.0,0.0,0.0,0.0,0.0,0.0,0.0,0.0,0.0,0.0,0.0,0.0,0.0,0.0,0.0,0.0,0.0,0.0,0.0,0.0,0.0,0.0,0.0,0.0,0.0,0.0,0.0,0.0,0.0,0.0,0.0,0.0,0.0,0.0,0.0,0.0,0.0,0.0,0.0,0.0,0.0,0.0,0.0,0.0,0.0,0.0,0.0,0.0,0.0,0.0,0.0,0.0,0.0,0.0,0.0,0.0,0.0,0.0,0.0,0.0,0.0,0.0,0.0,0.0,0.0,0.0,0.0,0.0,0.0,0.0,0.0,0.0,0.0,0.0,0.0,0.0,0.0,0.0,0.0,0.0,0.0,0.0,0.0,0.0,0.0,0.0,0.0,0.0,0.0,0.0,0.0,0.0,0.0,0.0,0.0,-0.429,0.0,-0.499,-0.5213,-0.5159,-0.4808,0.0,0.0,0.0,0.0,0.0,0.0,0.0,0.0,0.0,0.0,0.0,0.0,0.0,0.0,0.0,0.0,0.0,0.0,0.0,0.0,0.0,0.0,0.0,0.0,0.0,0.0,0.0,0.0,0.0,0.0,0.0,0.0,0.0,0.0,0.0,0.0,0.0,0.0,0.0,0.0,0.0,0.0,0.0,0.0,0.0,0.0,0.0,0.0,0.0,0.0,0.0,0.0,0.0,0.0,0.0,0.0,0.0,0.0,0.0,0.0,0.0,0.0,0.0,0.0,0.0,0.0,0.0,0.0,0.0,0.0,0.0,0.0,0.0,0.0,0.0,0.0,0.0,0.0,0.0,0.0,0.0,0.0,0.0,0.0,0.0,0.0,0.0,0.0,0.0,0.0,0.0,0.0,0.0,0.0,0.0,0.0,0.0,0.0,0.0,0.0,0.0,0.0,0.0,0.0,0.0,0.0,0.0,0.0,0.0,-0.4512,-0.4772,-0.5523,-0.5578,-0.5335,0.0,0.0,0.0,0.0,0.0,0.0,0.0,0.0,0.0,0.0,0.0,0.0,0.0,0.0,0.0,0.0,0.0,0.0,0.0,0.0,0.0,0.0,0.0,0.0,0.0,0.0,0.0,0.0,0.0,0.0,0.0,0.0,0.0,0.0,0.0,0.0,0.0,0.0,0.0,0.0,0.0,0.0,0.0,0.0,0.0,0.0,0.0,0.0,0.0,0.0,0.0,0.0,0.0,0.0,0.0,0.0,0.0,0.0,0.0,0.0,0.0,0.0,0.0,0.0,0.0,0.0,0.0,0.0,0.0,0.0,0.0,0.0,0.0,0.0,0.0,0.0,0.0,0.0,0.0,0.0,0.0,0.0,0.0,0.0,0.0,0.0,0.0,0.0,0.0,0.0,0.0,0.0,0.0,0.0,0.0,0.0,0.0,0.0,0.0,0.0,0.0,0.0,0.0,0.0,0.0,0.0,0.0,0.0,0.0,-0.4379,-0.4608,-0.5104,-0.5854,-0.5218,-0.483,0.0,0.0,0.0,0.0,0.0,0.0,0.0,0.0,0.0,0.0,0.0,0.0,0.0,0.0,0.0,0.0,0.0,0.0,0.0,0.0,0.0,0.0,0.0,0.0,0.0,0.0,0.0,0.0,0.0,0.0,0.0,0.0,0.0,0.0,0.0,0.0,0.0,0.0,0.0,0.0,0.0,0.0,0.0,0.0,0.0,0.0,0.0,0.0,0.0,0.0,0.0,0.0,0.0,0.0,0.0,0.0,0.0,0.0,0.0,0.0,0.0,0.0,0.0,0.0,0.0,0.0,0.0,0.0,0.0,0.0,0.0,0.0,0.0,0.0,0.0,0.0,0.0,0.0,0.0,0.0,0.0,0.0,0.0,0.0,0.0,0.0,0.0,0.0,0.0,0.0,0.0,0.0,0.0,0.0,0.0,0.0,0.0,0.0,0.0,0.0,0.0,0.0,0.0,0.0,0.0,0.0,0.0,0.0,0.0,-0.4451,0.0,-0.5552,0.0,-0.504,-0.4584,0.0,0.0,0.0,0.0,0.0,0.0,0.0,0.0,0.0,0.0,0.0,0.0,0.0,0.0,0.0,0.0,0.0,0.0,0.0,0.0,0.0,0.0,0.0,0.0,0.0,0.0,0.0,0.0,0.0,0.0,0.0,0.0,0.0,0.0,0.0,0.0,0.0,0.0,0.0,0.0,0.0,0.0,0.0,0.0,0.0,0.0,0.0,0.0,0.0,0.0,0.0,0.0,0.0,0.0,0.0,0.0,0.0,0.0,0.0,0.0,0.0,0.0,0.0,0.0,0.0,0.0,0.0,0.0,0.0,0.0,0.0,0.0,0.0,0.0,0.0,0.0,0.0,0.0,0.0,0.0,0.0,0.0,0.0,0.0,0.0,0.0,0.0,0.0,0.0,0.0,0.0,0.0,0.0,0.0,0.0,0.0,0.0,0.0,0.0,0.0,0.0,0.0,0.0,0.0,0.0,0.0,0.0,0.0,-0.3892,-0.4947,-0.5818,-0.6053,-0.5708,-0.5169,-0.4614,0.0,0.0,0.0,0.0,0.0,0.0,0.0,0.0,0.0,0.0,0.0,0.0,0.0,0.0,0.0,0.0,0.0,0.0,0.0,0.0,0.0,0.0,0.0,0.0,0.0,0.0,0.0,0.0,0.0,0.0,0.0,0.0,0.0,0.0,0.0,0.0,0.0,0.0,0.0,0.0,0.0,0.0,0.0,0.0,0.0,0.0,0.0,0.0,0.0,0.0,0.0,0.0,0.0,0.0,0.0,0.0,0.0,0.0,0.0,0.0,0.0,0.0,0.0,0.0,0.0,0.0,0.0,0.0,0.0,0.0,0.0,0.0,0.0,0.0,0.0,0.0,0.0,0.0,0.0,0.0,0.0,0.0,0.0,0.0,0.0,0.0,0.0,0.0,0.0,0.0,0.0,0.0,0.0,0.0,0.0,0.0,0.0,0.0,0.0,0.0,0.0,0.0,0.0,0.0,0.0,0.0,0.0,0.0,0.0,-0.4662,-0.5428,-0.5911,-0.6059,-0.5144,-0.4649,0.0,0.0,0.0,0.0,0.0,0.0,0.0,0.0,0.0,0.0,0.0,0.0,0.0,0.0,0.0,0.0,0.0,0.0,0.0,0.0,0.0,0.0,0.0,0.0,0.0,0.0,0.0,0.0,0.0,0.0,0.0,0.0,0.0,0.0,0.0,0.0,0.0,0.0,0.0,0.0,0.0,0.0,0.0,0.0,0.0,0.0,0.0,0.0,0.0,0.0,0.0,0.0,0.0,0.0,0.0,0.0,0.0,0.0,0.0,0.0,0.0,0.0,0.0,0.0,0.0,0.0,0.0,0.0,0.0,0.0,0.0,0.0,0.0,0.0,0.0,0.0,0.0,0.0,0.0,0.0,0.0,0.0,0.0,0.0,0.0,0.0,0.0,0.0,0.0,0.0,0.0,0.0,0.0,0.0,0.0,0.0,0.0,0.0,0.0,0.0,0.0,0.0,0.0,0.0,0.0,0.0,0.0,0.0,0.0,-0.5246,-0.5809,-0.6239,-0.6524,-0.5375,-0.4837,-0.4996,0.0,0.0,0.0,0.0,0.0,0.0,0.0,0.0,0.0,0.0,0.0,0.0,0.0,0.0,0.0,0.0,0.0,0.0,0.0,0.0,0.0,0.0,0.0,0.0,0.0,0.0,0.0,0.0,0.0,0.0,0.0,0.0,0.0,0.0,0.0,0.0,0.0,0.0,0.0,0.0,0.0,0.0,0.0,0.0,0.0,0.0,0.0,0.0,0.0,0.0,0.0,0.0,0.0,0.0,0.0,0.0,0.0,0.0,0.0,0.0,0.0,0.0,0.0,0.0,0.0,0.0,0.0,0.0,0.0,0.0,0.0,0.0,0.0,0.0,0.0,0.0,0.0,0.0,0.0,0.0,0.0,0.0,0.0,0.0,0.0,0.0,0.0,0.0,0.0,0.0,0.0,0.0,0.0,0.0,0.0,0.0,0.0,0.0,0.0,0.0,0.0,0.0,0.0,0.0,0.0,0.0,0.0,0.0,-0.6441,-0.6844,-0.6983,-0.6921,-0.5845,-0.5209,0.0,0.0,0.0,0.0,0.0,0.0,0.0,0.0,0.0,0.0,0.0,0.0,0.0,0.0,0.0,0.0,0.0,0.0,0.0,0.0,0.0,0.0,0.0,0.0,0.0,0.0,0.0,0.0,0.0,0.0,0.0,0.0,0.0,0.0,0.0,0.0,0.0,0.0,0.0,0.0,0.0,0.0,0.0,0.0,0.0,0.0,0.0,0.0,0.0,0.0,0.0,0.0,0.0,0.0,0.0,0.0,0.0,0.0,0.0,0.0,0.0,0.0,0.0,0.0,0.0,0.0,0.0,0.0,0.0,0.0,0.0,0.0,0.0,0.0,0.0,0.0,0.0,0.0,0.0,0.0,0.0,0.0,0.0,0.0,0.0,0.0,0.0,0.0,0.0,0.0,0.0,0.0,0.0,0.0,0.0,0.0,0.0,0.0,0.0,0.0,0.0,0.0,0.0,0.0,0.0,0.0,0.0,0.0,0.0,-0.7119,-0.7474,-0.7514,-0.72,-0.6507,-0.5813,0.0,0.0,0.0,0.0,0.0,0.0,0.0,0.0,0.0,0.0,0.0,0.0,0.0,0.0,0.0,0.0,0.0,0.0,0.0,0.0,0.0,0.0,0.0,0.0,0.0,0.0,0.0,0.0,0.0,0.0,0.0,0.0,0.0,0.0,0.0,0.0,0.0,0.0,0.0,0.0,0.0,0.0,0.0,0.0,0.0,0.0,0.0,0.0,0.0,0.0,0.0,0.0,0.0,0.0,0.0,0.0,0.0,0.0,0.0,0.0,0.0,0.0,0.0,0.0,0.0,0.0,0.0,0.0,0.0,0.0,0.0,0.0,0.0,0.0,0.0,0.0,0.0,0.0,0.0,0.0,0.0,0.0,0.0,0.0,0.0,0.0,0.0,0.0,0.0,0.0,0.0,0.0,0.0,0.0,0.0,0.0,0.0,0.0,0.0,0.0,0.0,0.0,0.0,0.0,0.0,0.0,0.0,0.0,-0.6894,-0.7609,-0.8065,-0.8107,-0.7768,-0.7216,-0.6455,0.0,0.0,0.0,0.0,0.0,0.0,0.0,0.0,0.0,0.0,0.0,0.0,0.0,0.0,0.0,0.0,0.0,0.0,0.0,0.0,0.0,0.0,0.0,0.0,0.0,0.0,0.0,0.0,0.0,0.0,0.0,0.0,0.0,0.0,0.0,0.0,0.0,0.0,0.0,0.0,0.0,0.0,0.0,0.0,0.0,0.0,0.0,0.0,0.0,0.0,0.0,0.0,0.0,0.0,0.0,0.0,0.0,0.0,0.0,0.0,0.0,0.0,0.0,0.0,0.0,0.0,0.0,0.0,0.0,0.0,0.0,0.0,0.0,0.0,0.0,0.0,0.0,0.0,0.0,0.0,0.0,0.0,0.0,0.0,0.0,0.0,0.0,0.0,0.0,0.0,0.0,0.0,0.0,0.0,0.0,0.0,0.0,0.0,0.0,0.0,0.0,0.0,0.0,0.0,0.0,0.0,0.0,0.0,-0.7339,-0.7945,-0.8517,-0.8677,-0.8442,-0.7819,-0.7037,0.0,0.0,0.0,0.0,0.0,0.0,0.0,0.0,0.0,0.0,0.0,0.0,0.0,0.0,0.0,0.0,0.0,0.0,0.0,0.0,0.0,0.0,0.0,0.0,0.0,0.0,0.0,0.0,0.0,0.0,0.0,0.0,0.0,0.0,0.0,0.0,0.0,0.0,0.0,0.0,0.0,0.0,0.0,0.0,0.0,0.0,0.0,0.0,0.0,0.0,0.0,0.0,0.0,0.0,0.0,0.0,0.0,0.0,0.0,0.0,0.0,0.0,0.0,0.0,0.0,0.0,0.0,0.0,0.0,0.0,0.0,0.0,0.0,0.0,0.0,0.0,0.0,0.0,0.0,0.0,0.0,0.0,0.0,0.0,0.0,0.0,0.0,0.0,0.0,0.0,0.0,0.0,0.0,0.0,0.0,0.0,0.0,0.0,0.0,0.0,0.0,0.0,0.0,0.0,0.0,0.0,0.0,0.0,-0.7685,-0.8288,-0.8624,-0.8778,-0.8711,-0.7926,-0.6929,0.0,0.0,0.0,0.0,0.0,0.0,0.0,0.0,0.0,0.0,0.0,0.0,0.0,0.0,0.0,0.0,0.0,0.0,0.0,0.0,0.0,0.0,0.0,0.0,0.0,0.0,0.0,0.0,0.0,0.0,0.0,0.0,0.0,0.0,0.0,0.0,0.0,0.0,0.0,0.0,0.0,0.0,0.0,0.0,0.0,0.0,0.0,0.0,-0.5069,0.0,0.0,0.0,0.0,0.0,0.0,0.0,0.0,0.0,0.0,0.0,0.0,0.0,0.0,0.0,0.0,0.0,0.0,0.0,0.0,0.0,0.0,0.0,0.0,0.0,0.0,0.0,0.0,0.0,0.0,0.0,0.0,0.0,0.0,0.0,0.0,0.0,0.0,0.0,0.0,0.0,0.0,0.0,0.0,0.0,0.0,0.0,0.0,0.0,0.0,0.0,0.0,0.0,0.0,0.0,0.0,0.0,0.0,0.0,-0.7785,-0.8389,-0.8657,-0.8778,-0.8784,-0.8241,-0.7247,0.0,0.0,0.0,0.0,0.0,0.0,0.0,0.0,0.0,0.0,0.0,0.0,0.0,0.0,0.0,0.0,0.0,0.0,0.0,0.0,0.0,0.0,0.0,0.0,0.0,0.0,0.0,0.0,0.0,0.0,0.0,0.0,0.0,0.0,0.0,0.0,0.0,0.0,0.0,0.0,0.0,0.0,0.0,0.0,0.0,0.0,0.0,0.0,0.0,0.0,0.0,0.0,0.0,0.0,0.0,0.0,0.0,0.0,0.0,0.0,0.0,0.0,0.0,0.0,0.0,0.0,0.0,0.0,0.0,0.0,0.0,0.0,0.0,0.0,0.0,0.0,0.0,0.0,0.0,0.0,0.0,0.0,0.0,0.0,0.0,0.0,0.0,0.0,0.0,0.0,0.0,0.0,0.0,0.0,0.0,0.0,0.0,0.0,0.0,0.0,0.0,0.0,0.0,0.0,0.0,0.0,0.0,-0.7094,-0.7759,-0.8442,-0.8677,-0.8778,-0.8778,-0.8524,-0.7632,-0.6067,0.0,0.0,0.0,0.0,0.0,0.0,0.0,0.0,0.0,0.0,0.0,0.0,0.0,0.0,0.0,0.0,0.0,0.0,0.0,0.0,0.0,0.0,0.0,0.0,0.0,0.0,0.0,0.0,0.0,0.0,0.0,0.0,0.0,0.0,0.0,0.0,0.0,0.0,-0.3803,-0.5119,0.0,0.0,0.0,0.0,0.0,0.0,0.0,0.0,-0.8247,0.0,0.0,0.0,0.0,0.0,0.0,0.0,0.0,0.0,0.0,0.0,0.0,0.0,0.0,0.0,0.0,0.0,0.0,0.0,0.0,0.0,0.0,0.0,0.0,0.0,0.0,0.0,0.0,0.0,0.0,0.0,0.0,0.0,0.0,0.0,0.0,0.0,0.0,0.0,0.0,0.0,0.0,0.0,0.0,0.0,0.0,0.0,0.0,0.0,0.0,0.0,0.0,0.0,0.0,0.0,0.0,-0.7243,-0.7151,-0.7622,-0.8711,-0.8784,-0.8778,-0.8798,-0.8556,-0.7656,-0.6095,0.0,0.0,0.0,0.0,0.0,0.0,0.0,0.0,0.0,0.0,0.0,0.0,0.0,0.0,0.0,0.0,0.0,0.0,0.0,0.0,0.0,0.0,0.0,0.0,0.0,0.0,0.0,0.0,0.0,0.0,0.0,0.0,0.0,0.0,0.0,0.0,0.0,0.0,0.0,-0.5947,-0.6561,0.0,0.0,0.0,0.0,0.0,0.0,0.0,0.0,-0.9466,0.0,0.0,0.0,0.0,0.0,0.0,0.0,0.0,0.0,0.0,0.0,0.0,0.0,0.0,0.0,0.0,0.0,0.0,0.0,0.0,0.0,0.0,0.0,0.0,0.0,0.0,0.0,0.0,0.0,0.0,0.0,0.0,0.0,0.0,0.0,0.0,0.0,0.0,0.0,0.0,0.0,0.0,0.0,0.0,0.0,0.0,0.0,0.0,0.0,0.0,0.0,0.0,0.0,0.0,0.0,-0.6909,-0.7299,-0.79,-0.8751,-0.8501,-0.8474,-0.8771,-0.8094,-0.7196,0.0,0.0,0.0,0.0,0.0,0.0,0.0,0.0,0.0,0.0,0.0,0.0,0.0,0.0,0.0,0.0,0.0,0.0,0.0,0.0,0.0,0.0,0.0,0.0,0.0,0.0,0.0,0.0,0.0,0.0,0.0,0.0,0.0,0.0,0.0,0.0,0.0,0.0,0.0,0.0,-0.7001,-0.7772,-0.8399,0.0,0.0,0.0,0.0,0.0,0.0,-0.9933,-1.1175,0.0,0.0,0.0,0.0,0.0,0.0,0.0,0.0,0.0,0.0,0.0,0.0,0.0,0.0,0.0,0.0,0.0,0.0,0.0,0.0,0.0,0.0,0.0,0.0,0.0,0.0,0.0,0.0,0.0,0.0,0.0,0.0,0.0,0.0,0.0,0.0,0.0,0.0,0.0,0.0,0.0,0.0,0.0,0.0,0.0,0.0,0.0,0.0,0.0,0.0,0.0,0.0,0.0,0.0,0.0,-0.6467,-0.7296,-0.8076,-0.8745,-0.8315,-0.8315,-0.8771,-0.7885,-0.6924,0.0,0.0,0.0,0.0,0.0,0.0,0.0,0.0,0.0,0.0,0.0,0.0,0.0,0.0,0.0,0.0,0.0,0.0,0.0,0.0,0.0,0.0,0.0,0.0,0.0,0.0,0.0,0.0,0.0,0.0,0.0,0.0,0.0,0.0,0.0,0.0,0.0,0.0,0.0,0.0,0.0,-0.9127,-0.9773,-0.9147,0.0,0.0,0.0,0.0,-0.8417,-1.0908,0.0,0.0,0.0,0.0,0.0,0.0,0.0,0.0,0.0,0.0,0.0,0.0,0.0,0.0,0.0,0.0,0.0,0.0,0.0,0.0,0.0,0.0,0.0,0.0,0.0,0.0,0.0,0.0,0.0,0.0,0.0,0.0,0.0,0.0,0.0,0.0,0.0,0.0,0.0,0.0,0.0,0.0,0.0,0.0,0.0,0.0,0.0,0.0,0.0,0.0,0.0,0.0,0.0,0.0,0.0,0.0,-0.6455,-0.689,-0.7632,-0.8731,-0.8732,-0.8752,-0.8778,-0.8439,-0.7553,0.0,0.0,0.0,0.0,0.0,0.0,0.0,0.0,0.0,0.0,0.0,0.0,0.0,0.0,0.0,0.0,0.0,0.0,0.0,0.0,0.0,0.0,0.0,0.0,0.0,0.0,0.0,0.0,0.0,0.0,0.0,0.0,0.0,0.0,0.0,0.0,0.0,0.0,0.0,0.0,0.0,-1.0301,-1.0403,-1.0159,-1.0186,0.0,0.0,-0.8703,-1.0603,-0.9758,0.0,0.0,0.0,0.0,0.0,0.0,0.0,0.0,0.0,0.0,0.0,0.0,0.0,0.0,0.0,0.0,0.0,0.0,0.0,0.0,0.0,0.0,0.0,0.0,0.0,0.0,0.0,0.0,0.0,0.0,0.0,0.0,0.0,0.0,0.0,0.0,0.0,0.0,0.0,0.0,0.0,0.0,0.0,0.0,0.0,0.0,0.0,0.0,0.0,0.0,0.0,0.0,0.0,0.0,0.0,-0.5074,-0.6201,-0.7089,-0.7907,-0.8751,-0.8474,-0.8454,-0.8778,-0.7895,-0.6948,0.0,0.0,0.0,0.0,0.0,0.0,0.0,0.0,0.0,0.0,0.0,0.0,0.0,0.0,0.0,0.0,0.0,0.0,0.0,0.0,0.0,0.0,0.0,0.0,0.0,0.0,0.0,0.0,0.0,0.0,0.0,0.0,0.0,0.0,0.0,0.0,0.0,0.0,0.0,0.0,0.0,0.0,-1.0675,-1.0963,0.0,0.0,0.0,-1.0525,-1.2622,0.0,0.0,0.0,0.0,0.0,0.0,0.0,0.0,0.0,0.0,0.0,0.0,0.0,0.0,0.0,0.0,0.0,0.0,0.0,0.0,0.0,0.0,0.0,0.0,0.0,0.0,0.0,0.0,0.0,0.0,0.0,0.0,0.0,0.0,0.0,0.0,0.0,0.0,0.0,0.0,0.0,0.0,0.0,0.0,0.0,0.0,0.0,0.0,0.0,0.0,0.0,0.0,0.0,0.0,0.0,0.0,0.0,-0.5994,-0.7249,-0.8192,-0.8751,-0.8362,-0.8335,-0.8765,-0.76,0.0,0.0,0.0,0.0,0.0,0.0,0.0,0.0,0.0,0.0,0.0,0.0,0.0,0.0,0.0,0.0,0.0,0.0,0.0,0.0,0.0,0.0,0.0,0.0,0.0,0.0,0.0,-0.0964,0.0,0.0,0.0,0.0,0.0,0.0,0.0,0.0,0.0,0.0,0.0,0.0,0.0,0.0,-1.0759,-1.0928,-1.1675,-1.2357,0.0,0.0,-1.2043,-1.3791,-1.3684,-1.3047,0.0,0.0,0.0,0.0,0.0,0.0,0.0,0.0,0.0,0.0,0.0,0.0,0.0,0.0,0.0,0.0,0.0,0.0,0.0,0.0,0.0,0.0,0.0,0.0,0.0,0.0,0.0,0.0,0.0,0.0,0.0,0.0,0.0,0.0,0.0,0.0,0.0,0.0,0.0,0.0,0.0,0.0,0.0,0.0,0.0,0.0,0.0,0.0,0.0,0.0,0.0,0.0,0.0,0.0,0.0,-0.601,-0.7249,-0.8185,-0.8751,-0.8752,-0.8778,-0.8798,-0.8167,-0.7249,0.0,0.0,0.0,0.0,0.0,0.0,0.0,0.0,0.0,0.0,0.0,0.0,0.0,0.0,0.0,0.0,0.0,0.0,0.0,0.0,0.0,0.0,0.0,0.0,0.0,0.0,0.0,0.0,0.0,0.0,0.0,0.0,0.0,0.0,0.0,0.0,0.0,0.0,0.0,0.0,0.0,-1.1627,-1.1138,-1.2245,-1.3096,0.0,0.0,-1.286,-1.3631,-1.5489,-1.575,-1.2436,0.0,0.0,0.0,0.0,0.0,0.0,0.0,0.0,0.0,0.0,0.0,0.0,0.0,0.0,0.0,0.0,0.0,0.0,0.0,0.0,0.0,0.0,0.0,0.0,0.0,0.0,0.0,0.0,0.0,0.0,0.0,0.0,0.0,0.0,0.0,0.0,0.0,0.0,0.0,0.0,0.0,0.0,0.0,0.0,0.0,0.0,0.0,0.0,0.0,0.0,0.0,0.0,0.0,-0.5068,-0.6,-0.7249,-0.8192,-0.8751,-0.8883,-0.891,-0.8936,-0.842,-0.7642,0.0,0.0,0.0,0.0,0.0,0.0,0.0,0.0,0.0,0.0,0.0,0.0,0.0,0.0,0.0,0.0,0.0,0.0,0.0,0.0,0.0,0.0,0.0,0.0,0.0,0.0,0.0,0.0,-0.2206,-0.2584,-0.3011,0.0,0.0,0.0,0.0,0.0,0.0,0.0,0.0,0.0,0.0,-1.234,-1.286,-1.3512,0.0,0.0,-1.3712,-1.3674,-1.4821,-1.5495,-1.5453,-1.4086,-1.1687,0.0,0.0,0.0,0.0,0.0,0.0,0.0,0.0,0.0,0.0,0.0,0.0,0.0,0.0,0.0,0.0,0.0,0.0,0.0,0.0,0.0,0.0,0.0,0.0,0.0,0.0,0.0,0.0,0.0,0.0,0.0,0.0,0.0,0.0,0.0,0.0,0.0,0.0,0.0,0.0,0.0,0.0,0.0,0.0,0.0,0.0,0.0,0.0,0.0,0.0,0.0,0.0,-0.5014,-0.5733,-0.7013,-0.7932,-0.8521,-0.8553,-0.8646,-0.8813,-0.8348,-0.7681,0.0,0.0,0.0,0.0,0.0,0.0,0.0,0.0,0.0,0.0,0.0,0.0,0.0,0.0,0.0,0.0,0.0,0.0,0.0,0.0,0.0,0.0,0.0,0.0,0.0,0.0,0.0,0.0,-0.3026,-0.3344,-0.354,0.0,0.0,0.0,0.0,0.0,0.0,0.0,0.0,0.0,0.0,-1.3024,-1.3973,-1.4385,-1.4729,-1.5062,-1.4339,-1.4199,-1.5414,-1.5322,-1.4961,-1.4575,0.0,0.0,0.0,0.0,0.0,0.0,0.0,0.0,0.0,0.0,0.0,0.0,0.0,0.0,0.0,0.0,0.0,0.0,0.0,0.0,0.0,0.0,0.0,0.0,0.0,0.0,0.0,0.0,0.0,0.0,-0.1793,0.0,0.0,0.0,0.0,0.0,0.0,0.0,0.0,0.0,0.0,0.0,0.0,0.0,0.0,0.0,0.0,0.0,0.0,0.0,0.0,0.0,0.0,-0.4906,-0.5151,-0.6452,-0.7393,-0.7906,-0.767,-0.7895,-0.8477,-0.7876,-0.7262,-0.6698,0.0,0.0,0.0,0.0,0.0,0.0,0.0,0.0,0.0,0.0,0.0,0.0,0.0,0.0,0.0,0.0,0.0,0.0,0.0,0.0,0.0,0.0,0.0,0.0,0.0,0.0,-0.3152,-0.3715,-0.3914,0.0,0.0,0.0,0.0,0.0,0.0,0.0,0.0,0.0,0.0,-1.2704,-1.3707,-1.4096,-1.4672,-1.5108,-1.5119,-1.4534,-1.4337,-1.4993,-1.5062,-1.4689,0.0,0.0,0.0,0.0,0.0,0.0,0.0,0.0,0.0,0.0,0.0,0.0,0.0,0.0,0.0,0.0,0.0,0.0,0.0,0.0,0.0,0.0,0.0,0.0,0.0,0.0,0.0,-0.4426,-0.4129,0.0,0.0,0.0,0.0,0.0,0.0,0.0,0.0,0.0,0.0,0.0,-0.4939,-0.5093,0.0,0.0,0.0,0.0,0.0,0.0,0.0,0.0,0.0,0.0,0.0,0.0,-0.484,-0.5336,-0.6481,-0.7281,-0.762,-0.7878,-0.8127,-0.8357,-0.8095,-0.7361,-0.6093,0.0,0.0,0.0,0.0,0.0,0.0,0.0,0.0,0.0,0.0,0.0,0.0,0.0,0.0,0.0,0.0,0.0,0.0,0.0,0.0,0.0,0.0,0.0,0.0,0.0,-0.2877,0.0,0.0,0.0,0.0,0.0,0.0,0.0,0.0,0.0,0.0,0.0,-1.1219,-1.299,-1.3757,-1.4408,-1.5188,-1.5498,-1.5636,0.0,0.0,0.0,0.0,0.0,0.0,0.0,0.0,0.0,0.0,0.0,0.0,0.0,0.0,-1.1644,-0.9066,-0.8049,-0.7932,-0.901,0.0,0.0,0.0,0.0,0.0,0.0,0.0,0.0,0.0,0.0,0.0,0.0,0.0,0.0,-0.5779,0.0,-0.4835,0.0,0.0,0.0,0.0,0.0,0.0,0.0,0.0,-0.5752,-0.6252,-0.6052,-0.6121,-0.5979,0.0,-0.5525,-0.5125,0.0,0.0,0.0,0.0,0.0,0.0,0.0,0.0,-0.4915,-0.5558,-0.6515,-0.72,-0.7561,-0.7857,-0.8104,-0.8368,-0.8075,-0.7354,-0.6125,-0.567,-0.5129,0.0,0.0,0.0,0.0,0.0,0.0,0.0,0.0,0.0,0.0,0.0,0.0,0.0,0.0,0.0,0.0,0.0,0.0,0.0,0.0,0.0,0.0,0.0,-0.3377,0.0,0.0,0.0,0.0,0.0,0.0,0.0,0.0,0.0,-1.2759,-1.2178,-1.2318,-1.4508,-1.4722,-1.5005,-1.6015,0.0,0.0,0.0,0.0,0.0,0.0,0.0,-1.3089,-1.4417,-1.4633,-1.4176,-1.2858,-1.3236,-1.338,-1.2307,0.0,0.0,-1.1262,-1.0125,-0.9692,-1.0507,-1.0065,-0.9717,-1.0279,-1.0416,-1.0445,0.0,0.0,0.0,0.0,0.0,0.0,0.0,0.0,-0.7163,-0.7045,0.0,-0.569,0.0,0.0,0.0,0.0,0.0,-0.4449,0.0,0.0,-0.634,-0.6712,-0.6729,-0.6534,-0.6566,-0.6741,-0.6694,-0.6443,-0.5991,-0.5106,0.0,0.0,0.0,0.0,0.0,0.0,-0.5195,-0.5809,-0.6529,-0.7164,-0.7623,-0.7513,-0.7739,-0.8393,-0.7773,-0.721,-0.6798,-0.6362,-0.5807,-0.5171,-0.4371,0.0,0.0,0.0,0.0,0.0,0.0,0.0,0.0,0.0,0.0,0.0,0.0,0.0,0.0,0.0,0.0,0.0,0.0,0.0,0.0,-0.3781,0.0,0.0,0.0,0.0,0.0,0.0,0.0,0.0,0.0,0.0,-1.4564,-1.3543,-1.3356,-1.5734,0.0,0.0,0.0,0.0,-1.613,-1.6587,-1.6257,-1.597,-1.6084,-1.4718,-1.3994,-1.5073,0.0,0.0,-1.3062,-1.3741,-1.3938,-1.2212,-1.2853,-1.3597,-1.3524,-1.2489,-1.1902,-1.2287,-1.1246,-1.0664,-1.1456,-1.1661,-1.1781,-0.8966,0.0,0.0,0.0,0.0,-0.805,-0.8261,-0.8517,-0.8402,-0.7991,-0.7377,-0.6867,0.0,0.0,0.0,0.0,0.0,0.0,-0.6019,-0.6393,-0.6946,-0.7288,-0.7504,-0.744,-0.7437,-0.7483,-0.7149,-0.6918,-0.6756,-0.6175,-0.547,-0.4696,0.0,0.0,0.0,0.0,-0.5464,-0.5883,-0.6559,-0.694,-0.7074,-0.7375,-0.7673,-0.7925,-0.7623,-0.7339,-0.7021,-0.6738,-0.6348,-0.577,-0.5117,0.0,0.0,0.0,0.0,0.0,0.0,0.0,0.0,0.0,0.0,0.0,0.0,0.0,0.0,0.0,0.0,0.0,0.0,0.0,-0.375,-0.4329,-0.481,0.0,0.0,0.0,0.0,0.0,0.0,0.0,0.0,0.0,-1.4609,-1.4406,-1.4265,0.0,0.0,-1.6186,-1.6231,-1.6658,-1.714,-1.7596,-1.7174,0.0,-1.6484,-1.5464,-1.5269,-1.6965,-1.6321,-1.5361,-1.4722,-1.4764,-1.4588,-1.3696,-1.327,-1.3146,-1.3471,-1.2892,-1.2377,-1.235,-1.2061,-1.1852,-1.2111,-1.2221,-1.2303,-1.1007,-0.9902,-0.9325,-0.9269,-0.9514,-0.9663,-0.9757,-0.9797,-0.9768,-0.9377,-0.8686,-0.8027,-0.731,-0.6524,-0.578,0.0,0.0,0.0,-0.6866,-0.7405,-0.7721,-0.7916,-0.807,-0.7984,-0.7971,-0.7919,-0.7548,-0.7322,-0.7192,-0.6924,-0.6379,-0.5556,0.0,0.0,-0.5594,-0.5615,-0.5897,-0.6418,-0.7039,-0.7307,-0.7242,-0.7636,-0.7801,-0.7705,-0.7551,-0.743,-0.7271,-0.7118,-0.6812,-0.6383,-0.5755,-0.5069,0.0,0.0,0.0,0.0,0.0,0.0,0.0,0.0,0.0,0.0,0.0,-0.1567,-0.1173,0.0,0.0,0.0,-0.2519,-0.3544,-0.4505,-0.5119,0.0,0.0,0.0,0.0,0.0,0.0,0.0,-0.8318,-0.9749,-1.1727,-1.4416,-1.4979,-1.5292,-1.5646,-1.6219,-1.6667,-1.6873,0.0,-1.7591,-1.8043,-1.7779,-1.7435,-1.7229,-1.669,-1.6713,-1.7905,-1.7154,-1.6234,-1.5876,-1.5664,-1.5304,-1.4656,-1.3942,-1.34,-1.3197,-1.3016,-1.2932,-1.2841,-1.2834,-1.2792,-1.2691,-1.2629,-1.2734,-1.2565,-1.2405,-1.1053,-1.0661,-1.0978,-1.1228,-1.105,-1.0667,-1.0967,-1.0751,-1.0161,-0.9105,-0.8521,-0.8198,-0.6644,0.0,-0.7255,-0.725,-0.7731,-0.8571,-0.8533,-0.856,-0.8528,-0.8338,-0.8256,-0.8203,-0.7971,-0.7715,-0.7487,-0.7431,-0.7111,-0.6493,-0.6226,-0.6244,-0.6453,-0.62,-0.6442,-0.7181,-0.7708,-0.7954,-0.7922,-0.811,-0.8026,-0.7685,-0.7572,-0.7502,-0.7474,-0.7426,-0.7265,-0.695,-0.6307,-0.5923,-0.582,0.0,0.0,0.0,0.0,0.0,0.0,0.0,0.0,0.0,0.0,0.0,0.0,0.0,0.0,0.0,-0.3797,0.0,-0.5284,-0.5958,0.0,0.0,0.0,-0.7119,-0.8202,-0.8636,-0.9077,-0.9709,0.0,0.0,-1.428,-1.5521,-1.6358,-1.6621,-1.6701,-1.7008,-1.7855,-1.7668,-1.7622,-1.8027,-1.8111,-1.8073,-1.7981,-1.7974,-1.7854,-1.7722,-1.7507,-1.6978,-1.6386,-1.6312,-1.596,-1.4974,-1.4554,-1.4003,-1.2814,-1.3096,-1.3497,-1.3441,-1.3446,-1.3382,-1.3129,-1.3043,-1.3108,-1.3007,-1.2554,-1.2194,-1.1797,-1.1417,-1.1005,-1.0591,-1.0174,-1.024,-0.9984,-0.942,-0.9198,-0.9001,-0.8926,-0.8391,-0.8363,-0.8726,-0.8698,-0.8824,-0.9034,-0.901,-0.8947,-0.8814,-0.8749,-0.863,-0.842,-0.8214,-0.8068,-0.8009,-0.7806,-0.7514,-0.7154,-0.709,-0.6837,-0.6451,-0.6476,-0.6733,-0.71,-0.7647,-0.799,-0.8146,-0.8193,-0.7976,-0.7558,-0.7502,-0.7482,-0.7426,-0.7419,-0.7363,-0.7279,-0.6735,-0.6445,-0.6459,-0.4883,0.0,0.0,0.0,0.0,0.0,0.0,0.0,0.0,0.0,-0.2355,-0.1848,0.0,-0.2985,0.0,-0.4247,-0.596,-0.6159,-0.6224,0.0,0.0,-0.7744,-0.8282,-1.0025,-1.0042,-1.0091,-1.0579,-1.0978,-1.245,-1.565,-1.6968,-1.7515,-1.7255,-1.7515,-1.7573,-1.7091,-1.755,-1.7974,-1.8077,-1.8084,-1.8084,-1.8084,-1.8084,-1.7661,-1.6255,-1.6712,-1.6948,-1.5979,-1.5979,-1.5734,-1.464,-1.376,-1.3275,-1.329,-1.3023,-1.2937,-1.3352,-1.348,-1.3494,-1.3399,-1.3382,-1.3408,-1.2813,-1.2502,-1.2235,-1.1897,-1.1519,-1.1272,-1.085,-1.0354,-1.0354,-1.003,-0.9518,-0.9416,-0.9314,-0.92,-0.9106,-0.9181,-0.9362,-0.9373,-0.9373,-0.9373,-0.9373,-0.919,-0.8906,-0.89,-0.8776,-0.8484,-0.8377,-0.8284,-0.8207,-0.8047,-0.7833,-0.7583,-0.7578,-0.7385,-0.7036,-0.6934,-0.6956,-0.7106,-0.7626,-0.8147,-0.8594,-0.8296,-0.7983,-0.7724,-0.756,-0.7454,-0.7391,-0.7391,-0.7224,-0.6888,-0.6598,-0.6472,-0.6542,-0.5309,-0.4365,0.0,0.0,0.0,0.0,0.0,0.0,0.0,0.0,0.0,0.0,0.0,-0.4077,-0.3824,-0.5723,-0.6901,-0.674,-0.7023,-0.7672,-0.8784,-0.9199,-0.986,-1.1058,-1.0971,-1.0989,-1.1375,-1.143,-1.2725,-1.6033,-1.7396,-1.7993,-1.776,-1.7939,-1.789,-1.7447,-1.7779,-1.8084,-1.8084,-1.8084,-1.8084,-1.8084,-1.8084,-1.7772,-1.686,-1.6842,-1.6881,-1.6368,-1.6026,-1.5418,-1.4205,-1.3649,-1.3424,-1.3532,-1.323,-1.3048,-1.3357,-1.348,-1.348,-1.348,-1.348,-1.348,-1.2347,-1.2234,-1.1714,-1.1473,-1.1404,-1.1528,-1.1227,-1.0715,-1.068,-1.0368,-0.9868,-0.9707,-0.9502,-0.9297,-0.9297,-0.9416,-0.9615,-0.9662,-0.9626,-0.962,-0.9657,-0.9403,-0.8949,-0.8944,-0.8764,-0.8522,-0.8517,-0.8404,-0.8256,-0.8256,-0.8106,-0.7855,-0.7844,-0.7828,-0.7779,-0.7326,-0.7166,-0.7321,-0.7785,-0.8409,-0.9109,-0.8446,-0.8017,-0.7909,-0.7574,-0.7356,-0.7349,-0.737,-0.7038,-0.6341,-0.6245,-0.6224,-0.6228,-0.5503,-0.502,0.0,-0.4831,0.0,0.0,0.0,0.0,0.0,0.0,0.0,0.0,-0.4342,-0.5159,-0.652,-0.7395,-0.7715,-0.7274,-0.8004,-0.8815,-0.953,-1.0525,-1.1291,-1.1599,-1.159,-1.1691,-1.2064,-1.2156,-1.3275,-1.6168,-1.739,-1.7963,-1.8023,-1.8088,-1.8061,-1.8088,-1.8088,-1.8057,-1.7975,-1.8057,-1.8084,-1.8084,-1.7947,-1.7772,-1.7717,-1.7123,-1.6708,-1.6634,-1.5997,-1.506,-1.3944,-1.3816,-1.3906,-1.3563,-1.3485,-1.3463,-1.3472,-1.348,-1.348,-1.348,-1.348,-1.348,-1.2114,-1.1674,-1.1548,-1.1238,-1.0789,-1.081,-1.0667,-1.0407,-1.0155,-0.9992,-0.9916,-0.9879,-0.983,-0.9787,-0.9787,-0.9809,-0.9857,-0.9857,-0.9852,-0.9857,-0.9857,-0.9604,-0.9152,-0.9141,-0.8921,-0.8533,-0.8517,-0.8495,-0.8441,-0.8441,-0.8323,-0.8148,-0.8117,-0.8014,-0.7795,0.0,0.0,0.0,-0.8744,-0.8795,-0.8802,-0.8547,-0.8116,-0.7518,-0.7321,0.0,-0.7091,-0.7188,-0.7119,-0.6851,-0.6434,0.0,0.0,0.0,0.0,0.0,0.0,0.0,0.0,0.0,0.0,0.0,-0.5098,-0.501,-0.4538,-0.4798,-0.5638,-0.7151,-0.7675,-0.8017,-0.8349,-0.8546,-0.9159,-1.0374,-1.0572,-1.1061,-1.2255,-1.2183,-1.2027,-1.2092,-1.2503,-1.4021,-1.7044,-1.7418,-1.7379,-1.8002,-1.8084,-1.8084,-1.8084,-1.8057,-1.7843,-1.7335,-1.765,-1.8084,-1.8084,-1.729,-1.6652,-1.6585,-1.635,-1.5806,-1.5118,-1.501,-1.4745,-1.3929,-1.3709,-1.3631,-1.3532,-1.348,-1.348,-1.348,-1.348,-1.348,-1.348,-1.348,-1.348,-1.1691,0.0,-1.1405,-1.1238,0.0,-1.0859,-1.074,-1.0616,-1.0335,-1.0233,-1.0233,-1.0238,-1.0233,-1.0266,-1.0153,-0.9864,-0.9507,-0.9362,-0.9112,-0.8727,-0.9117,-0.9069,-0.8604,-0.9025,-0.8964,-0.8522,-0.8517,-0.8517,-0.8517,-0.8517,-0.8452,-0.836,-0.836,-0.8206,-0.7892,-0.7731,-0.7886,-0.8342,-0.8659,-0.8851,-0.8937,-0.87,-0.8278,-0.7757,-0.7482,0.0,0.0,0.0,0.0,0.0,0.0,0.0,0.0,0.0,0.0,-0.5373,-0.5512,-0.5679,-0.5875,-0.6227,-0.6294,-0.5982,-0.6428,-0.6557,-0.6154,-0.6355,-0.6839,-0.7695,-0.812,-0.8403,-0.8546,-0.9304,-1.0051,-1.0557,-1.099,-1.1644,-1.2509,-1.2817,-1.267,-1.2326,-1.3155,-1.478,-1.6898,-1.7073,-1.724,-1.7909,-1.7567,-1.7335,-1.7595,-1.7639,-1.7379,-1.6782,-1.7473,-1.7854,-1.7224,-1.6208,-1.57,-1.6054,-1.595,-1.5575,-1.5313,-1.4824,-1.4428,-1.4207,-1.3929,-1.3709,-1.364,-1.3571,-1.348,-1.348,-1.348,-1.348,-1.348,-1.348,-1.348,-1.1311,-1.1311,-1.1311,-1.1311,-1.1295,-1.1139,-1.1052,-1.1031,0.0,0.0,0.0,-1.043,-1.0344,-1.0333,-0.9996,-0.9488,-0.8839,-0.8758,-0.8349,-0.777,-0.8546,-0.8686,-0.8314,-0.8906,-0.8985,-0.8587,-0.8533,-0.8517,-0.8517,-0.8517,-0.8479,-0.842,-0.8414,-0.8226,-0.796,-0.8157,-0.8126,-0.7865,-0.8414,-0.8869,-0.9101,-0.8813,-0.8469,-0.8089,-0.7751,-0.7457,-0.7173,-0.716,-0.6926,-0.6456,-0.6554,-0.5955,-0.4566,-0.5329,-0.5931,-0.6122,-0.6699,-0.7039,-0.705,-0.7727,-0.7859,-0.7163,-0.7541,-0.7831,-0.7809,-0.8021,-0.8173,-0.827,-0.86,-0.8803,-0.8869,-1.0105,-1.0996,-1.0908,-1.1718,-1.2413,-1.2863,-1.335,-1.3369,-1.285,-1.3798,-1.5091,-1.6077,-1.6567,-1.7034,-1.7473,-1.7073,-1.6482,-1.681,-1.695,-1.6838,-1.6397,-1.7,-1.7307,-1.6197,-1.5274,-1.497,-1.569,-1.5526,-1.5439,-1.5661,-1.503,-1.4398,-1.4387,-1.4148,-1.3929,-1.3808,-1.364,-1.3511,-1.348,-1.348,-1.348,-1.348,-1.348,-1.348,-1.1311,-1.1311,-1.1311,-1.1311,-1.1305,-1.1268,-1.1257,-1.1219,-1.0785,-1.0597,-1.0552,-0.977,-0.9399,-0.9359,-0.8507,-0.8003,-0.7855,-0.8545,-0.8757,-0.8585,-0.9349,-0.959,-0.9373,-0.9267,-0.9066,-0.8846,-0.8614,-0.8517,-0.8517,-0.8517,-0.8349,-0.8084,-0.8084,-0.7982,-0.7777,-0.7985,-0.8178,-0.8302,-0.8965,-0.9123,-0.8769,-0.8752,-0.856,-0.8133,-0.7936,-0.7826,-0.7786,-0.7772,-0.7742,-0.7633,-0.7293,-0.6883,-0.6419,-0.6178,-0.6073,-0.6152,-0.6771,-0.7174,-0.7201,-0.7973,-0.8409,-0.8339,-0.8323,-0.829,-0.8314,-0.8735,-0.9015,-0.897,-0.8909,-0.9316,-1.0455,-1.086,-1.1512,-1.2609,-1.2795,-1.3038,-1.3617,-1.3709,-1.3809,-1.4029,-1.4042,-1.4544,-1.562,-1.614,-1.6425,-1.6585,-1.6736,-1.6698,-1.5968,-1.6112,-1.6216,-1.594,-1.6197,-1.6007,-1.5137,-1.4684,-1.4625,-1.4714,-1.4743,-1.4734,-1.4852,-1.4684,-1.4387,-1.4258,-1.407,-1.395,-1.3821,-1.364,-1.3511,-1.348,-1.348,-1.348,-1.348,-1.348,-1.348,-1.1311,-1.1311,-1.1311,-1.1311,-1.1311,-1.1311,-1.1311,-1.1289,-1.1075,-1.0984,-1.0894,-1.0001,-0.9573,-0.9522,-0.9029,-0.8416,-0.787,-0.8657,-0.8663,-0.8127,-0.8889,-0.9153,-0.8931,-0.9106,-0.9152,-0.9028,-0.8678,-0.8576,-0.8678,-0.8576,-0.8349,-0.8014,-0.7982,-0.781,-0.7542,-0.8077,-0.8299,-0.8145,-0.8745,-0.8966,-0.8752,-0.8777,-0.8616,-0.825,-0.8194,-0.809,-0.7912,-0.7905,-0.7905,-0.7905,-0.7756,-0.7368,-0.6635,-0.6412,-0.6218,-0.6029,-0.6314,-0.6801,-0.7548,-0.8254,-0.8685,-0.8693,-0.8655,-0.8616,-0.8621,-0.8854,-0.9077,-0.9268,-0.9875,-1.0439,-1.0826,-1.1433,-1.211,-1.2785,-1.3113,-1.3497,-1.3818,-1.4057,-1.4231,-1.4481,-1.4625,-1.4965,-1.5603,-1.5777,-1.5968,-1.6187,-1.633,-1.5892,-1.5088,-1.5459,-1.5806,-1.569,-1.5488,-1.5137,-1.4604,-1.4485,-1.4485,-1.4485,-1.4485,-1.4485,-1.4485,-1.4485,-1.4327,-1.392,-1.3791,-1.3761,-1.3778,-1.364,-1.3511,-1.348,-1.348,-1.348,-1.348,-1.348,-1.348,-1.1311,-1.1311,-1.1311,-1.1311,-1.1311,-1.1311,-1.1311,-1.1311,-1.1305,-1.1311,-1.1176,-1.0294,-0.9898,-0.9884,-0.951,-0.8879,-0.8201,-0.8782,-0.8627,-0.7902,-0.858,-0.8872,-0.8692,-0.9103,-0.9287,-0.9244,-0.8867,-0.8737,-0.8868,-0.8612,-0.8299,-0.8025,-0.7949,-0.7848,-0.7721,-0.8286,-0.8463,-0.824,-0.8592,-0.8778,-0.8778,-0.8837,-0.875,-0.8523,-0.8502,-0.8363,-0.8119,-0.8105,-0.8105,-0.8105,-0.8196,-0.7848,-0.6921,-0.6767,-0.6569,-0.6317,-0.6288,-0.6857,-0.805,-0.856,-0.8811,-0.8864,-0.8871,-0.8871,-0.8878,-0.8838,-0.9072,-0.9708,-1.067,-1.1262,-1.1402,-1.1962,-1.264,-1.2902,-1.3492,-1.3938,-1.4067,-1.4323,-1.4485,-1.4575,-1.4911,-1.5225,-1.5381,-1.541,-1.5575,-1.5892,-1.5654,-1.5162,-1.4793,-1.513,-1.5485,-1.5536,-1.5232,-1.4852,-1.4595,-1.4485,-1.4485,-1.4485,-1.4485,-1.4485,-1.4485,-1.4485,-1.4448,-1.4022,-1.3709,-1.377,-1.3931,-1.3726,-1.3588,-1.3631,-1.3574,-1.348,-1.348,-1.348,-1.348,-1.1311,-1.1311,-1.1311,-1.1311,-1.1311,-1.1311,-1.1311,-1.1311,-1.1311,-1.1311,-1.1219,-1.0294,-0.9898,-0.9767,-0.9039,-0.8436,-0.8119,-0.8842,-0.8988,-0.8727,-0.942,-0.9755,-0.9707,-0.9605,-0.9545,-0.9543,-0.9244,-0.9007,-0.8883,-0.8482,-0.8202,-0.7975,-0.7689,-0.8042,-0.879,-0.8693,-0.8755,-0.906,-0.8884,-0.8778,-0.8811,-0.891,-0.8896,-0.8771,-0.8738,-0.8758,-0.8665,-0.8731,-0.8717,-0.8724,-0.8704,-0.8554,-0.8174,-0.7706,-0.7388,-0.7329,-0.7458,-0.8006,-0.8927,-0.8923,-0.8864,-0.8976,-0.9099,-0.9164,-0.9164,-0.8971,-0.9306,-1.0356,-1.0662,-1.1488,-1.2618,-1.2743,-1.3113,-1.4026,-1.4291,-1.4451,-1.4433,-1.4478,-1.4485,-1.4485,-1.4595,-1.4595,-1.4743,-1.5079,-1.5391,-1.5508,-1.5354,-1.5176,-1.5127,-1.5361,-1.564,-1.5754,-1.5857,-1.5557,-1.484,-1.4485,-1.4543,-1.4504,-1.4524,-1.457,-1.4598,-1.4549,-1.4592,-1.4813,-1.4391,-1.4174,-1.4268,-1.4176,-1.3699,-1.3908,-1.3797,-1.3484,-1.3489,-1.3489,-1.3498,-1.1311,-1.1311,-1.1311,-1.1311,-1.1311,-1.1311,-1.1311,-1.1311,-1.1311,-1.1311,-1.1262,-1.0916,-1.036,-0.9714,-0.9325,-0.8941,-0.8626,-0.9428,-0.9698,-0.944,-0.9765,-0.9884,-0.9857,-0.969,-0.9647,-0.9717,-0.9254,-0.8925,-0.8743,-0.8351,-0.8068,-0.809,-0.8425,-0.8848,-0.9095,-0.9199,-0.924,-0.9183,-0.8958,-0.8778,-0.8804,-0.8857,-0.8864,-0.8811,-0.8778,-0.8778,-0.8778,-0.8778,-0.8778,-0.8778,-0.8778,-0.8586,-0.8117,-0.7877,-0.7676,-0.7547,-0.7889,-0.8203,-0.8408,-0.8666,-0.8884,-0.9106,-0.9165,-0.9277,-0.9479,-0.9385,-0.9932,-1.1352,-1.2343,-1.3111,-1.3318,-1.3561,-1.3936,-1.441,-1.4485,-1.4485,-1.4485,-1.4485,-1.4485,-1.4485,-1.4485,-1.4485,-1.4515,-1.4704,-1.4956,-1.5134,-1.5152,-1.5194,-1.5404,-1.5597,-1.567,-1.5716,-1.5839,-1.5635,-1.4992,-1.4643,-1.4653,-1.479,-1.4864,-1.4873,-1.4937,-1.4641,-1.4741,-1.5478,-1.5402,-1.5104,-1.4833,-1.4722,-1.4383,-1.4367,-1.3907,-1.3493,-1.3493,-1.3501,-1.3389,-1.1311,-1.1311,-1.1311,-1.1311,-1.1311,-1.1311,-1.1311,-1.1311,-1.1311,-1.1311,-1.1311,-1.1311,-1.0788,-0.9949,-0.9937,-0.9736,-0.9409,-1.0014,-1.0159,-0.99,-0.9771,-0.9809,-0.9863,-0.9649,-0.9649,-0.9771,-0.9239,-0.8845,-0.8597,-0.8217,-0.8149,-0.8501,-0.9134,-0.9448,-0.9407,-0.962,-0.9539,-0.9183,-0.8931,-0.8778,-0.8778,-0.8778,-0.8778,-0.8778,-0.8778,-0.8778,-0.8778,-0.8778,-0.8778,-0.8778,-0.8778,-0.8613,-0.8196,-0.7978,-0.7824,-0.7696,-0.8182,-0.8395,-0.8143,-0.8631,-0.8991,-0.9191,-0.9344,-0.9537,-0.9766,-0.9909,-1.0627,-1.2039,-1.3595,-1.4189,-1.395,-1.4198,-1.4485,-1.4485,-1.4485,-1.4485,-1.4485,-1.4485,-1.4485,-1.4485,-1.4485,-1.4531,-1.4653,-1.4765,-1.4922,-1.5216,-1.5377,-1.5478,-1.5771,-1.5936,-1.6056,-1.6028,-1.6061,-1.5804,-1.5285,-1.5056,-1.4983,-1.5047,-1.5184,-1.5331,-1.546,-1.5111,-1.5098,-1.6063,-1.6599,-1.6587,-1.5737,-1.5349,-1.4658,-1.4362,-1.3891,-1.3335,-1.3109,-1.3124,-1.2852,-1.1311,-1.1311,-1.1311,-1.1311,-1.1311,-1.1311,-1.1311,-1.1311,-1.1311,-1.1311,-1.1311,-1.1311,-1.1011,-1.0534,-1.0714,-1.0637,-1.0247,-1.0233,-1.0148,-0.9895,-0.9549,-0.9544,-0.9841,-0.9496,-0.9528,-0.9755,-0.9259,-0.875,-0.8326,-0.8164,-0.8495,-0.9396,-0.9518,-0.9706,-0.9951,-0.983,-0.9552,-0.9277,-0.8998,-0.8824,-0.8791,-0.8791,-0.8778,-0.8778,-0.8778,-0.8778,-0.8778,-0.8778,-0.8778,-0.8778,-0.8778,-0.8778,-0.8699,-0.8203,-0.7931,-0.7969,-0.8467,-0.8791,-0.8791,-0.9024,-0.9224,-0.9276,-0.971,-1.0067,-1.0191,-1.0332,-1.1081,-1.238,-1.3726,-1.4455,-1.4396,-1.4426,-1.4485,-1.4485,-1.4485,-1.4485,-1.4485,-1.4552,-1.4494,-1.4524,-1.4531,-1.4735,-1.5029,-1.5194,-1.5368,-1.5652,-1.5991,-1.6202,-1.6184,-1.6514,-1.6716,-1.6752,-1.6697,-1.6496,-1.5597,-1.5166,-1.5267,-1.5478,-1.5579,-1.5753,-1.5845,-1.5955,-1.6233,-1.6471,-1.6752,-1.6722,-1.6379,-1.5675,-1.4664,-1.408,-1.3642,-1.318,-1.2738,-1.2235,-1.195,-1.1311,-1.1311,-1.1311,-1.1311,-1.1311,-1.1311,-1.1311,-1.1311,-1.1311,-1.1311,-1.1311,-1.1311,-1.1123,-1.0859,-1.0789,-1.0503,-1.0078,-1.0056,-1.0008,-0.9884,-0.9733,-0.9771,-0.9846,-0.9733,-0.9531,-0.93,-0.898,-0.8578,-0.8233,-0.8657,-0.9139,-0.9524,-0.997,-1.0274,-1.0336,-1.0107,-0.99,-0.973,-0.9311,-0.9058,-0.9038,-0.8905,-0.8778,-0.8778,-0.8778,-0.8778,-0.8778,-0.8778,-0.8778,-0.8778,-0.8778,-0.8778,-0.8778,-0.8586,-0.8558,-0.8719,-0.8915,-0.9144,-0.9345,-0.9466,-0.9577,-0.977,-0.995,-1.039,-1.0794,-1.0801,-1.1296,-1.2864,-1.392,-1.4485,-1.4485,-1.4485,-1.4485,-1.4485,-1.4485,-1.4485,-1.454,-1.4717,-1.4799,-1.4604,-1.4781,-1.5148,-1.5386,-1.5515,-1.5698,-1.6028,-1.623,-1.6361,-1.6597,-1.6807,-1.6927,-1.6908,-1.6899,-1.678,-1.6477,-1.5395,-1.5038,-1.5615,-1.5955,-1.6202,-1.6349,-1.645,-1.6697,-1.6448,-1.6707,-1.6568,-1.6165,-1.5487,-1.4522,-1.382,-1.3374,-1.2832,-1.2371,-1.185,-1.1484,-1.1575,-1.1575,-1.1575,-1.1482,-1.1467,-1.1418,-1.1375,-1.1316,-1.1311,-1.1311,-1.1311,-1.1311,-1.1171,-1.0988,-1.0821,-1.0495,-1.0125,-1.0083,-1.004,-1.0002,-0.9882,-0.9845,-0.9884,-0.9771,-0.9498,-0.9101,-0.8791,-0.8593,-0.8576,-0.9166,-0.962,-0.9875,-1.0364,-1.0586,-1.0539,-1.0267,-1.012,-0.999,-0.9604,-0.9351,-0.9331,-0.9198,-0.9011,-0.8931,-0.8918,-0.8891,-0.8791,-0.8778,-0.8778,-0.8778,-0.8778,-0.8778,-0.8778,-0.8778,-0.8911,-0.9171,-0.9176,-0.9344,-0.9646,-0.9773,-0.9907,-1.0094,-1.0397,-1.088,-1.1437,-1.1327,-1.2027,-1.323,-1.41,-1.4485,-1.4485,-1.4485,-1.4485,-1.4485,-1.4485,-1.4485,-1.4513,-1.49,-1.5001,-1.4934,-1.545,-1.5799,-1.5826,-1.5863,-1.6156,-1.6615,-1.6697,-1.6798,-1.6872,-1.7027,-1.7027,-1.6936,-1.6908,-1.6899,-1.6752,-1.6092,-1.5661,-1.6127,-1.6102,-1.6433,-1.6501,-1.6697,-1.6656,-1.6482,-1.6298,-1.6193,-1.5798,-1.5152,-1.4394,-1.3608,-1.2984,-1.2415,-1.1948,-1.1471,-1.1267,-1.2078,-1.2056,-1.2083,-1.1921,-1.1682,-1.1666,-1.1558,-1.1332,-1.1311,-1.1311,-1.1311,-1.1311,-1.1187,-1.1036,-1.0966,-1.0832,-1.0597,-1.0428,-1.0299,-1.0261,-0.9943,-0.9779,-0.9814,-0.9506,-0.9314,-0.9195,-0.8877,-0.8953,-0.9382,-0.955,-0.9913,-1.046,-1.0523,-1.0586,-1.0586,-1.0301,-1.0147,-1.0087,-0.984,-0.9686,-0.9715,-0.9626,-0.9486,-0.9237,-0.9171,-0.9038,-0.8811,-0.8791,-0.8778,-0.8778,-0.8778,-0.8778,-0.8811,-0.8831,-0.8958,-0.9204,-0.9216,-0.9391,-0.9706,-0.9987,-1.0127,-1.0224,-1.0908,-1.1353,-1.1655,-1.2058,-1.2665,-1.3541,-1.4139,-1.4494,-1.4552,-1.4504,-1.4485,-1.4485,-1.4485,-1.4485,-1.4607,-1.5001,-1.5309,-1.5478,-1.6132,-1.6587,-1.6312,-1.6303,-1.6661,-1.7174,-1.7403,-1.7321,-1.711,-1.7248,-1.7266,-1.7018,-1.6908,-1.6908,-1.6908,-1.6881,-1.6775,-1.6715,-1.6426,-1.6384,-1.6149,-1.6184,-1.5868,-1.5657,-1.5357,-1.5215,-1.5046,-1.4402,-1.3673,-1.2915,-1.2445,-1.1979,-1.1595,-1.1223,-1.1186,-1.2089,-1.2089,-1.2089,-1.1954,-1.1709,-1.1698,-1.1569,-1.1321,-1.1311,-1.1311,-1.1311,-1.1311,-1.1262,-1.1209,-1.1069,-1.1036,-1.1059,-1.0875,-1.06,-1.0308,-1.0137,-0.9893,-0.9547,-0.9359,-0.9127,-0.8965,-0.9351,-0.9542,-0.9584,-1.0002,-1.0396,-1.0555,-1.0586,-1.0586,-1.0586,-1.0499,-1.0459,-1.0394,-1.0127,-0.998,-0.996,-0.9793,-0.9639,-0.9519,-0.9165,-0.8944,-0.9058,-0.8884,-0.8785,-0.8791,-0.8778,-0.8778,-0.8838,-0.8971,-0.9211,-0.9519,-0.974,-0.9973,-1.0271,-1.0385,-1.0445,-1.0497,-1.0759,-1.1344,-1.2058,-1.2397,-1.3039,-1.398,-1.4396,-1.4598,-1.4808,-1.4653,-1.454,-1.4494,-1.4485,-1.4522,-1.4677,-1.5281,-1.5931,-1.6358,-1.6707,-1.6798,-1.6771,-1.6881,-1.7248,-1.7578,-1.7807,-1.7789,-1.7559,-1.7513,-1.7339,-1.7,-1.6954,-1.6877,-1.6773,-1.6607,-1.6439,-1.5962,-1.5606,-1.5621,-1.5507,-1.5365,-1.5081,-1.4761,-1.4493,-1.4194,-1.4057,-1.3696,-1.2993,-1.2338,-1.1807,-1.1459,-1.1198,-1.1166,-1.1244,-1.2359,-1.2359,-1.2359,-1.217,-1.1844,-1.1828,-1.1645,-1.1337,-1.1311,-1.1311,-1.1311,-1.1311,-1.1311,-1.1278,-1.1187,-1.1166,-1.1278,-1.1187,-1.0829,-1.0372,-1.0404,-1.0016,-0.94,-0.9316,-0.9411,-0.9471,-0.9879,-1.0046,-0.9951,-1.0358,-1.0586,-1.0586,-1.0586,-1.0586,-1.0586,-1.0586,-1.0586,-1.0559,-1.0381,-1.0281,-1.0247,-1.0137,-0.999,-0.9813,-0.9486,-0.9345,-0.9364,-0.9218,-0.9085,-0.8964,-0.8938,-0.8971,-0.8985,-0.9124,-0.9391,-0.9793,-1.0013,-1.0234,-1.0546,-1.0566,-1.0586,-1.0618,-1.0807,-1.1382,-1.2358,-1.2818,-1.3692,-1.4318,-1.4485,-1.4671,-1.4983,-1.5135,-1.4989,-1.4827,-1.4772,-1.4873,-1.5157,-1.5675,-1.6285,-1.6716,-1.7047,-1.7047,-1.7046,-1.7422,-1.7779,-1.799,-1.8201,-1.8246,-1.8064,-1.799,-1.7678,-1.7394,-1.7293,-1.7062,-1.6643,-1.635,-1.6039,-1.5218,-1.439,-1.4511,-1.4502,-1.441,-1.4209,-1.3881,-1.3582,-1.3174,-1.2975,-1.2907,-1.2479,-1.1853,-1.1497,-1.1484,-1.1467,-1.1492,-1.1528,-1.2802,-1.2807,-1.2802,-1.2505,-1.21,-1.2073,-1.1763,-1.1348,-1.1311,-1.1311,-1.1311,-1.1311,-1.1311,-1.1311,-1.1273,-1.1289,-1.1305,-1.1375,-1.1086,-1.071,-1.0621,-1.029,-0.9443,-0.9496,-0.9963,-1.047,-1.0455,-1.0472,-1.0527,-1.0628,-1.06,-1.0593,-1.0586,-1.0586,-1.0586,-1.0586,-1.0586,-1.0586,-1.0573,-1.0559,-1.0559,-1.0553,-1.0432,-1.0147,-1.0053,-0.9913,-0.9733,-0.9673,-0.9546,-0.9277,-0.9237,-0.9237,-0.921,-0.9216,-0.957,-1.0023,-1.0127,-1.0301,-1.0526,-1.0586,-1.0586,-1.0618,-1.1189,-1.1817,-1.256,-1.3548,-1.4309,-1.4647,-1.4726,-1.4864,-1.5276,-1.5588,-1.5707,-1.5441,-1.5285,-1.5505,-1.6096,-1.6156,-1.6334,-1.6844,-1.7321,-1.7605,-1.7257,-1.7844,-1.8183,-1.8495,-1.8669,-1.866,-1.8595,-1.8476,-1.8339,-1.8073,-1.7743,-1.7223,-1.6765,-1.5675,-1.5353,-1.4676,-1.3904,-1.3957,-1.3822,-1.3689,-1.355,-1.3195,-1.2983,-1.2477,-1.2183,-1.2338,-1.2387,-1.2135,-1.1942,-1.1893,-1.1787,-1.1757,-1.1745,-1.2807,-1.2807,-1.2807,-1.2537,-1.2121,-1.2089,-1.1779,-1.1337,-1.1311,-1.1311,-1.1311,-1.1311,-1.1311,-1.1311,-1.1311,-1.1311,-1.1392,-1.1645,-1.1677,-1.1394,-1.1473,-1.0639,-0.9802,-1.0201,-1.0642,-1.0813,-1.1141,-1.1243,-1.0915,-1.0862,-1.0801,-1.0593,-1.06,-1.0586,-1.0586,-1.0586,-1.0586,-1.0586,-1.0586,-1.0586,-1.0586,-1.0586,-1.0553,-1.0479,-1.0241,-1.01,-1.0007,-1.0007,-0.9866,-0.9599,-0.9566,-0.9573,-0.9579,-0.974,-0.9903,-1.0083,-1.0327,-1.0486,-1.0559,-1.0586,-1.0586,-1.0676,-1.144,-1.221,-1.2885,-1.367,-1.4509,-1.512,-1.5542,-1.5735,-1.5918,-1.59,-1.5881,-1.5995,-1.5936,-1.5964,-1.6147,-1.6147,-1.6312,-1.6844,-1.7403,-1.7908,-1.8403,-1.8531,-1.8687,-1.8953,-1.9024,-1.8973,-1.8747,-1.8506,-1.8154,-1.827,-1.8005,-1.7432,-1.6673,-1.5454,-1.46,-1.4017,-1.3695,-1.3843,-1.3558,-1.3248,-1.3109,-1.2901,-1.3055,-1.2718,-1.2435,-1.2406,-1.2365,-1.2361,-1.2252,-1.2113,-1.1956,-1.189,-1.192,-1.2807,-1.2802,-1.2705,-1.2445,-1.21,-1.1986,-1.1688,-1.1359,-1.1311,-1.1311,-1.1311,-1.1311,-1.1311,-1.1311,-1.1311,-1.1435,-1.1596,-1.1892,-1.1835,-1.1698,-1.1634,-1.1155,-1.0619,-1.0993,-1.112,-1.1283,-1.165,-1.1568,-1.1216,-1.1062,-1.0902,-1.078,-1.0653,-1.0593,-1.0586,-1.0586,-1.0586,-1.0586,-1.0586,-1.0586,-1.0586,-1.0586,-1.0586,-1.0566,-1.0381,-1.0301,-1.0307,-1.0338,-1.012,-0.9813,-0.9786,-0.9866,-0.9873,-0.9983,-1.0167,-1.0287,-1.0506,-1.0586,-1.0586,-1.0593,-1.0653,-1.0889,-1.1617,-1.243,-1.3235,-1.39,-1.4739,-1.5523,-1.5913,-1.6147,-1.6251,-1.623,-1.6331,-1.6514,-1.6633,-1.667,-1.6679,-1.6734,-1.6927,-1.7367,-1.7853,-1.8394,-1.921,-1.9072,-1.9109,-1.9131,-1.8802,-1.8652,-1.8426,-1.818,-1.7835,-1.7757,-1.7743,-1.7215,-1.6309,-1.5109,-1.4524,-1.3898,-1.3754,-1.3834,-1.3507,-1.3126,-1.308,-1.3067,-1.3076,-1.3042,-1.2836,-1.2612,-1.251,-1.2524,-1.2445,-1.2385,-1.2258,-1.2131,-1.2149,-1.2807,-1.2791,-1.2511,-1.2269,-1.2078,-1.1801,-1.1585,-1.1337,-1.1311,-1.1262,-1.1219,-1.1267,-1.1219,-1.1219,-1.1132,-1.1472,-1.1972,-1.1972,-1.1995,-1.1905,-1.1851,-1.1667,-1.1589,-1.1366,-1.1549,-1.184,-1.1924,-1.175,-1.1496,-1.1229,-1.1089,-1.0989,-1.0801,-1.066,-1.0667,-1.0626,-1.0586,-1.0586,-1.0586,-1.0586,-1.0586,-1.0586,-1.0586,-1.0579,-1.0573,-1.0539,-1.0553,-1.0539,-1.0352,-0.9842,-1.0027,-1.0147,-1.0167,-1.0167,-1.0281,-1.0506,-1.0573,-1.0586,-1.0586,-1.0593,-1.0809,-1.1195,-1.1808,-1.2671,-1.3693,-1.4446,-1.5096,-1.5907,-1.6056,-1.626,-1.6431,-1.6679,-1.6844,-1.6945,-1.7229,-1.7394,-1.7596,-1.7605,-1.7743,-1.8054,-1.8438,-1.8916,-1.9164,-1.9222,-1.9134,-1.8563,-1.8278,-1.7876,-1.7674,-1.7429,-1.7017,-1.6644,-1.6701,-1.6846,-1.5823,-1.4747,-1.4413,-1.4001,-1.3975,-1.3935,-1.3614,-1.3353,-1.3347,-1.3339,-1.3255,-1.3255,-1.3235,-1.3062,-1.2808,-1.2662,-1.2578,-1.2626,-1.2644,-1.2518,-1.2475,-1.2807,-1.2797,-1.2511,-1.2269,-1.2078,-1.1801,-1.152,-1.1316,-1.1311,-1.1084,-1.0906,-1.1127,-1.1084,-1.0727,-1.0857,-1.1198,-1.1966,-1.2066,-1.2248,-1.2833,-1.2843,-1.2549,-1.2263,-1.2016,-1.2081,-1.2198,-1.2204,-1.2051,-1.1839,-1.1698,-1.155,-1.1282,-1.1029,-1.0928,-1.0875,-1.07,-1.0586,-1.0593,-1.06,-1.0586,-1.0586,-1.0586,-1.0586,-1.0586,-1.0586,-1.0586,-1.0586,-1.0586,-1.0526,-1.0459,-1.0445,-1.0459,-1.0459,-1.0472,-1.0512,-1.0553,-1.0586,-1.0586,-1.0593,-1.0651,-1.0976,-1.1696,-1.231,-1.3207,-1.4774,-1.5094,-1.5679,-1.6403,-1.6707,-1.6716,-1.6789,-1.6853,-1.7073,-1.7275,-1.7257,-1.7486,-1.8174,-1.832,-1.8201,-1.8283,-1.8704,-1.9161,-1.9155,-1.8559,-1.8318,-1.7997,-1.7513,-1.7025,-1.6821,-1.6657,-1.6206,-1.5718,-1.576,-1.5925,-1.5519,-1.4622,-1.4292,-1.4088,-1.4088,-1.4075,-1.3748,-1.3641,-1.3654,-1.3522,-1.3313,-1.3357,-1.3434,-1.3094,-1.2778,-1.2741,-1.2705,-1.2705,-1.2705,-1.2705,-1.2705,-1.2478,-1.2451,-1.2178,-1.2005,-1.186,-1.1634,-1.1418,-1.1327,-1.1311,-1.1035,-1.0727,-1.0906,-1.0727,-1.0381,-1.0766,-1.137,-1.2023,-1.256,-1.2965,-1.3226,-1.316,-1.2812,-1.2603,-1.2371,-1.2305,-1.2305,-1.2298,-1.2198,-1.2084,-1.1973,-1.1806,-1.1603,-1.1216,-1.1089,-1.1096,-1.0821,-1.07,-1.0747,-1.0653,-1.0586,-1.0586,-1.0586,-1.0586,-1.0586,-1.0586,-1.0586,-1.0586,-1.0586,-1.0586,-1.0586,-1.0586,-1.0586,-1.0586,-1.0586,-1.0586,-1.0586,-1.0586,-1.0586,-1.06,-1.0734,-1.1052,-1.1796,-1.2668,-1.3779,-1.4938,-1.559,-1.6271,-1.6726,-1.6908,-1.6954,-1.7147,-1.7183,-1.7376,-1.7651,-1.7605,-1.7825,-1.8458,-1.8495,-1.8476,-1.8623,-1.9045,-1.8138,-1.7594,-1.7585,-1.7383,-1.7025,-1.6535,-1.6049,-1.5842,-1.5643,-1.5352,-1.5026,-1.4985,-1.495,-1.4866,-1.4496,-1.4208,-1.4088,-1.4088,-1.4088,-1.3961,-1.3955,-1.3995,-1.3798,-1.361,-1.3467,-1.3483,-1.3094,-1.2833,-1.2747,-1.2705,-1.2705,-1.2705,-1.2705,-1.2705,-1.2089,-1.2073,-1.1801,-1.1698,-1.1661,-1.1418,-1.1321,-1.1311,-1.1219,-1.0868,-1.0554,-1.0506,-1.0294,-1.012,-1.0766,-1.1456,-1.2262,-1.3111,-1.3639,-1.3513,-1.322,-1.2965,-1.275,-1.2556,-1.2365,-1.2318,-1.2305,-1.2285,-1.2218,-1.2078,-1.2013,-1.1844,-1.1423,-1.1329,-1.1336,-1.1015,-1.0841,-1.0915,-1.0794,-1.0646,-1.06,-1.0586,-1.0586,-1.0586,-1.0586,-1.0586,-1.0586,-1.0586,-1.0586,-1.0586,-1.0586,-1.0586,-1.0586,-1.0586,-1.0586,-1.0586,-1.0586,-1.0633,-1.0727,-1.0894,-1.1169,-1.1614,-1.2962,-1.408,-1.4773,-1.5552,-1.6184,-1.6586,-1.6778,-1.7018,-1.7358,-1.7303,-1.7568,-1.7852,-1.7952,-1.8124,-1.8519,-1.8353,-1.8337,-1.9024,-1.8894,-1.7931,-1.6984,-1.6568,-1.6329,-1.6057,-1.5575,-1.5208,-1.5013,-1.4838,-1.4636,-1.4538,-1.4538,-1.4538,-1.4454,-1.4453,-1.4157,-1.4148,-1.4135,-1.4108,-1.4102,-1.4075,-1.4062,-1.4026,-1.3893,-1.3737,-1.3483,-1.3179,-1.296,-1.279,-1.2705,-1.2705,-1.2705,-1.2705,-1.2705,-1.2089,-1.2073,-1.1795,-1.1698,-1.1661,-1.1407,-1.1267,-1.1219,-1.0906,-1.0467,-1.0125,-1.0077,-0.9864,-0.9733,-1.0332,-1.1408,-1.2644,-1.3549,-1.3826,-1.366,-1.3454,-1.3247,-1.2857,-1.2717,-1.2563,-1.2358,-1.2305,-1.2305,-1.2305,-1.2251,-1.2184,-1.2138,-1.185,-1.1772,-1.1712,-1.145,-1.1129,-1.1102,-1.0975,-1.0835,-1.0727,-1.0646,-1.0633,-1.0626,-1.0613,-1.0586,-1.0586,-1.0586,-1.0586,-1.0586,-1.0586,-1.0586,-1.06,-1.06,-1.0613,-1.0586,-1.0593,-1.0673,-1.0881,-1.0969,-1.1647,-1.2455,-1.3112,-1.3726,-1.4399,-1.4931,-1.5542,-1.6132,-1.6613,-1.6947,-1.6991,-1.7149,-1.7432,-1.7633,-1.7471,-1.7333,-1.8381,-1.8239,-1.7969,-1.8806,-1.847,-1.7927,-1.6974,-1.6152,-1.5848,-1.5606,-1.5184,-1.4845,-1.4676,-1.4508,-1.434,-1.4235,-1.4166,-1.4166,-1.4173,-1.422,-1.4175,-1.4278,-1.4271,-1.4168,-1.4148,-1.4102,-1.4095,-1.4235,-1.4041,-1.3737,-1.3476,-1.3222,-1.2966,-1.2747,-1.2705,-1.2705,-1.2753,-1.2783,-1.2705,-1.1688,-1.1677,-1.1564,-1.1477,-1.1455,-1.1359,-1.1132,-1.0906,-1.0684,-1.025,-0.9777,-0.9607,-0.9393,-0.9388,-1.0419,-1.1843,-1.3222,-1.3822,-1.3995,-1.382,-1.366,-1.3387,-1.3025,-1.2884,-1.2616,-1.2378,-1.2305,-1.2311,-1.2305,-1.2298,-1.2305,-1.2231,-1.2011,-1.198,-1.1951,-1.163,-1.1483,-1.1376,-1.1289,-1.1149,-1.0989,-1.0908,-1.0821,-1.0787,-1.0673,-1.0593,-1.0586,-1.0586,-1.0586,-1.0586,-1.0586,-1.0586,-1.0626,-1.072,-1.0754,-1.066,-1.0626,-1.0734,-1.0975,-1.1116,-1.1601,-1.2312,-1.2899,-1.3665,-1.4296,-1.4716,-1.5125,-1.6052,-1.6297,-1.6839,-1.7451,-1.7251,-1.7475,-1.7743,-1.723,-1.7192,-1.7562,-1.7129,-1.759,-1.8324,-1.8135,-1.7622,-1.6912,-1.6142,-1.5604,-1.5176,-1.4806,-1.4592,-1.4425,-1.4382,-1.4362,-1.4168,-1.4135,-1.4088,-1.4168,-1.4335,-1.4482,-1.4536,-1.4459,-1.4398,-1.4345,-1.4309,-1.4486,-1.4609,-1.4319,-1.3812,-1.3525,-1.3313,-1.3009,-1.2765,-1.2753,-1.2795,-1.285,-1.285,-1.2801,-1.1311,-1.1311,-1.1176,-1.117,-1.117,-1.1046,-1.0819,-1.0506,-1.0332,-0.9946,-0.9349,-0.9218,-0.9087,-0.9388,-1.0766,-1.2491,-1.4046,-1.4088,-1.4068,-1.4021,-1.3861,-1.354,-1.3293,-1.3046,-1.2831,-1.2529,-1.2432,-1.2358,-1.2311,-1.2305,-1.2305,-1.2258,-1.2051,-1.2058,-1.2131,-1.1877,-1.1804,-1.1752,-1.1663,-1.1475,-1.1342,-1.1209,-1.1076,-1.1049,-1.0808,-1.072,-1.0827,-1.0747,-1.078,-1.0801,-1.0801,-1.0734,-1.068,-1.0889,-1.1015,-1.0915,-1.0841,-1.0935,-1.1149,-1.1363,-1.1692,-1.2157,-1.2963,-1.3673,-1.4055,-1.4421,-1.514,-1.6431,-1.6813,-1.6581,-1.7012,-1.7286,-1.7346,-1.729,-1.7065,-1.6858,-1.6766,-1.6676,-1.6871,-1.7318,-1.7571,-1.73,-1.6626,-1.5995,-1.5381,-1.5265,-1.4878,-1.4858,-1.476,-1.477,-1.4689,-1.4355,-1.4195,-1.4108,-1.4255,-1.4653,-1.485,-1.5117,-1.489,-1.4703,-1.4636,-1.4633,-1.4756,-1.4807,-1.4304,-1.3859,-1.3613,-1.3376,-1.309,-1.2917,-1.2862,-1.294,-1.3097,-1.3073,-1.2982,-1.1311,-1.1262,-1.0862,-1.0679,-1.0636,-1.0342,-1.0173,-1.0038,-0.9694,-0.9388,-0.9218,-0.8999,-0.917,-1.012,-1.1671,-1.3052,-1.3828,-1.4088,-1.4088,-1.4068,-1.4008,-1.3828,-1.3567,-1.3533,-1.314,-1.2797,-1.271,-1.2569,-1.2392,-1.2338,-1.2305,-1.2278,-1.2258,-1.2265,-1.2265,-1.2144,-1.2091,-1.1946,-1.1873,-1.171,-1.1503,-1.1416,-1.1376,-1.1296,-1.1129,-1.1029,-1.1162,-1.1056,-1.1029,-1.1202,-1.1242,-1.1049,-1.0801,-1.1096,-1.1623,-1.1784,-1.171,-1.145,-1.1698,-1.1765,-1.1884,-1.2233,-1.2989,-1.3211,-1.3566,-1.4253,-1.5235,-1.6727,-1.7063,-1.677,-1.6203,-1.639,-1.6522,-1.6324,-1.6012,-1.6106,-1.6152,-1.5928,-1.6164,-1.6476,-1.676,-1.6726,-1.635,-1.5754,-1.5221,-1.5135,-1.5064,-1.5057,-1.507,-1.5144,-1.5144,-1.485,-1.4522,-1.4409,-1.4636,-1.4995,-1.5157,-1.5551,-1.5351,-1.5077,-1.5064,-1.4992,-1.4863,-1.4773,-1.4347,-1.4059,-1.3881,-1.358,-1.323,-1.3177,-1.3272,-1.3357,-1.3435,-1.3338,-1.3181,-1.0689,-1.0862,-1.0679,-1.0467,-1.025,-1.0081,-0.982,-0.9607,-0.9388,-0.9174,-0.9043,-0.9305,-1.012,-1.1413,-1.2448,-1.3222,-1.3955,-1.4088,-1.4088,-1.4088,-1.4062,-1.3935,-1.366,-1.358,-1.334,-1.3086,-1.2878,-1.273,-1.2569,-1.2392,-1.2305,-1.2305,-1.2305,-1.2291,-1.2305,-1.2305,-1.2238,-1.2151,-1.2104,-1.2051,-1.1911,-1.177,-1.1677,-1.1663,-1.139,-1.1356,-1.1376,-1.1336,-1.1249,-1.1362,-1.1302,-1.1202,-1.1156,-1.141,-1.1804,-1.2184,-1.2078,-1.1911,-1.1906,-1.1913,-1.2087,-1.2321,-1.2807,-1.3089,-1.3395,-1.4392,-1.5178,-1.57,-1.5989,-1.5871,-1.562,-1.584,-1.5803,-1.5619,-1.526,-1.5274,-1.5436,-1.5319,-1.5331,-1.5662,-1.5973,-1.6051,-1.6076,-1.5701,-1.5371,-1.5458,-1.5451,-1.5458,-1.5491,-1.5551,-1.5531,-1.5431,-1.509,-1.4834,-1.513,-1.5464,-1.5471,-1.5712,-1.5712,-1.5511,-1.5538,-1.5445,-1.5232,-1.5019,-1.4708,-1.4471,-1.4172,-1.3641,-1.3086,-1.3357,-1.3749,-1.3761,-1.3749,-1.3498,-1.3447,-0.999,-1.0294,-1.025,-1.0077,-0.9825,-0.9745,-0.9508,-0.92,-0.916,-0.8983,-0.905,-0.9761,-1.1198,-1.2485,-1.296,-1.3525,-1.4088,-1.4088,-1.4088,-1.4088,-1.4062,-1.3968,-1.3806,-1.3706,-1.358,-1.332,-1.316,-1.3018,-1.2857,-1.2665,-1.2518,-1.2325,-1.2305,-1.2305,-1.2305,-1.2305,-1.2278,-1.2278,-1.2271,-1.2265,-1.2225,-1.2078,-1.2004,-1.1891,-1.173,-1.157,-1.163,-1.1557,-1.1543,-1.1615,-1.1562,-1.1597,-1.167,-1.181,-1.1991,-1.2251,-1.2218,-1.2164,-1.2064,-1.208,-1.2144,-1.2418,-1.2766,-1.3258,-1.3547,-1.4799,-1.5397,-1.4893,-1.4882,-1.5157,-1.5423,-1.5412,-1.5408,-1.5287,-1.5074,-1.4852,-1.4749,-1.498,-1.511,-1.5301,-1.56,-1.5732,-1.5696,-1.5537,-1.5525,-1.5758,-1.5825,-1.5825,-1.5818,-1.5764,-1.5758,-1.5658,-1.5524,-1.5237,-1.5444,-1.5738,-1.5805,-1.5825,-1.5825,-1.5812,-1.5752,-1.5657,-1.553,-1.5311,-1.4981,-1.4665,-1.4331,-1.3621,-1.3067,-1.3598,-1.402,-1.4069,-1.4014,-1.3797,-1.3725,-0.9349,-0.9388,-0.9388,-0.9393,-0.9314,-0.9003,-0.8886,-0.8869,-0.8886,-0.8931,-0.9285,-1.0426,-1.1671,-1.2747,-1.3525,-1.3913,-1.4088,-1.4088,-1.4088,-1.4088,-1.4082,-1.4055,-1.3995,-1.3955,-1.3881,-1.3613,-1.3433,-1.3293,-1.3206,-1.3066,-1.2746,-1.2392,-1.2472,-1.2371,-1.2351,-1.2412,-1.2345,-1.2325,-1.2305,-1.2305,-1.2305,-1.2258,-1.2245,-1.2184,-1.2024,-1.1951,-1.2191,-1.1971,-1.1911,-1.2118,-1.2071,-1.2058,-1.2084,-1.2138,-1.2231,-1.2271,-1.2305,-1.2285,-1.2265,-1.2298,-1.2445,-1.2779,-1.3153,-1.348,-1.3669,-1.3909,-1.4191,-1.4296,-1.4331,-1.4296,-1.4671,-1.4943,-1.5014,-1.4783,-1.467,-1.4701,-1.4754,-1.5147,-1.5209,-1.5169,-1.5297,-1.5598,-1.5705,-1.5604,-1.5591,-1.5805,-1.5825,-1.5825,-1.5825,-1.5818,-1.5818,-1.5785,-1.5792,-1.5705,-1.5718,-1.5825,-1.5825,-1.5825,-1.5825,-1.5825,-1.5812,-1.5737,-1.5642,-1.522,-1.4838,-1.464,-1.4447,-1.3914,-1.3652,-1.4032,-1.4268,-1.4226,-1.422,-1.4087,-1.4075,-0.8872,-0.8872,-0.8872,-0.8872,-0.8884,-0.8837,-0.8775,-0.884,-0.8938,-0.9639,-1.0498,-1.113,-1.2143,-1.3313,-1.3828,-1.4088,-1.4088,-1.4088,-1.4088,-1.4088,-1.4088,-1.4088,-1.4088,-1.4075,-1.4021,-1.3888,-1.3713,-1.358,-1.3447,-1.332,-1.3146,-1.2906,-1.2859,-1.2866,-1.2832,-1.2677,-1.2498,-1.2358,-1.2325,-1.2311,-1.2305,-1.2305,-1.2305,-1.2285,-1.2238,-1.2178,-1.2265,-1.2198,-1.2225,-1.2265,-1.2298,-1.2305,-1.2305,-1.2305,-1.2325,-1.2338,-1.2345,-1.2412,-1.2603,-1.2612,-1.2786,-1.3227,-1.348,-1.3653,-1.3794,-1.4008,-1.4075,-1.4124,-1.4122,-1.4168,-1.4271,-1.4605,-1.4701,-1.4289,-1.4202,-1.4445,-1.4763,-1.5192,-1.5378,-1.5338,-1.5498,-1.5758,-1.5805,-1.5805,-1.5805,-1.5825,-1.5825,-1.5825,-1.5825,-1.5825,-1.5825,-1.5825,-1.5825,-1.5825,-1.5825,-1.5825,-1.5825,-1.5825,-1.5778,-1.5778,-1.5778,-1.5778,-1.5635,-1.5172,-1.4742,-1.4544,-1.4339,-1.4164,-1.4129,-1.4256,-1.4298,-1.4286,-1.4292,-1.4298,-1.4298,-0.8616,-0.8616,-0.8616,-0.8597,-0.8662,-0.8828,-0.8934,-0.8999,-0.912,-1.0085,-1.1561,-1.169,-1.2571,-1.3743,-1.4088,-1.4088,-1.4088,-1.4088,-1.4088,-1.4088,-1.4088,-1.4088,-1.4088,-1.4082,-1.4075,-1.4035,-1.3928,-1.3733,-1.3768,-1.3561,-1.35,-1.3487,-1.3454,-1.34,-1.3126,-1.3006,-1.2817,-1.2625,-1.2572,-1.2498,-1.2478,-1.2452,-1.2358,-1.2338,-1.2278,-1.2278,-1.2298,-1.2271,-1.2278,-1.2298,-1.2305,-1.2305,-1.2305,-1.2325,-1.2378,-1.2432,-1.2485,-1.2616,-1.2844,-1.3026,-1.3193,-1.3473,-1.3734,-1.3895,-1.4021,-1.4095,-1.4108,-1.4262,-1.4295,-1.4342,-1.4335,-1.4619,-1.4744,-1.4469,-1.4526,-1.4713,-1.5005,-1.5332,-1.545,-1.5509,-1.5594,-1.5594,-1.554,-1.554,-1.573,-1.5778,-1.5825,-1.5825,-1.5825,-1.5825,-1.5825,-1.5825,-1.5825,-1.5825,-1.5825,-1.5825,-1.5778,-1.5778,-1.573,-1.5683,-1.5683,-1.5683,-1.5499,-1.5029,-1.4646,-1.44,-1.4256,-1.4189,-1.422,-1.4286,-1.4298,-1.4298,-1.4298,-1.4298,-1.4298,-0.8616,-0.8616,-0.8616,-0.8662,-0.8828,-0.9007,-0.9165,-0.9322,-0.9498,-1.0361,-1.1825,-1.2366,-1.3144,-1.3965,-1.4162,-1.4135,-1.4088,-1.4088,-1.4088,-1.4088,-1.4088,-1.4088,-1.4088,-1.4088,-1.4088,-1.4088,-1.4021,-1.3995,-1.4035,-1.3941,-1.3955,-1.3968,-1.3874,-1.3721,-1.326,-1.3213,-1.3193,-1.318,-1.3126,-1.2946,-1.2837,-1.2777,-1.2619,-1.2512,-1.2465,-1.2485,-1.2492,-1.2412,-1.2405,-1.2398,-1.2325,-1.2325,-1.2371,-1.2371,-1.2518,-1.2826,-1.2811,-1.2931,-1.3173,-1.3413,-1.358,-1.3666,-1.3895,-1.4028,-1.4075,-1.4102,-1.4153,-1.4283,-1.4648,-1.4832,-1.487,-1.481,-1.4823,-1.4803,-1.481,-1.488,-1.516,-1.5217,-1.5285,-1.5315,-1.5315,-1.522,-1.5166,-1.5213,-1.554,-1.5683,-1.5778,-1.5825,-1.5825,-1.5825,-1.5825,-1.5825,-1.5825,-1.5825,-1.5825,-1.5825,-1.5778,-1.573,-1.5683,-1.5588,-1.5452,-1.5356,-1.5124,-1.4796,-1.4598,-1.4352,-1.4298,-1.4286,-1.4298,-1.4298,-1.4298,-1.4298,-1.4298,-1.4316,-1.434,-0.8616,-0.8616,-0.8616,-0.8735,-0.8995,-0.9068,-0.9241,-0.9527,-1.0153,-1.139,-1.2802,-1.3294,-1.3692,-1.4219,-1.4342,-1.4269,-1.4115,-1.4088,-1.4088,-1.4088,-1.4088,-1.4088,-1.4088,-1.4088,-1.4088,-1.4088,-1.4088,-1.4088,-1.4075,-1.4088,-1.4088,-1.4082,-1.4062,-1.3874,-1.356,-1.344,-1.3387,-1.324,-1.3193,-1.3146,-1.3066,-1.3046,-1.2993,-1.2879,-1.2852,-1.2839,-1.2819,-1.2685,-1.2643,-1.261,-1.2492,-1.2445,-1.2559,-1.2599,-1.2766,-1.3,-1.306,-1.3193,-1.34,-1.3617,-1.3748,-1.3878,-1.3959,-1.4046,-1.4095,-1.4088,-1.4156,-1.432,-1.4676,-1.4813,-1.476,-1.4851,-1.4917,-1.4967,-1.5006,-1.5009,-1.5131,-1.4997,-1.4987,-1.5035,-1.5035,-1.5083,-1.5077,-1.5022,-1.5261,-1.5594,-1.5689,-1.5778,-1.5778,-1.5825,-1.5825,-1.5825,-1.5825,-1.5825,-1.5825,-1.5825,-1.573,-1.5635,-1.5547,-1.5452,-1.5315,-1.5124,-1.4838,-1.4544,-1.4448,-1.4298,-1.4298,-1.4298,-1.4298,-1.4298,-1.4334,-1.4322,-1.4298,-1.4352,-1.4425,-0.9257,-0.9519,-0.9515,-0.9522,-0.9524,-0.9236,-0.9411,-1.0167,-1.1329,-1.2653,-1.3618,-1.3969,-1.427,-1.4551,-1.4549,-1.4419,-1.4229,-1.4115,-1.4088,-1.4088,-1.4088,-1.4088,-1.4088,-1.4095,-1.4088,-1.4095,-1.4095,-1.4088,-1.4088,-1.4088,-1.4088,-1.4088,-1.4088,-1.3981,-1.3834,-1.3726,-1.3728,-1.3601,-1.3587,-1.3507,-1.3407,-1.33,-1.33,-1.3206,-1.3173,-1.318,-1.314,-1.3039,-1.2938,-1.2884,-1.2772,-1.2661,-1.2814,-1.2862,-1.2949,-1.3061,-1.3244,-1.3349,-1.3476,-1.3539,-1.3656,-1.376,-1.387,-1.3923,-1.3998,-1.4028,-1.4189,-1.434,-1.4541,-1.464,-1.4675,-1.4844,-1.491,-1.5002,-1.516,-1.5204,-1.5046,-1.4914,-1.4796,-1.4838,-1.479,-1.4838,-1.4939,-1.4933,-1.5022,-1.5309,-1.5547,-1.5648,-1.5743,-1.5778,-1.5825,-1.5825,-1.5825,-1.5825,-1.5825,-1.5825,-1.5683,-1.5547,-1.5404,-1.5315,-1.5022,-1.4838,-1.4544,-1.4346,-1.4346,-1.4298,-1.4298,-1.4298,-1.4298,-1.4352,-1.4431,-1.4395,-1.4322,-1.4383,-1.4485,-1.0463,-1.1235,-1.1332,-1.0948,-1.044,-0.9919,-1.0269,-1.1429,-1.3053,-1.3806,-1.3969,-1.4741,-1.4992,-1.4937,-1.4703,-1.4549,-1.4449,-1.4229,-1.4135,-1.4095,-1.4088,-1.4102,-1.4135,-1.4148,-1.4229,-1.4182,-1.4188,-1.4275,-1.4135,-1.4088,-1.4088,-1.4108,-1.4148,-1.4122,-1.4108,-1.4088,-1.4041,-1.3948,-1.3901,-1.3808,-1.3701,-1.3613,-1.352,-1.346,-1.34,-1.3387,-1.3347,-1.3267,-1.3227,-1.32,-1.3134,-1.3035,-1.2975,-1.2896,-1.2957,-1.3054,-1.3268,-1.338,-1.3425,-1.3428,-1.3442,-1.3517,-1.3461,-1.3582,-1.3788,-1.4011,-1.4209,-1.4205,-1.4294,-1.4452,-1.4545,-1.4697,-1.4796,-1.5026,-1.531,-1.5218,-1.5032,-1.4885,-1.4742,-1.464,-1.449,-1.4496,-1.4652,-1.47,-1.4944,-1.5149,-1.5403,-1.5588,-1.5706,-1.5791,-1.5784,-1.5825,-1.5825,-1.5825,-1.5825,-1.5778,-1.5594,-1.5404,-1.522,-1.5077,-1.479,-1.44,-1.4154,-1.4004,-1.4202,-1.4298,-1.4298,-1.4298,-1.4298,-1.4377,-1.4424,-1.4527,-1.4467,-1.4455,-1.4533,-1.1068,-1.1338,-1.1554,-1.1613,-1.1681,-1.2435,-1.3056,-1.3494,-1.3999,-1.4504,-1.5254,-1.5471,-1.5438,-1.5271,-1.5177,-1.489,-1.4623,-1.4416,-1.4255,-1.4182,-1.4142,-1.4242,-1.4329,-1.4409,-1.4516,-1.4673,-1.47,-1.4529,-1.4362,-1.4229,-1.4088,-1.4102,-1.4269,-1.4335,-1.4369,-1.4389,-1.4262,-1.4148,-1.4108,-1.4021,-1.3961,-1.3921,-1.3834,-1.3788,-1.3754,-1.3748,-1.3734,-1.3587,-1.354,-1.3473,-1.316,-1.3001,-1.3189,-1.308,-1.3026,-1.3274,-1.3353,-1.3392,-1.3355,-1.327,-1.3267,-1.3355,-1.3318,-1.3449,-1.3724,-1.4008,-1.4186,-1.4157,-1.4154,-1.4374,-1.4443,-1.4518,-1.4618,-1.4841,-1.5016,-1.4943,-1.479,-1.4688,-1.4544,-1.4496,-1.4346,-1.4346,-1.446,-1.4789,-1.5028,-1.5125,-1.532,-1.5454,-1.5557,-1.5639,-1.5743,-1.5737,-1.5778,-1.5784,-1.5778,-1.5778,-1.5547,-1.5315,-1.4927,-1.4394,-1.3667,-1.3329,-1.3474,-1.3474,-1.342,-1.3859,-1.4298,-1.4202,-1.3962,-1.4346,-1.4449,-1.4527,-1.463,-1.4648,-1.4733,-1.2057,-1.2435,-1.2726,-1.3034,-1.3453,-1.401,-1.449,-1.4819,-1.4921,-1.5302,-1.5778,-1.5812,-1.5732,-1.5571,-1.5418,-1.5137,-1.4723,-1.4556,-1.4409,-1.4335,-1.4249,-1.4462,-1.4603,-1.4703,-1.4776,-1.4975,-1.4975,-1.4743,-1.4543,-1.4262,-1.4088,-1.4115,-1.4382,-1.4496,-1.4502,-1.4476,-1.4422,-1.4275,-1.4168,-1.4108,-1.4088,-1.4088,-1.4088,-1.4088,-1.4088,-1.4088,-1.4075,-1.3861,-1.3786,-1.3773,-1.339,-1.3253,-1.3304,-1.3067,-1.2918,-1.3069,-1.3082,-1.3138,-1.3213,-1.3151,-1.3249,-1.3383,-1.3446,-1.3621,-1.3693,-1.3857,-1.4059,-1.4178,-1.4236,-1.4339,-1.4314,-1.4354,-1.4454,-1.4561,-1.4547,-1.4532,-1.449,-1.4394,-1.4346,-1.4346,-1.4298,-1.4298,-1.4503,-1.482,-1.4992,-1.5017,-1.5189,-1.5388,-1.5426,-1.5409,-1.5504,-1.5594,-1.5689,-1.5784,-1.5737,-1.5445,-1.4968,-1.4532,-1.4142,-1.3468,-1.2592,-1.2204,-1.2247,-1.2344,-1.249,-1.2942,-1.34,-1.3576,-1.3491,-1.392,-1.4432,-1.4809,-1.49,-1.495,-1.5071,-1.3307,-1.4073,-1.4429,-1.4705,-1.5252,-1.4706,-1.4968,-1.573,-1.5689,-1.5778,-1.5825,-1.5825,-1.5771,-1.5725,-1.5531,-1.5277,-1.493,-1.4703,-1.4569,-1.4522,-1.4456,-1.4629,-1.491,-1.5055,-1.5084,-1.5095,-1.5082,-1.5057,-1.4656,-1.4436,-1.4309,-1.4182,-1.4509,-1.471,-1.4743,-1.473,-1.4676,-1.4549,-1.4322,-1.4168,-1.4102,-1.4088,-1.4088,-1.4088,-1.4088,-1.4088,-1.4088,-1.4075,-1.4082,-1.399,-1.376,-1.3474,-1.3247,-1.304,-1.2845,-1.2874,-1.2978,-1.3069,-1.3191,-1.3233,-1.3347,-1.3565,-1.3761,-1.3868,-1.389,-1.3912,-1.4078,-1.4212,-1.431,-1.4298,-1.4279,-1.423,-1.4319,-1.4355,-1.4375,-1.4382,-1.4394,-1.4346,-1.4346,-1.4334,-1.4443,-1.4455,-1.4558,-1.488,-1.5147,-1.5038,-1.5094,-1.5387,-1.537,-1.5305,-1.5303,-1.5447,-1.5499,-1.5499,-1.5261,-1.4921,-1.419,-1.3703,-1.3264,-1.249,-1.1565,-1.1175,-1.1023,-1.1072,-1.1126,-1.1756,-1.2168,-1.2628,-1.3177,-1.3441,-1.4049,-1.4936,-1.5167,-1.4989,-1.536,-1.387,-1.4142,-1.4643,-1.5115,-1.5418,-1.5422,-1.554,-1.5825,-1.5825,-1.5825,-1.5825,-1.5825,-1.5825,-1.5798,-1.5698,-1.5451,-1.5075,-1.4917,-1.4723,-1.4636,-1.4589,-1.4897,-1.5211,-1.5304,-1.5391,-1.5565,-1.5578,-1.5331,-1.4997,-1.4803,-1.473,-1.4794,-1.497,-1.509,-1.5097,-1.5097,-1.501,-1.4796,-1.4576,-1.4282,-1.4102,-1.4088,-1.4088,-1.4088,-1.4095,-1.4102,-1.4059,-1.3919,-1.3828,-1.373,-1.3434,-1.3243,-1.3137,-1.3056,-1.3127,-1.3266,-1.3266,-1.3314,-1.3375,-1.3441,-1.3562,-1.3719,-1.3912,-1.4032,-1.4093,-1.4105,-1.4147,-1.425,-1.4286,-1.4244,-1.4208,-1.4171,-1.4147,-1.4201,-1.4244,-1.4274,-1.4298,-1.4298,-1.4298,-1.4413,-1.4503,-1.4653,-1.4755,-1.4918,-1.5228,-1.5336,-1.54,-1.5469,-1.5448,-1.5354,-1.5202,-1.5242,-1.5217,-1.5124,-1.4958,-1.3998,-1.3071,-1.2678,-1.229,-1.1414,-1.0489,-1.0149,-0.9908,-0.9706,-0.9813,-1.0483,-1.1359,-1.2456,-1.2891,-1.2899,-1.3518,-1.4268,-1.4507,-1.4414,-1.5171,-1.4088,-1.4162,-1.476,-1.513,-1.5418,-1.5705,-1.5825,-1.5825,-1.5825,-1.5825,-1.5825,-1.5825,-1.5825,-1.5825,-1.5778,-1.5618,-1.5243,-1.5164,-1.509,-1.4963,-1.4917,-1.5217,-1.5431,-1.5571,-1.5651,-1.5738,-1.5498,-1.5244,-1.5097,-1.487,-1.473,-1.4877,-1.515,-1.5411,-1.5411,-1.5378,-1.5264,-1.5001,-1.479,-1.4516,-1.4182,-1.4108,-1.4088,-1.4088,-1.4182,-1.4153,-1.3985,-1.3858,-1.3792,-1.3628,-1.3384,-1.3349,-1.3312,-1.329,-1.3363,-1.3441,-1.3495,-1.3568,-1.3646,-1.3725,-1.3803,-1.3966,-1.4075,-1.4201,-1.4214,-1.422,-1.422,-1.4298,-1.4298,-1.4268,-1.4268,-1.4238,-1.4232,-1.4268,-1.4274,-1.4292,-1.4298,-1.4298,-1.4304,-1.434,-1.466,-1.5161,-1.5215,-1.5173,-1.539,-1.5421,-1.5487,-1.5644,-1.5584,-1.5395,-1.5263,-1.4903,-1.4722,-1.4959,-1.507,-1.3519,-1.156,-1.1317,-1.1287,-1.0293,-0.9365,-0.9076,-0.8832,-0.8929,-0.9101,-0.9384,-1.0353,-1.148,-1.1774,-1.1599,-1.2493,-1.3551,-1.3667,-1.3602,-1.3751,-1.4088,-1.4175,-1.476,-1.5104,-1.5371,-1.5691,-1.5825,-1.5825,-1.5825,-1.5825,-1.5825,-1.5825,-1.5825,-1.5825,-1.5812,-1.5618,-1.5451,-1.5337,-1.5331,-1.5337,-1.5324,-1.5484,-1.5638,-1.5798,-1.5818,-1.5658,-1.5378,-1.5097,-1.4856,-1.4803,-1.4843,-1.4783,-1.5064,-1.5464,-1.5451,-1.5424,-1.5351,-1.5196,-1.5001,-1.476,-1.4472,-1.4162,-1.4133,-1.4213,-1.4256,-1.416,-1.3991,-1.3875,-1.3827,-1.3672,-1.3467,-1.3284,-1.3329,-1.3334,-1.3353,-1.3412,-1.3644,-1.3775,-1.39,-1.396,-1.4087,-1.4214,-1.428,-1.4298,-1.4298,-1.4298,-1.4298,-1.4298,-1.4298,-1.4298,-1.4298,-1.4298,-1.4298,-1.4298,-1.4298,-1.4298,-1.4298,-1.434,-1.437,-1.4389,-1.4883,-1.5451,-1.5541,-1.5487,-1.5493,-1.5517,-1.5602,-1.5765,-1.5849,-1.5582,-1.5379,-1.4613,-1.3959,-1.43,-1.4929,-1.2885,-1.0528,-1.0371,-1.0289,-0.9202,-0.8446,-0.8492,-0.8542,-0.856,-0.8713,-0.895,-0.9354,-1.03,-1.0379,-1.0666,-1.1594,-1.2573,-1.2402,-1.2262,-1.1846,-1.4088,-1.4142,-1.476,-1.5042,-1.5124,-1.5598,-1.5825,-1.5825,-1.5825,-1.5825,-1.5825,-1.5825,-1.5825,-1.5825,-1.5825,-1.5691,-1.5504,-1.5451,-1.5411,-1.5391,-1.5458,-1.5611,-1.5698,-1.5825,-1.5825,-1.5651,-1.5444,-1.5297,-1.501,-1.5097,-1.5217,-1.5211,-1.5445,-1.5718,-1.5732,-1.5678,-1.5565,-1.5357,-1.5257,-1.5097,-1.4816,-1.4552,-1.4276,-1.4245,-1.4122,-1.4146,-1.4078,-1.3988,-1.3905,-1.3764,-1.3456,-1.302,-1.2928,-1.3082,-1.3145,-1.3214,-1.3443,-1.3921,-1.4046,-1.4159,-1.4262,-1.4268,-1.4298,-1.4298,-1.4298,-1.4298,-1.4298,-1.4298,-1.4298,-1.4298,-1.4298,-1.4298,-1.4298,-1.4298,-1.4298,-1.4298,-1.4298,-1.4479,-1.4575,-1.4823,-1.5161,-1.5547,-1.5771,-1.5741,-1.5741,-1.5753,-1.5747,-1.5885,-1.5832,-1.5654,-1.531,-1.4381,-1.333,-1.3948,-1.4539,-1.1892,-0.9815,-0.9702,-0.9431,-0.87,-0.8301,-0.8285,-0.8303,-0.8513,-0.854,-0.8716,-0.9139,-0.9549,-1.0045,-1.0476,-1.0975,-1.1524,-1.1328,-1.1109,-1.0785]}]]